[[{"header":{"parameterUnit":"m.s-1","parameterCategory":1,"la1":30.6,"la2":28.766,"lo1":-90.7593,"lo2":-88.6598,"dy":0.0162,"dx":0.0183,"nx":116,"ny":114,"refTime":"2024-04-08T18:00:00:Z","depth":0,"parameterNumber":2,"parameterNumberName":"U-component_of_WINDS"},"data":[0.0,0.0,0.0,0.0,0.0,0.0,0.0,0.0,0.0,0.0,0.0,0.0,0.0,0.0,0.0,0.0,0.0,0.0,0.0,0.0,0.0,0.0,0.0,0.0,0.0,0.0,0.0,0.0,0.0,0.0,0.0,0.0,0.0,0.0,0.0,0.0,0.0,0.0,0.0,0.0,0.0,0.0,0.0,0.0,0.0,0.0,0.0,0.0,0.0,0.0,0.0,0.0,0.0,0.0,0.0,0.0,0.0,0.0,0.0,0.0,0.0,0.0,0.0,0.0,0.0,0.0,0.0,0.0,0.0,0.0,0.0,0.0,0.0,0.0,0.0,0.0,0.0,0.0,0.0,0.0,0.0,0.0,0.0,0.0,0.0,0.0,0.0,0.0,0.0,0.0,0.0,0.0,0.0,0.0,0.0,0.0,0.0,0.0,0.0,0.0,0.0,0.0,0.0,0.0,0.0,0.0,0.0,0.0,0.0,0.0,0.0,0.0,0.0,0.0,0.0,0.0,0.0,0.0,0.0,0.0,0.0,0.0,0.0,0.0,0.0,0.0,0.0,0.0,0.0,0.0,0.0,0.0,0.0,0.0,0.0,0.0,0.0,0.0,0.0,0.0,0.0,0.0,0.0,0.0,0.0,0.0,0.0,0.0,0.0,0.0,0.0,0.0,0.0,0.0,0.0,0.0,0.0,0.0,0.0,0.0,0.0,0.0,0.0,0.0,0.0,0.0,0.0,0.0,0.0,0.0,0.0,0.0,0.0,0.0,0.0,0.0,0.0,0.0,0.0,0.0,0.0,0.0,0.0,0.0,0.0,0.0,0.0,0.0,0.0,0.0,0.0,0.0,0.0,0.0,0.0,0.0,0.0,0.0,0.0,0.0,0.0,0.0,0.0,0.0,0.0,0.0,0.0,0.0,0.0,0.0,0.0,0.0,0.0,0.0,0.0,0.0,0.0,0.0,0.0,0.0,0.0,0.0,0.0,0.0,0.0,0.0,0.0,0.0,0.0,0.0,0.0,0.0,0.0,0.0,0.0,0.0,0.0,0.0,0.0,0.0,0.0,0.0,0.0,0.0,0.0,0.0,0.0,0.0,0.0,0.0,0.0,0.0,0.0,0.0,0.0,0.0,0.0,0.0,0.0,0.0,0.0,0.0,0.0,0.0,0.0,0.0,0.0,0.0,0.0,0.0,0.0,0.0,0.0,0.0,0.0,0.0,0.0,0.0,0.0,0.0,0.0,0.0,0.0,0.0,0.0,0.0,0.0,0.0,0.0,0.0,0.0,0.0,0.0,0.0,0.0,0.0,0.0,0.0,0.0,0.0,0.0,0.0,0.0,0.0,0.0,0.0,0.0,0.0,0.0,0.0,0.0,0.0,0.0,0.0,0.0,0.0,0.0,0.0,0.0,0.0,0.0,0.0,0.0,0.0,0.0,0.0,0.0,0.0,0.0,0.0,0.0,0.0,0.0,0.0,0.0,0.0,0.0,0.0,0.0,0.0,0.0,0.0,0.0,0.0,0.0,0.0,0.0,0.0,0.0,0.0,0.0,0.0,0.0,0.0,0.0,0.0,0.0,0.0,0.0,0.0,0.0,0.0,0.0,0.0,0.0,0.0,0.0,0.0,0.0,0.0,0.0,0.0,0.0,0.0,0.0,0.0,0.0,0.0,0.0,0.0,0.0,0.0,0.0,0.0,0.0,0.0,0.0,0.0,0.0,0.0,0.0,0.0,0.0,0.0,0.0,0.0,0.0,0.0,0.0,0.0,0.0,0.0,0.0,0.0,0.0,0.0,0.0,0.0,0.0,0.0,0.0,0.0,0.0,0.0,0.0,0.0,0.0,0.0,0.0,0.0,0.0,0.0,0.0,0.0,0.0,0.0,0.0,0.0,0.0,0.0,0.0,0.0,0.0,0.0,0.0,0.0,0.0,0.0,0.0,0.0,0.0,0.0,0.0,0.0,0.0,0.0,0.0,0.0,0.0,0.0,0.0,0.0,0.0,0.0,0.0,0.0,0.0,0.0,0.0,0.0,0.0,0.0,0.0,0.0,0.0,0.0,0.0,0.0,0.0,0.0,0.0,0.0,0.0,0.0,0.0,0.0,0.0,0.0,0.0,0.0,0.0,0.0,0.0,0.0,0.0,0.0,0.0,0.0,0.0,0.0,0.0,0.0,0.0,0.0,0.0,0.0,0.0,0.0,0.0,0.0,0.0,0.0,0.0,0.0,0.0,0.0,0.0,0.0,0.0,0.0,0.0,0.0,0.0,0.0,0.0,0.0,0.0,0.0,0.0,0.0,0.0,0.0,0.0,0.0,0.0,0.0,0.0,0.0,0.0,0.0,0.0,0.0,0.0,0.0,0.0,0.0,0.0,0.0,0.0,0.0,0.0,0.0,0.0,0.0,0.0,0.0,0.0,0.0,0.0,0.0,0.0,0.0,0.0,0.0,0.0,0.0,0.0,0.0,0.0,0.0,0.0,0.0,0.0,0.0,0.0,0.0,0.0,0.0,0.0,0.0,0.0,0.0,0.0,0.0,0.0,0.0,0.0,0.0,0.0,0.0,0.0,0.0,0.0,0.0,0.0,0.0,0.0,0.0,0.0,0.0,0.0,0.0,0.0,0.0,0.0,0.0,0.0,0.0,0.0,0.0,0.0,0.0,0.0,0.0,0.0,0.0,0.0,0.0,0.0,0.0,0.0,0.0,0.0,0.0,0.0,0.0,0.0,0.0,0.0,0.0,0.0,0.0,0.0,0.0,0.0,0.0,0.0,0.0,0.0,0.0,0.0,0.0,0.0,0.0,0.0,0.0,0.0,0.0,0.0,0.0,0.0,0.0,0.0,0.0,0.0,0.0,0.0,0.0,0.0,0.0,0.0,0.0,0.0,0.0,0.0,0.0,0.0,0.0,0.0,0.0,0.0,0.0,0.0,0.0,0.0,0.0,0.0,0.0,0.0,0.0,0.0,0.0,0.0,0.0,0.0,0.0,0.0,0.0,0.0,0.0,0.0,0.0,0.0,0.0,0.0,0.0,0.0,0.0,0.0,0.0,0.0,0.0,0.0,0.0,0.0,0.0,0.0,0.0,0.0,0.0,0.0,0.0,0.0,0.0,0.0,0.0,0.0,0.0,0.0,0.0,0.0,0.0,0.0,0.0,0.0,0.0,0.0,0.0,0.0,0.0,0.0,0.0,0.0,0.0,0.0,0.0,0.0,0.0,0.0,0.0,0.0,0.0,0.0,0.0,0.0,0.0,0.0,0.0,0.0,0.0,0.0,0.0,0.0,0.0,0.0,0.0,0.0,0.0,0.0,0.0,0.0,0.0,0.0,0.0,0.0,0.0,0.0,0.0,0.0,0.0,0.0,0.0,0.0,0.0,0.0,0.0,0.0,0.0,0.0,0.0,0.0,0.0,0.0,0.0,0.0,0.0,0.0,0.0,0.0,0.0,0.0,0.0,0.0,0.0,0.0,0.0,0.0,0.0,0.0,0.0,0.0,0.0,0.0,0.0,0.0,0.0,0.0,0.0,0.0,0.0,0.0,0.0,0.0,0.0,0.0,0.0,0.0,0.0,0.0,0.0,0.0,0.0,0.0,0.0,0.0,0.0,0.0,0.0,0.0,0.0,0.0,0.0,0.0,0.0,0.0,0.0,0.0,0.0,0.0,0.0,0.0,0.0,0.0,0.0,0.0,0.0,0.0,0.0,0.0,0.0,0.0,0.0,0.0,0.0,0.0,0.0,0.0,0.0,0.0,0.0,0.0,0.0,0.0,0.0,0.0,0.0,0.0,0.0,0.0,0.0,0.0,0.0,0.0,0.0,0.0,0.0,0.0,0.0,0.0,0.0,0.0,0.0,0.0,0.0,0.0,0.0,0.0,0.0,0.0,0.0,0.0,0.0,0.0,0.0,0.0,0.0,0.0,0.0,0.0,0.0,0.0,0.0,0.0,0.0,0.0,0.0,0.0,0.0,0.0,0.0,0.0,0.0,0.0,0.0,0.0,0.0,0.0,0.0,0.0,0.0,0.0,0.0,0.0,0.0,0.0,0.0,0.0,0.0,0.0,0.0,0.0,0.0,0.0,0.0,0.0,0.0,0.0,0.0,0.0,0.0,0.0,0.0,0.0,0.0,0.0,0.0,0.0,0.0,0.0,0.0,0.0,0.0,0.0,0.0,0.0,0.0,0.0,0.0,0.0,0.0,0.0,0.0,0.0,0.0,0.0,0.0,0.0,0.0,0.0,0.0,0.0,0.0,0.0,0.0,0.0,0.0,0.0,0.0,0.0,0.0,0.0,0.0,0.0,0.0,0.0,0.0,0.0,0.0,0.0,0.0,0.0,0.0,0.0,0.0,0.0,0.0,0.0,0.0,0.0,0.0,0.0,0.0,0.0,0.0,0.0,0.0,0.0,0.0,0.0,0.0,0.0,0.0,0.0,0.0,0.0,0.0,0.0,0.0,0.0,0.0,0.0,0.0,0.0,0.0,0.0,0.0,0.0,0.0,0.0,0.0,0.0,0.0,0.0,0.0,0.0,0.0,0.0,0.0,0.0,0.0,0.0,0.0,0.0,0.0,0.0,0.0,0.0,0.0,0.0,0.0,0.0,0.0,0.0,0.0,0.0,0.0,0.0,0.0,0.0,0.0,0.0,0.0,0.0,0.0,0.0,0.0,0.0,0.0,0.0,0.0,0.0,0.0,0.0,0.0,0.0,0.0,0.0,0.0,0.0,0.0,0.0,0.0,0.0,0.0,0.0,0.0,0.0,0.0,0.0,0.0,0.0,0.0,0.0,0.0,0.0,0.0,0.0,0.0,0.0,0.0,0.0,0.0,0.0,0.0,0.0,0.0,0.0,0.0,0.0,0.0,0.0,0.0,0.0,0.0,0.0,0.0,0.0,0.0,0.0,0.0,0.0,0.0,0.0,0.0,0.0,0.0,0.0,0.0,0.0,0.0,0.0,0.0,0.0,0.0,0.0,0.0,0.0,0.0,0.0,0.0,0.0,0.0,0.0,0.0,0.0,0.0,0.0,0.0,0.0,0.0,0.0,0.0,0.0,0.0,0.0,0.0,0.0,0.0,0.0,0.0,0.0,0.0,0.0,0.0,0.0,0.0,0.0,0.0,0.0,0.0,0.0,0.0,0.0,0.0,0.0,0.0,0.0,0.0,0.0,0.0,0.0,0.0,0.0,0.0,0.0,0.0,0.0,0.0,0.0,0.0,0.0,0.0,0.0,0.0,0.0,0.0,0.0,0.0,0.0,0.0,0.0,0.0,0.0,0.0,0.0,0.0,0.0,0.0,0.0,0.0,0.0,0.0,0.0,0.0,0.0,0.0,0.0,0.0,0.0,0.0,0.0,0.0,0.0,0.0,0.0,0.0,0.0,0.0,0.0,0.0,0.0,0.0,0.0,0.0,0.0,0.0,0.0,0.0,0.0,0.0,0.0,0.0,0.0,0.0,0.0,0.0,0.0,0.0,0.0,0.0,0.0,0.0,0.0,0.0,0.0,0.0,0.0,0.0,0.0,0.0,0.0,0.0,0.0,0.0,0.0,0.0,0.0,0.0,0.0,0.0,0.0,0.0,0.0,0.0,0.0,0.0,0.0,0.0,0.0,0.0,0.0,0.0,0.0,0.0,0.0,0.0,0.0,0.0,0.0,0.0,0.0,0.0,0.0,0.0,0.0,0.0,0.0,0.0,0.0,0.0,0.0,0.0,0.0,0.0,0.0,0.0,0.0,0.0,0.0,0.0,0.0,0.0,0.0,0.0,0.0,0.0,0.0,0.0,0.0,0.0,0.0,0.0,0.0,0.0,0.0,0.0,0.0,0.0,0.0,0.0,0.0,0.0,0.0,0.0,0.0,0.0,0.0,0.0,0.0,0.0,0.0,0.0,0.0,0.0,0.0,0.0,0.0,0.0,0.0,0.0,0.0,0.0,0.0,0.0,0.0,0.0,0.0,0.0,0.0,0.0,0.0,0.0,0.0,0.0,0.0,0.0,0.0,0.0,0.0,0.0,0.0,0.0,0.0,0.0,0.0,0.0,0.0,0.0,0.0,0.0,0.0,0.0,0.0,0.0,0.0,0.0,0.0,0.0,0.0,0.0,-3.7503,0.0,0.0,0.0,0.0,0.0,0.0,0.0,0.0,0.0,0.0,0.0,0.0,0.0,0.0,0.0,0.0,0.0,0.0,0.0,0.0,0.0,0.0,0.0,0.0,-3.55,-3.55,-3.55,-3.5122,-3.4872,-3.4872,0.0,0.0,0.0,0.0,0.0,-3.4872,-3.4872,-3.4872,-3.4872,-3.5673,-3.65,-3.7315,-3.643,-3.5122,-3.3506,0.0,0.0,0.0,0.0,0.0,0.0,0.0,0.0,0.0,0.0,0.0,0.0,0.0,0.0,0.0,0.0,0.0,0.0,0.0,0.0,0.0,0.0,0.0,0.0,0.0,0.0,0.0,0.0,0.0,0.0,0.0,0.0,0.0,0.0,0.0,0.0,0.0,0.0,0.0,0.0,0.0,0.0,0.0,0.0,0.0,0.0,0.0,0.0,0.0,0.0,0.0,0.0,0.0,0.0,0.0,0.0,0.0,0.0,0.0,0.0,0.0,0.0,0.0,0.0,0.0,0.0,0.0,0.0,0.0,0.0,0.0,-3.7218,0.0,0.0,0.0,0.0,0.0,0.0,0.0,0.0,0.0,0.0,0.0,0.0,0.0,0.0,0.0,0.0,0.0,0.0,0.0,0.0,0.0,-3.5327,-3.5481,-3.5365,-3.5327,-3.5481,-3.4699,-3.4263,-3.441,-3.4282,0.0,0.0,0.0,-3.5154,-3.443,-3.443,-3.4571,-3.486,-3.6546,-3.8104,-3.9496,-3.8777,-3.7315,-3.5244,-3.4237,0.0,0.0,0.0,0.0,0.0,0.0,0.0,0.0,0.0,0.0,0.0,0.0,0.0,0.0,0.0,0.0,0.0,0.0,0.0,0.0,0.0,0.0,0.0,0.0,0.0,0.0,0.0,0.0,0.0,0.0,0.0,0.0,0.0,0.0,0.0,0.0,0.0,0.0,0.0,0.0,0.0,0.0,0.0,0.0,0.0,0.0,0.0,0.0,0.0,0.0,0.0,0.0,0.0,0.0,0.0,0.0,0.0,0.0,0.0,0.0,0.0,0.0,0.0,0.0,-3.6914,-3.6914,-3.6914,-3.6914,-3.6953,-3.7994,-3.8837,-3.9297,0.0,0.0,0.0,0.0,0.0,0.0,0.0,0.0,0.0,0.0,0.0,0.0,0.0,0.0,0.0,0.0,0.0,0.0,0.0,0.0,-3.4661,-3.5423,-3.4814,-3.468,-3.5423,-3.4699,-3.4526,-3.5269,-3.4622,-3.4545,-3.5288,-3.5442,-3.5442,-3.5327,-3.5327,-3.6045,-3.7507,-3.9188,-4.0131,-4.0342,-4.0227,-3.9996,-3.9592,-3.8027,-3.6161,-3.4244,0.0,0.0,0.0,0.0,0.0,0.0,0.0,0.0,0.0,0.0,0.0,0.0,0.0,0.0,0.0,0.0,0.0,0.0,0.0,0.0,0.0,0.0,0.0,0.0,0.0,0.0,0.0,0.0,0.0,0.0,0.0,0.0,0.0,0.0,0.0,0.0,0.0,0.0,0.0,0.0,0.0,-3.6443,-3.7957,0.0,0.0,0.0,0.0,0.0,0.0,0.0,0.0,0.0,0.0,0.0,0.0,0.0,0.0,-3.582,-3.7441,-3.8262,-3.8281,-3.9785,-4.0508,-4.0508,-4.0508,-4.0508,-4.0449,-3.914,0.0,-3.8553,-3.8241,0.0,0.0,0.0,0.0,0.0,0.0,0.0,0.0,0.0,0.0,0.0,0.0,0.0,0.0,0.0,0.0,0.0,0.0,0.0,0.0,0.0,-3.4988,-3.5584,-3.55,-3.6007,-3.6103,-3.5538,-3.5565,-3.5353,-3.4795,-3.4776,-3.5007,-3.5481,-3.5026,-3.6295,-3.9419,-4.1154,-4.2516,-4.3482,-4.3482,-4.3482,-4.3443,-4.263,-4.0342,-3.7053,-3.6949,0.0,0.0,0.0,0.0,0.0,0.0,0.0,0.0,0.0,0.0,0.0,0.0,0.0,0.0,0.0,0.0,0.0,0.0,0.0,0.0,0.0,0.0,0.0,0.0,0.0,0.0,0.0,0.0,0.0,0.0,0.0,0.0,0.0,0.0,0.0,0.0,0.0,0.0,0.0,-3.6487,-3.7407,-3.8195,-3.7926,-3.7038,0.0,0.0,0.0,0.0,0.0,0.0,0.0,0.0,0.0,-3.5996,-3.6953,-3.7695,-3.8184,-3.9883,-4.0976,-4.1484,-4.2246,-4.2617,-4.2617,-4.2617,-4.2617,-4.2558,-4.1797,-4.1151,-4.0538,-3.9058,-3.8419,-3.8209,0.0,0.0,0.0,0.0,0.0,-3.4417,0.0,0.0,0.0,0.0,0.0,0.0,0.0,0.0,0.0,0.0,0.0,0.0,-3.3968,-3.5558,-3.6538,-3.6173,-3.7276,-3.7373,-3.5904,-3.6173,-3.5738,-3.4263,-3.3994,-3.4276,-3.5154,-3.5624,-3.7617,-4.1195,-4.3001,-4.4552,-4.5826,-4.5826,-4.5821,-4.5796,-4.5692,-4.3508,-3.9892,-3.9258,-3.8219,-3.6942,0.0,0.0,0.0,0.0,0.0,0.0,0.0,0.0,0.0,0.0,0.0,0.0,0.0,0.0,0.0,0.0,0.0,0.0,0.0,0.0,0.0,0.0,0.0,0.0,0.0,0.0,0.0,0.0,0.0,0.0,0.0,0.0,0.0,0.0,0.0,0.0,0.0,-3.734,-3.7998,-3.8527,-3.827,-3.7418,0.0,0.0,0.0,0.0,0.0,0.0,-3.6973,-3.7207,-3.7539,-3.7969,-3.9238,-4.0215,-4.0879,-4.2109,-4.3066,-4.3691,-4.3691,-4.3691,-4.3691,-4.3691,-4.3691,-4.3691,-4.3691,-4.332,-4.2558,-4.034,-3.9312,-3.9092,-3.8563,-3.7578,0.0,-3.5842,-3.592,-3.629,0.0,0.0,0.0,0.0,0.0,0.0,0.0,0.0,0.0,0.0,0.0,-3.4834,-3.6346,-3.6615,-3.7019,-3.7815,-3.795,-3.7603,-3.6692,-3.5962,-3.5161,-3.4244,-3.341,-3.3372,-3.4244,-3.8284,-4.1257,-4.3066,-4.488,-4.5812,-4.589,-4.589,-4.5866,-4.5803,-4.579,-4.4262,-4.1673,-4.1635,-4.02,-3.7796,-3.6154,0.0,0.0,0.0,0.0,0.0,0.0,0.0,0.0,0.0,0.0,0.0,0.0,0.0,0.0,0.0,0.0,0.0,0.0,0.0,0.0,0.0,0.0,0.0,0.0,0.0,0.0,0.0,0.0,0.0,0.0,0.0,0.0,0.0,0.0,0.0,0.0,0.0,0.0,-3.914,-4.0101,0.0,0.0,0.0,0.0,-3.5996,-3.6719,-3.7969,-3.9629,-4.0488,-4.168,-4.3262,-4.3398,-4.3457,-4.3516,-4.3594,-4.3652,-4.3691,-4.3691,-4.3691,-4.3691,-4.3691,-4.3691,-4.3691,-4.3691,-4.3672,-4.3555,-4.2598,-4.1672,-4.0725,-3.9112,-3.8361,-3.7981,-3.6372,-3.6797,-3.8155,0.0,0.0,0.0,0.0,0.0,-3.55,-3.55,-3.5231,-3.4757,-3.393,-3.4988,-3.5411,-3.4372,-3.6719,-3.8277,-3.8027,-4.0008,-4.0662,-3.9238,-3.8392,-3.7565,-3.668,-3.433,-3.3955,-3.5968,-4.0222,-4.2723,-4.3321,-4.5705,-4.6875,-4.6875,-4.7358,-4.7553,-4.7517,-4.683,-4.599,-4.5038,-4.447,-4.3104,-4.1181,-4.0019,-3.8231,0.0,0.0,0.0,0.0,0.0,0.0,0.0,0.0,0.0,0.0,0.0,0.0,0.0,0.0,0.0,0.0,0.0,0.0,0.0,0.0,0.0,0.0,0.0,0.0,0.0,0.0,0.0,0.0,0.0,0.0,0.0,0.0,0.0,0.0,0.0,0.0,0.0,-3.9315,-3.937,0.0,-3.9367,-3.9413,-3.9414,-3.9355,-4.0625,-4.1699,-4.2305,-4.2637,-4.3086,-4.3672,-4.4238,-4.4805,-4.5371,-4.5937,-4.6484,-4.7051,-4.7051,-4.7051,-4.7051,-4.7051,-4.7051,-4.7012,-4.6445,-4.5898,-4.5312,-4.4433,-4.3554,-4.2671,-4.2087,-4.1829,-4.1702,-4.1051,-4.1193,-4.168,0.0,0.0,0.0,0.0,-3.55,-3.55,-3.55,-3.5,-3.4519,-3.4218,-3.5423,-3.5981,-3.5141,-3.7841,-3.9477,-3.8892,-4.145,-4.2124,-3.9804,-3.9438,-3.8534,-3.6796,-3.5223,-3.5883,-3.9101,-4.2279,-4.4335,-4.5189,-4.7012,-4.7912,-4.791,-4.8353,-4.8545,-4.8462,-4.7703,-4.7349,-4.7259,-4.6394,-4.522,-4.3835,-4.2701,-4.02,-3.7123,0.0,0.0,0.0,0.0,0.0,0.0,0.0,0.0,0.0,0.0,0.0,0.0,0.0,0.0,0.0,0.0,0.0,0.0,0.0,0.0,0.0,0.0,0.0,0.0,0.0,0.0,0.0,0.0,0.0,0.0,0.0,0.0,0.0,0.0,0.0,-3.8317,-3.9867,-3.9847,-4.0096,-4.1093,-4.1172,-4.1426,-4.1992,-4.3613,-4.457,-4.457,-4.5137,-4.5449,-4.5449,-4.6016,-4.6582,-4.7168,-4.7754,-4.832,-4.8906,-4.8906,-4.8906,-4.8906,-4.8906,-4.8574,-4.8027,-4.8027,-4.7383,-4.6308,-4.6308,-4.5976,-4.5332,-4.416,-4.3691,-4.3691,-4.3643,-4.3636,-4.3608,0.0,0.0,0.0,-3.55,-3.55,-3.55,-3.55,-3.4064,-3.3853,-3.6269,-3.6,-3.65,-3.8919,-3.9977,-4.0496,-4.0496,-4.2085,-4.1662,-3.8296,-3.8854,-3.7803,-3.4437,-3.6068,-3.9071,-4.3357,-4.448,-4.6239,-4.8712,-4.8863,-4.8945,-4.8945,-4.8823,-4.8717,-4.856,-4.8419,-4.8264,-4.8086,-4.7278,-4.6432,-4.5498,-4.3835,-4.1162,-3.8065,0.0,0.0,0.0,0.0,0.0,0.0,0.0,0.0,0.0,0.0,0.0,0.0,0.0,0.0,0.0,0.0,0.0,0.0,0.0,0.0,0.0,0.0,0.0,0.0,0.0,0.0,0.0,0.0,0.0,0.0,0.0,0.0,0.0,-3.55,-3.7809,-3.9786,-4.0844,-4.1783,-4.2713,-4.3671,-4.3789,-4.3808,-4.3867,-4.543,-4.6387,-4.6387,-4.793,-4.8828,-4.8828,-4.8848,-4.8867,-4.8867,-4.8945,-4.8984,-4.8984,-4.8984,-4.8984,-4.8984,-4.8984,-4.8066,-4.6543,-4.8223,-4.7988,-4.6543,-4.8203,-4.8906,-4.8555,-4.5176,-4.3867,-4.3867,-4.3867,-4.3848,-4.3788,0.0,0.0,-3.55,-3.55,-3.55,-3.55,-3.55,-3.5096,-3.4577,-3.4026,-3.5911,-3.7123,-3.6603,-3.8911,-4.0496,-4.0496,-4.2085,-4.2162,-3.9958,-3.9496,-3.8389,-3.6319,-3.9172,-4.1987,-4.4502,-4.6695,-4.8142,-4.8845,-4.9511,-4.9844,-4.9844,-5.0243,-5.0421,-5.0345,-4.9486,-4.9084,-4.899,-4.8125,-4.7298,-4.6451,-4.5355,-4.3624,-4.1662,0.0,0.0,0.0,0.0,0.0,0.0,0.0,0.0,0.0,0.0,0.0,0.0,0.0,0.0,0.0,0.0,0.0,0.0,0.0,0.0,0.0,0.0,0.0,0.0,0.0,0.0,0.0,0.0,0.0,0.0,0.0,0.0,-3.8649,-3.8296,-3.8929,-4.0184,-4.233,-4.2964,-4.3829,-4.5308,-4.5524,-4.6113,-4.7383,-4.791,-4.8183,-4.8183,-4.7441,-4.7012,-4.7012,-4.7637,-4.7969,-4.7969,-4.9785,-5.0703,-5.0703,-5.0703,-5.0703,-5.0703,-5.0703,-5.0449,-4.998,-4.9883,-4.957,-4.9121,-4.8965,-4.8906,-4.8808,-4.7832,-4.7461,-4.7461,-4.7461,-4.7008,-4.6129,0.0,-3.5424,-3.55,-3.55,-3.55,-3.55,-3.55,-3.5192,-3.4718,-3.4064,-3.6007,-3.7219,-3.6615,-3.8911,-4.0496,-4.0496,-4.2085,-4.2066,-3.9611,-3.9082,-3.9129,-3.9747,-4.2087,-4.44,-4.6582,-4.8476,-4.9609,-4.9941,-5.082,-5.125,-5.1269,-5.1856,-5.2144,-5.209,-5.0957,-5.0452,-5.0375,-4.9163,-4.8375,-4.7836,-4.6624,-4.4701,-4.2604,-4.297,-4.1527,-3.9304,-3.9304,-3.8969,-3.8334,-3.7007,0.0,0.0,0.0,0.0,0.0,0.0,0.0,0.0,0.0,0.0,0.0,0.0,0.0,0.0,0.0,0.0,0.0,0.0,0.0,0.0,0.0,0.0,0.0,0.0,-3.9315,-4.0708,-4.1304,-4.1157,-4.1807,-4.4028,-4.4457,-4.5235,-4.6934,-4.7233,-4.7725,-4.8742,-4.9217,-4.959,-4.9922,-4.9336,-4.8808,-4.8457,-4.9648,-4.9922,-4.9199,-5.1387,-5.248,-5.248,-5.248,-5.248,-5.248,-5.248,-5.209,0.0,-5.1289,-5.0859,-5.0195,-5.0019,-4.9941,0.0,0.0,0.0,0.0,0.0,-4.8533,-4.7818,0.0,-3.5346,-3.55,-3.55,-3.55,-3.55,-3.55,-3.4834,-3.4622,-3.5404,-3.6288,-3.7142,-3.7911,-3.9496,-4.0496,-4.0496,-4.1912,-4.1527,-3.8488,-3.8243,-3.9867,-4.3552,-4.4582,-4.6318,-4.8984,-4.9883,-5.0723,-5.1543,-5.2324,-5.2754,-5.2851,-5.3361,-5.3604,-5.3554,-5.2406,-5.1904,-5.1788,-5.0221,-4.949,-4.926,-4.7682,-4.5154,-4.2442,-4.3124,-4.197,-4.0015,-4.0015,-4.0015,-3.9861,-3.8892,0.0,0.0,0.0,0.0,0.0,0.0,0.0,0.0,0.0,0.0,0.0,0.0,0.0,0.0,0.0,0.0,0.0,0.0,0.0,0.0,0.0,0.0,0.0,0.0,-4.0573,-4.2016,-4.4278,-4.4102,-4.4285,-4.575,-4.6075,-4.6815,-4.8462,-4.8762,-4.8916,-4.9111,-4.9974,-5.084,-5.1641,0.0,0.0,0.0,0.0,-5.2969,-5.1426,-5.3125,-5.4004,-5.4004,-5.4004,-5.4004,-5.4004,-5.4004,-5.3164,-5.1738,-5.2519,-5.1992,-5.0683,-5.1406,-5.1699,-5.1523,-4.9844,-4.918,-4.916,-4.8965,-4.8965,0.0,0.0,-3.5453,-3.55,-3.55,-3.55,-3.55,-3.55,-3.5365,-3.5308,-3.5481,-3.6815,-3.7815,-3.7988,-3.9496,-4.0496,-4.0496,-4.0804,-4.0727,-4.0054,-3.8932,-4.0135,-4.4318,-4.5488,-4.7265,-4.9883,-5.0742,-5.1582,-5.2441,-5.2617,-5.3066,-5.375,-5.3653,-5.3604,-5.3554,-5.2406,-5.1904,-5.1846,-5.0856,-5.0029,-4.9317,-4.8279,-4.7086,-4.5855,-4.5316,-4.4806,-4.4382,-4.4382,-4.4382,-4.4152,-4.2624,-4.1643,-4.1058,-4.1058,0.0,0.0,0.0,0.0,0.0,0.0,0.0,0.0,0.0,0.0,0.0,0.0,0.0,0.0,0.0,0.0,0.0,0.0,0.0,0.0,-4.2277,-4.422,-4.5836,-4.6336,-4.6833,-4.7052,-4.6724,-4.7364,-4.8231,-4.9291,-4.9605,-5.0304,-5.1652,-5.2044,-5.2598,-5.3457,-5.2324,0.0,-5.1406,-5.1738,-5.1738,-5.1406,-5.3125,-5.4004,-5.4004,0.0,0.0,-5.4004,-5.4004,-5.3828,-5.3516,-5.3672,-5.3555,-5.3281,-5.3437,-5.3496,-5.332,-5.1582,-5.0918,-5.0742,-4.9394,-4.9336,-4.9746,0.0,-3.55,-3.55,-3.55,-3.55,-3.55,-3.55,-3.55,-3.5346,-3.4911,-3.6315,-3.7353,-3.7353,-3.8104,-3.8777,-3.92,-3.9238,-3.9983,-4.1742,-4.115,-4.2341,-4.5907,-4.6983,-4.8354,-5.0156,-5.0996,-5.1836,-5.2695,-5.3144,-5.3808,-5.4648,-5.4823,-5.4907,-5.4838,-5.3256,-5.2538,-5.2462,-5.1221,-5.0462,-4.9933,-4.8625,-4.7855,-4.7355,-4.6086,-4.5594,-4.5594,-4.5594,-4.5594,-4.5479,-4.4624,-4.4066,-4.3701,-4.3701,-4.2835,-4.147,0.0,0.0,0.0,0.0,0.0,0.0,0.0,0.0,0.0,0.0,0.0,0.0,0.0,0.0,-4.0496,-4.0496,0.0,-4.222,-4.3489,-4.4778,-4.6047,-4.7317,-4.8221,-4.8606,-4.8202,-4.857,-4.9352,-5.0626,-5.0933,-5.1575,-5.2845,-5.3061,-5.3537,-5.4399,-5.3684,-5.3051,-5.2602,-5.3514,-5.3574,-5.2715,-5.4433,-5.5293,-5.5293,-5.5293,-5.5293,-5.5293,-5.5293,-5.5293,-5.5273,-5.4844,-5.4648,-5.4629,-5.418,-5.4004,-5.3906,-5.3047,-5.2422,-5.1894,-5.0625,-5.043,-5.0683,0.0,-3.55,-3.55,-3.55,-3.55,-3.55,-3.55,-3.55,-3.5288,-3.4757,-3.5853,-3.6692,-3.6692,-3.6692,-3.6853,-3.7238,-3.7565,-3.908,-4.2247,-4.2769,-4.4277,-4.7219,-4.8193,-4.9128,-5.0135,-5.0955,-5.1796,-5.2695,-5.3378,-5.4158,-5.5017,-5.5459,-5.5666,-5.5577,-5.376,-5.2953,-5.2856,-5.1337,-5.0712,-5.0558,-4.8798,-4.8105,-4.7913,-4.624,-4.5594,-4.5594,-4.5594,-4.5594,-4.5594,-4.5594,-4.5594,-4.5594,-4.5594,-4.5594,-4.4998,-4.192,-4.1989,0.0,0.0,0.0,0.0,0.0,0.0,0.0,0.0,0.0,-4.1401,-4.1073,-4.1266,-4.1497,-4.1497,-4.1631,-4.2412,-4.447,-4.5086,-4.6009,-4.8067,-4.9106,-4.9702,-4.9875,-4.9894,-5.0414,-5.1769,-5.2166,-5.2702,-5.3592,-5.3779,-5.423,-5.5116,-5.5268,-5.4999,-5.4294,-5.5765,-5.5896,-5.447,-5.5898,-5.6601,-5.6601,-5.6601,-5.6601,-5.6601,-5.6601,-5.6601,-5.6562,-5.5859,-5.5547,-5.5508,-5.4785,-5.4512,-5.4492,-5.4316,-5.3828,-5.3105,-5.2226,-5.1914,-5.1875,0.0,-3.55,-3.55,-3.55,-3.55,-3.55,-3.55,-3.55,-3.5712,-3.6346,-3.6577,-3.6692,-3.6692,-3.6692,-3.6142,-3.4744,-3.5988,-3.7668,-3.9603,-4.1235,-4.3625,-4.6996,-4.803,-4.8993,-5.0007,-5.0805,-5.1702,-5.2695,-5.2679,-5.3108,-5.3967,-5.3794,-5.371,-5.3657,-5.2549,-5.2038,-5.1981,-5.1087,-5.0712,-5.0558,-4.8798,-4.8105,-4.7913,-4.624,-4.5594,-4.5594,-4.5594,-4.5594,-4.5594,-4.5594,-4.5594,-4.5594,-4.5594,-4.5594,-4.5229,-4.3355,0.0,-4.2354,-3.8931,-3.7046,-3.6423,-3.7911,-3.94,-4.0496,0.0,0.0,-4.4613,-4.3124,-4.3989,-4.5037,-4.5037,-4.5663,-4.6278,-4.6558,-4.7855,-4.8933,-4.9202,-4.999,-5.0818,-5.1538,-5.1615,-5.1692,-5.1885,-5.2707,-5.3619,-5.4479,-5.4679,-5.5136,-5.6016,-5.6071,-5.6037,-5.592,-5.6244,-5.6324,-5.6128,-5.644,-5.6601,-5.6601,-5.6601,-5.6601,-5.6601,-5.6601,-5.6601,-5.6582,-5.6504,-5.6445,-5.6445,-5.6348,-5.6308,-5.623,-5.5469,-5.5098,-5.4902,-5.4023,-5.3711,-5.3594,0.0,0.0,-3.5312,-3.546,-3.55,-3.55,-3.55,-3.55,-3.5615,-3.5962,-3.6,-3.6,-3.6,-3.5096,-3.4026,-3.2852,-3.4276,-3.6392,-3.913,-4.0918,-4.3438,-4.6939,-4.7474,-4.8375,-4.985,-5.0201,-5.1076,-5.2473,-5.2418,-5.2832,-5.3689,-5.3489,-5.3402,-5.3356,-5.2357,-5.1904,-5.1846,-5.1029,-5.0423,-4.9837,-4.8606,-4.7817,-4.7278,-4.6047,-4.5594,-4.5479,-4.4489,-4.4143,0.0,0.0,-4.4143,-4.4316,-4.5287,-4.494,-4.4008,-4.3316,-4.2374,0.0,-3.9842,-3.9681,-4.0085,0.0,-4.222,-4.3478,-4.3478,-4.4575,-4.5402,-4.471,-4.5114,-4.5748,-4.6259,-4.5836,-4.6047,0.0,-4.8125,-4.8452,-4.9952,-5.0875,-5.1529,-5.1865,-5.1904,-5.1904,-5.1904,-5.3205,-5.3975,-5.383,-5.4789,-5.5518,-5.5894,-5.5986,-5.6024,-5.6024,-5.6188,-5.6273,-5.6273,-5.6335,-5.6414,-5.6484,-5.6484,-5.6516,-5.6601,-5.6601,-5.6601,-5.6601,-5.6601,-5.6601,-5.6601,-5.6601,-5.6601,-5.6562,-5.6191,-5.6055,-5.5898,-5.4512,-5.4004,-5.3945,0.0,0.0,0.0,-3.5258,-3.5346,-3.5405,-3.5493,-3.55,-3.55,-3.55,-3.55,-3.5327,-3.4846,-3.3468,-3.2237,-3.1404,-3.2872,-3.5187,-3.8373,-4.0162,-4.2665,-4.618,-4.6554,-4.7437,-4.9011,-4.9264,-5.0116,-5.1609,-5.1569,-5.2,-5.2855,-5.272,-5.2658,-5.2611,-5.1886,-5.1452,-5.1173,-5.0587,-4.9837,-4.8971,-4.8105,-4.7432,-4.6797,-4.5932,-4.5306,-4.4748,-4.3547,-4.3104,0.0,0.0,-4.2527,-4.3181,-4.3709,-4.3508,-4.3008,-4.2527,-4.1162,-3.9919,-4.0362,0.0,0.0,-4.2854,-4.4008,-4.5037,-4.5498,-4.5594,-4.5594,-4.5594,-4.5594,-4.5883,-4.674,-4.6047,-4.624,-4.8952,-4.8586,-4.8586,-5.0442,-5.1395,-5.1808,-5.1606,-5.175,-5.1615,-5.0923,-5.2856,-5.4068,-5.3895,-5.5011,-5.5703,-5.5703,-5.5789,-5.5851,-5.5851,-5.6017,-5.6128,-5.6128,-5.6169,-5.6242,-5.6338,-5.6338,-5.6419,-5.6558,-5.6582,-5.6601,-5.6601,-5.6601,-5.6601,-5.6601,-5.6601,-5.6601,-5.6601,-5.6601,-5.6601,-5.6445,-5.5176,-5.4726,-5.4687,0.0,0.0,0.0,0.0,-3.4944,-3.5198,-3.5453,-3.55,-3.55,-3.55,-3.55,-3.4865,-3.316,-3.2237,-3.1391,-3.0519,-3.1968,-3.4026,-3.6615,-3.8411,-4.0862,-4.4237,-4.5199,-4.6124,-4.7159,-4.7947,-4.8844,-4.9882,-4.975,-5.0129,-5.0974,-5.0833,-5.0779,-5.0779,-5.075,-5.026,-4.9471,-4.9452,-4.8933,-4.8067,-4.725,-4.6923,-4.6797,-4.5932,-4.4586,-4.3162,-4.3124,0.0,0.0,0.0,-4.1066,-4.2681,-4.0246,-4.1143,0.0,-4.1073,-3.9392,0.0,0.0,0.0,-3.895,-4.2277,-4.3143,-4.3605,-4.5229,-4.5594,-4.5594,-4.5594,-4.5594,-4.5883,-4.674,-4.749,-4.8298,-4.924,-5.0067,-5.0616,-5.0693,-5.1395,-5.1606,-5.0827,-5.1433,-5.0923,0.0,-5.126,-5.3895,-5.5491,-5.5665,-5.5703,-5.5703,-5.5695,-5.5724,-5.5724,-5.5833,-5.5912,-5.5912,-5.6097,-5.6197,-5.6216,-5.6216,-5.6284,-5.6416,-5.6538,-5.6601,-5.6601,-5.6601,-5.6601,-5.6601,-5.6601,-5.6601,-5.6601,-5.6601,-5.6601,-5.6582,-5.6543,-5.6523,-5.6406,0.0,0.0,0.0,0.0,0.0,-3.487,-3.4954,-3.5273,-3.55,-3.55,-3.5007,0.0,0.0,0.0,0.0,0.0,-3.1775,-3.2949,-3.4911,-3.6622,-3.8834,-4.167,-4.369,-4.5167,-4.6078,-4.6937,-4.78,-4.8671,-4.8629,-4.875,-4.9031,-4.8989,-4.8971,-4.8971,-4.8971,-4.8817,-4.8548,-4.8548,-4.8067,-4.7278,-4.7,-4.6547,-4.5874,-4.447,-4.3585,-4.2797,0.0,0.0,0.0,0.0,0.0,0.0,-3.94,0.0,0.0,-3.6822,0.0,0.0,0.0,0.0,-4.1662,-4.2816,-4.3932,-4.4921,-4.5479,-4.5594,-4.5594,-4.5594,-4.5152,-4.4989,-4.5874,-4.5797,-4.622,-4.8221,-4.7855,-4.8115,-5.0385,-4.9933,-5.0125,-5.2125,-5.1625,0.0,0.0,0.0,0.0,-5.2424,-5.4434,-5.5703,-5.5703,-5.5703,-5.5703,-5.5703,-5.5739,-5.576,-5.576,-5.5835,-5.591,-5.6003,-5.6146,-5.6217,-5.6279,-5.6317,-5.6383,-5.6479,-5.6479,-5.6514,-5.6601,-5.6601,-5.6601,-5.6601,-5.6601,-5.6601,-5.6601,-5.6601,-5.6601,-5.6562,0.0,0.0,0.0,0.0,0.0,0.0,0.0,0.0,0.0,0.0,0.0,0.0,0.0,0.0,0.0,0.0,0.0,-3.2301,-3.4083,-3.4911,-3.6488,-3.9027,-4.07,-4.2143,-4.3324,-4.4489,-4.5624,-4.674,-4.7375,-4.7817,-4.8105,-4.8105,-4.8105,-4.8105,-4.8105,-4.7952,-4.7682,-4.7682,-4.7201,-4.6374,-4.5778,-4.5201,-4.4517,-4.2816,-4.1797,0.0,0.0,0.0,0.0,0.0,0.0,0.0,0.0,0.0,0.0,0.0,0.0,0.0,0.0,-4.1431,-4.3239,-4.3835,-4.4806,-4.5594,-4.5594,-4.5594,-4.5594,-4.5594,-4.5393,-4.5316,-4.5556,-4.5393,-4.5855,-4.7798,-4.7201,-4.7471,-5.0308,-5.024,-5.0529,-5.2125,-5.1875,-5.2202,0.0,0.0,0.0,-5.2106,-5.4049,-5.5261,-5.5261,-5.5261,-5.5395,-5.5684,-5.5703,-5.5703,-5.5703,-5.5703,-5.5739,-5.5824,-5.6003,-5.609,-5.609,-5.6169,-5.5911,-5.5434,-5.6055,-5.6045,-5.5659,-5.6263,-5.656,-5.6601,-5.6601,-5.6601,-5.6601,-5.6601,-5.6601,-5.6601,0.0,0.0,0.0,0.0,0.0,0.0,0.0,0.0,0.0,0.0,0.0,0.0,0.0,0.0,0.0,0.0,0.0,0.0,-3.3948,-3.3359,0.0,-3.6404,-3.6635,-3.7469,-3.913,-4.0777,-4.2412,-4.4047,-4.5701,-4.6932,-4.7721,-4.7721,-4.7721,-4.7721,-4.7721,-4.7298,-4.6558,-4.6558,-4.6105,-4.521,-4.3605,-4.297,-4.2777,-4.1035,0.0,0.0,0.0,0.0,0.0,0.0,0.0,0.0,0.0,0.0,0.0,0.0,0.0,-3.8892,-4.2104,-4.3085,-4.3605,-4.521,-4.5594,-4.5594,-4.5594,-4.5594,-4.5575,-4.5498,-4.6086,-4.6374,0.0,0.0,-4.6836,-4.7817,-4.7894,-4.849,-5.0308,-5.1933,-5.2375,0.0,0.0,0.0,0.0,0.0,0.0,-5.4434,0.0,-5.4549,-5.4549,-5.4549,-5.4914,-5.5684,-5.5703,-5.5703,-5.5703,-5.5703,-5.5703,-5.5695,-5.5834,-5.588,-5.5907,-5.6097,-5.5286,-5.3803,-5.5466,-5.5329,-5.4057,-5.5706,-5.646,-5.6582,-5.6582,-5.6582,-5.6601,-5.6601,-5.6601,-5.6601,0.0,0.0,0.0,0.0,0.0,0.0,0.0,0.0,0.0,0.0,0.0,0.0,0.0,0.0,0.0,0.0,0.0,0.0,-3.208,-3.3001,0.0,0.0,0.0,0.0,0.0,0.0,0.0,-4.0573,-4.1008,-4.1643,-4.2439,-4.2439,-4.2439,-4.2439,-4.2439,-4.2324,-4.2124,-4.2124,-4.1997,-4.1766,0.0,-4.117,-4.0977,0.0,0.0,0.0,0.0,0.0,0.0,0.0,0.0,0.0,0.0,-3.77,-3.7411,0.0,0.0,-4.0873,-4.1104,-4.3017,-4.5075,-4.5498,-4.5594,-4.5594,-4.5594,-4.5594,-4.5248,-4.3989,-4.3393,-4.2835,0.0,0.0,0.0,-4.5682,-4.5182,0.0,-4.8355,-4.9125,0.0,-5.0596,0.0,-5.353,-5.4337,-5.4799,0.0,0.0,-5.5049,-5.5395,-5.5395,-5.5395,-5.5491,-5.5684,-5.5703,-5.5703,-5.5703,-5.5703,-5.5703,-5.5703,-5.5738,-5.5749,-5.5749,-5.5798,-5.5636,-5.5341,-5.5787,-5.5838,-5.5623,-5.6071,-5.6328,-5.6454,-5.6454,-5.6512,-5.6601,-5.6601,-5.6601,-5.6601,0.0,0.0,0.0,0.0,0.0,0.0,0.0,0.0,0.0,0.0,0.0,0.0,0.0,0.0,0.0,0.0,0.0,0.0,0.0,-3.2591,0.0,0.0,0.0,0.0,0.0,0.0,0.0,0.0,0.0,0.0,-3.9977,-3.9977,-3.9977,-3.9996,-4.0342,-4.0496,-4.0496,-4.0496,0.0,0.0,0.0,0.0,0.0,0.0,0.0,0.0,0.0,0.0,0.0,0.0,0.0,-3.77,-4.0181,-4.0104,-3.9296,-4.0315,0.0,-4.2412,-4.267,-4.4132,-4.5594,-4.5594,-4.5594,-4.5421,-4.4671,-4.4489,-4.4008,-4.2316,-4.1873,0.0,-4.0208,-4.02,0.0,0.0,0.0,0.0,-4.774,-4.8759,-4.9606,0.0,-5.2183,0.0,-5.553,-5.5703,-5.5511,0.0,-5.5126,-5.5164,-5.5164,-5.5164,-5.5338,-5.5684,-5.5703,-5.5703,-5.5703,-5.5703,-5.5703,-5.5703,-5.5703,-5.5703,-5.5703,-5.5703,-5.5344,-5.4764,0.0,-5.5481,-5.5029,-5.576,-5.6161,-5.6313,-5.6313,-5.6368,-5.6426,-5.6488,-5.6512,-5.6515,0.0,0.0,0.0,0.0,0.0,0.0,0.0,0.0,0.0,0.0,-3.366,-3.3807,0.0,0.0,0.0,0.0,0.0,0.0,0.0,0.0,0.0,0.0,0.0,0.0,0.0,0.0,0.0,0.0,0.0,0.0,0.0,0.0,0.0,0.0,0.0,0.0,0.0,0.0,0.0,0.0,0.0,0.0,0.0,0.0,0.0,0.0,0.0,0.0,0.0,0.0,-3.9457,-3.8931,-4.2354,-4.2393,-4.1728,-4.4459,-4.4393,-4.3701,-4.494,-4.5441,-4.5594,-4.5594,-4.5594,-4.5229,-4.3758,-4.3258,-4.2604,-4.0862,0.0,-4.0893,-3.9554,-4.0489,-4.2085,-4.3989,0.0,-4.6037,-4.7259,-4.9317,-5.0616,-5.0385,-5.1933,-5.3741,-5.553,-5.5491,-5.5453,-5.5684,-5.5049,-5.4664,-5.4664,-5.4664,-5.4972,-5.5684,-5.5703,-5.5703,-5.5703,-5.5703,-5.5703,-5.5703,-5.5703,-5.5703,-5.5703,-5.5703,-5.4914,-5.3606,0.0,0.0,-5.382,-5.5263,-5.5981,-5.6164,-5.6164,-5.6175,-5.6207,-5.6328,-5.6374,-5.6386,0.0,0.0,0.0,0.0,0.0,0.0,0.0,0.0,0.0,0.0,-3.2963,-3.3807,0.0,0.0,0.0,0.0,0.0,0.0,0.0,0.0,0.0,0.0,0.0,0.0,0.0,0.0,0.0,0.0,0.0,0.0,0.0,0.0,0.0,0.0,0.0,0.0,0.0,0.0,0.0,0.0,0.0,0.0,0.0,0.0,0.0,0.0,0.0,0.0,0.0,0.0,-3.9765,-4.0669,-4.4094,-4.496,-4.4556,-4.3758,-4.4297,-4.494,-4.3835,-4.4528,-4.5594,-4.5594,-4.5594,-4.5518,-4.5229,-4.4085,0.0,0.0,-3.9508,-3.8796,-3.9227,-3.9534,-4.0739,-4.3797,-4.5037,-4.5229,-4.4124,-4.7855,-5.0173,0.0,-5.0673,-5.3068,-5.5472,0.0,0.0,0.0,0.0,0.0,-5.5491,-5.5491,-5.5549,-5.5703,-5.5703,-5.5703,-5.5703,-5.5703,-5.5703,-5.5703,-5.5703,-5.5703,-5.5703,-5.5703,-5.553,-5.528,0.0,0.0,-5.5314,-5.5603,-5.5816,-5.5951,-5.5951,-5.6051,-5.6197,-5.6237,-5.6227,-5.6232,0.0,0.0,0.0,0.0,0.0,0.0,0.0,-3.221,-3.1531,-3.032,-3.0821,-3.1623,-3.2449,-3.3293,-3.3807,0.0,0.0,0.0,0.0,0.0,0.0,0.0,0.0,0.0,0.0,0.0,0.0,0.0,0.0,0.0,0.0,0.0,0.0,0.0,0.0,0.0,0.0,0.0,0.0,0.0,0.0,0.0,0.0,0.0,0.0,0.0,0.0,0.0,0.0,0.0,-3.7853,-3.9354,-4.4094,-4.5594,-4.5267,-4.3585,-4.4278,-4.5229,-4.3566,-4.4316,-4.5594,-4.5594,-4.5594,-4.5133,-4.3344,0.0,0.0,0.0,-3.7257,-3.6834,-3.7257,-3.7661,0.0,-4.245,-4.4085,-4.4951,-4.5066,-4.7932,0.0,-4.949,-5.0894,-5.2558,0.0,0.0,0.0,0.0,0.0,0.0,-5.5645,-5.5703,-5.5703,-5.5703,-5.5703,-5.5703,-5.5703,-5.5703,-5.5703,-5.5703,-5.5703,-5.5703,-5.5703,-5.5703,-5.5703,-5.5703,0.0,0.0,-5.5107,-5.553,-5.5498,-5.52,-5.5624,-5.5852,-5.5943,-5.6029,-5.6045,-5.6058,0.0,0.0,0.0,0.0,0.0,0.0,-3.1654,-3.125,-3.0503,-2.8712,-2.8638,-2.928,-3.0723,-3.232,-3.3421,0.0,0.0,0.0,0.0,0.0,0.0,0.0,0.0,0.0,0.0,0.0,0.0,0.0,0.0,0.0,0.0,0.0,0.0,0.0,0.0,0.0,0.0,0.0,0.0,0.0,0.0,0.0,0.0,0.0,0.0,0.0,0.0,0.0,0.0,0.0,-3.5635,-3.7084,-4.2316,-4.4229,-4.4325,-4.3374,-4.4028,-4.4863,-4.3893,-4.4605,-4.5594,-4.5594,-4.5594,-4.4806,-4.1747,-4.0766,0.0,-3.6654,-3.575,-3.5615,-3.5962,-3.6538,-3.8038,0.0,-4.3066,-4.4586,-4.6124,-4.7952,-4.951,0.0,-5.126,0.0,0.0,0.0,0.0,0.0,0.0,0.0,-5.5626,-5.5703,-5.5703,-5.5703,-5.5703,-5.5703,-5.5703,-5.5703,-5.5703,-5.5703,-5.5703,-5.5703,-5.5703,-5.5703,-5.5703,-5.5703,0.0,0.0,0.0,-5.5376,-5.5222,-5.4587,-5.5395,-5.5703,-5.5716,-5.5816,-5.5868,-5.5874,0.0,0.0,0.0,0.0,0.0,0.0,-3.1654,-3.0779,-2.9475,-2.7134,-2.7457,-2.8246,-2.9115,-3.0668,-3.2223,0.0,0.0,0.0,0.0,0.0,0.0,0.0,0.0,0.0,0.0,0.0,0.0,0.0,0.0,0.0,0.0,0.0,0.0,0.0,0.0,0.0,0.0,0.0,0.0,0.0,0.0,0.0,0.0,0.0,0.0,0.0,0.0,0.0,0.0,0.0,0.0,-3.4937,-3.7796,-3.9738,-4.1247,-4.2681,0.0,0.0,-4.4998,-4.5479,-4.5594,-4.5594,-4.5594,-4.5114,-4.3278,0.0,-3.9977,-3.8142,-3.6558,-3.5962,-3.7488,-3.7834,-3.8738,-4.1365,-4.2585,-4.3528,-4.4412,-4.6663,-4.8836,-5.05,0.0,0.0,0.0,0.0,0.0,0.0,0.0,0.0,0.0,-5.5703,-5.5703,-5.5703,-5.5703,-5.5703,-5.5703,-5.5703,-5.5703,-5.5703,-5.5703,-5.5703,-5.5703,-5.5703,-5.5703,-5.5703,0.0,0.0,0.0,-5.5376,-5.5222,-5.4587,-5.5395,-5.5703,-5.5695,-5.5716,-5.5726,-5.5726,0.0,0.0,0.0,0.0,0.0,0.0,-3.0999,-3.0815,-2.9714,-2.6329,-2.6576,-2.72,-2.7519,-2.8558,-3.0479,-3.3532,-3.3366,0.0,0.0,0.0,0.0,0.0,0.0,0.0,0.0,0.0,-3.2182,-3.1685,-3.1683,0.0,0.0,0.0,0.0,0.0,0.0,0.0,0.0,0.0,0.0,0.0,0.0,0.0,0.0,0.0,0.0,0.0,0.0,0.0,0.0,0.0,0.0,0.0,-3.3839,-3.5007,0.0,0.0,-4.1085,-4.3028,-4.2632,-4.4036,-4.5594,-4.5594,-4.5594,-4.4883,-4.217,0.0,-3.9746,-3.7046,-3.5962,-3.5692,-3.6365,-3.65,-3.7161,-3.9181,-4.0642,-4.2382,-4.4748,-4.6817,-4.9125,-5.1875,-5.2202,0.0,0.0,0.0,0.0,0.0,0.0,0.0,0.0,-5.5703,-5.5703,-5.5703,-5.5703,-5.5703,-5.5703,-5.5703,-5.5703,-5.5703,-5.5703,-5.5703,-5.5703,-5.5703,-5.5703,-5.5703,0.0,0.0,0.0,-5.5145,-5.4914,-5.3857,-5.5184,-5.5703,-5.5703,-5.5703,-5.5703,-5.5703,0.0,0.0,0.0,0.0,0.0,-3.3073,-3.0889,-3.0834,-2.9854,-2.6531,-2.6392,-2.6704,-2.6924,-2.7457,-2.923,-3.2779,-3.2797,0.0,0.0,0.0,0.0,0.0,0.0,0.0,0.0,0.0,-3.1601,-3.1397,-3.1547,-3.1503,0.0,0.0,0.0,0.0,0.0,0.0,0.0,0.0,0.0,0.0,0.0,0.0,0.0,0.0,0.0,0.0,0.0,0.0,0.0,0.0,0.0,0.0,0.0,0.0,0.0,0.0,-3.9219,-4.1873,-4.1401,-4.3401,-4.5594,-4.5594,-4.5229,-4.4094,0.0,0.0,-3.895,-3.6096,-3.55,-3.55,-3.55,-3.5692,-3.6404,-3.8104,-4.0008,-4.2285,-4.519,-4.6836,-4.9009,0.0,0.0,0.0,0.0,0.0,0.0,0.0,0.0,0.0,0.0,-5.5703,-5.5703,-5.5703,-5.5703,-5.5703,-5.5703,-5.5703,-5.5703,-5.5703,-5.5703,-5.5568,-5.5338,-5.5588,-5.5568,0.0,0.0,0.0,0.0,-5.5126,-5.4857,-5.3722,-5.5145,-5.5703,-5.5703,-5.5703,-5.5703,-5.5703,0.0,0.0,0.0,0.0,0.0,-3.3256,-3.1635,-3.0723,-2.9622,-2.8,-2.709,-2.6906,-2.7695,-2.7787,-2.8789,-3.1213,-3.2155,0.0,0.0,0.0,0.0,0.0,0.0,0.0,0.0,0.0,-3.1397,-3.1397,-3.0607,-3.0222,-3.021,-3.021,-2.9769,-2.9072,0.0,0.0,0.0,0.0,-2.9005,0.0,0.0,0.0,0.0,0.0,0.0,0.0,0.0,0.0,0.0,0.0,0.0,0.0,0.0,-3.0624,-3.2031,-3.565,-3.795,-3.99,-4.2393,-4.4297,-4.5594,-4.5594,-4.4355,-4.2662,0.0,-3.9219,-3.7546,-3.5846,-3.55,-3.55,-3.55,-3.6154,-3.7257,-3.8996,-4.1412,-4.3662,-4.5364,-4.6355,0.0,0.0,0.0,0.0,0.0,0.0,0.0,0.0,0.0,0.0,0.0,0.0,-5.5703,-5.5703,-5.5703,-5.5703,-5.5703,-5.5703,-5.5703,-5.5703,-5.5703,-5.528,-5.453,-5.5338,0.0,0.0,0.0,0.0,0.0,-5.5357,-5.5222,-5.4568,-5.5376,-5.5703,-5.5703,-5.5703,-5.5703,-5.5703,0.0,0.0,0.0,0.0,0.0,0.0,-3.2394,-3.2467,-3.1696,-2.8968,-2.8877,-2.8539,-2.7126,-2.7475,-2.811,-2.887,-3.0173,0.0,0.0,0.0,0.0,0.0,0.0,0.0,0.0,-3.0044,-2.9769,-2.9769,-2.95,-2.9372,-2.9372,-2.9372,-2.9244,-2.9005,-2.9262,-2.9244,0.0,-2.9005,-2.9005,0.0,0.0,0.0,0.0,0.0,0.0,0.0,0.0,0.0,0.0,0.0,0.0,0.0,0.0,0.0,0.0,-3.2507,-3.5146,-3.77,-3.8507,-4.0373,-4.2112,-4.2112,-4.1728,-4.0881,-3.9181,-3.8373,-3.7526,-3.5846,-3.55,-3.55,-3.55,-3.5712,-3.6442,-3.8142,-4.0046,-4.2324,0.0,0.0,0.0,0.0,0.0,0.0,0.0,0.0,0.0,0.0,0.0,0.0,0.0,0.0,-5.5703,-5.5703,-5.5703,-5.5703,-5.5703,-5.5703,-5.5703,-5.5703,-5.5703,-5.528,-5.453,-5.5318,0.0,0.0,0.0,0.0,0.0,-5.5376,-5.5222,-5.4587,-5.5395,-5.5703,-5.5703,-5.5703,-5.5703,-5.5703,0.0,0.0,0.0,0.0,0.0,0.0,-3.3115,-3.322,-3.2632,-3.062,-3.054,-2.9861,-2.7739,-2.8227,-2.8576,-2.8282,-2.9182,0.0,0.0,0.0,0.0,0.0,0.0,0.0,-2.9739,-2.9262,-2.8858,-2.8546,-2.8546,-2.8546,-2.8546,-2.8546,-2.8712,-2.9005,-2.9005,-2.9005,0.0,-2.9005,-2.9005,-2.9005,0.0,0.0,-2.9005,0.0,0.0,0.0,0.0,0.0,0.0,0.0,0.0,0.0,0.0,0.0,0.0,0.0,-3.2585,-3.4829,-3.6091,-3.8051,-3.9828,-4.0117,-3.9715,-3.9006,-3.8057,-3.728,-3.6501,-3.553,-3.5755,-3.5919,-3.5313,-3.5935,-3.6716,-3.7271,-3.9846,-4.2452,0.0,0.0,0.0,0.0,0.0,0.0,0.0,0.0,0.0,0.0,0.0,0.0,0.0,0.0,-5.5703,-5.5703,-5.5703,-5.5703,-5.5703,-5.5703,-5.5703,-5.5703,-5.5703,-5.528,-5.453,0.0,0.0,0.0,0.0,0.0,0.0,-5.5491,-5.5395,-5.4991,-5.5491,-5.5703,-5.5703,-5.5703,-5.5703,-5.5703,0.0,0.0,0.0,0.0,0.0,0.0,0.0,-3.3183,-3.2656,-3.2601,-3.1953,-3.0889,-2.9335,-2.9787,-2.9898,-2.9152,-2.9023,0.0,0.0,0.0,0.0,0.0,0.0,0.0,-2.9023,-2.9005,-2.862,-2.7879,-2.7835,-2.7798,-2.7798,-2.7732,-2.8136,-2.8913,-2.8913,-2.895,-2.9005,-2.9005,-2.9005,-2.9005,-2.9005,-2.9005,0.0,0.0,0.0,0.0,0.0,0.0,0.0,0.0,0.0,0.0,0.0,0.0,0.0,0.0,0.0,0.0,0.0,-3.6835,-3.8315,-3.9069,-3.8129,-3.7084,-3.7347,-3.6008,0.0,-3.516,-3.6224,-3.6658,-3.5231,-3.6842,-3.7956,-3.6662,-4.0635,-4.3713,0.0,-4.5455,0.0,0.0,0.0,0.0,0.0,0.0,0.0,0.0,0.0,0.0,0.0,0.0,0.0,-5.5651,-5.5651,-5.5662,-5.5703,-5.5703,-5.5665,-5.5607,-5.5665,-5.5241,-5.4434,0.0,0.0,0.0,0.0,0.0,0.0,-5.5703,-5.5703,-5.5703,-5.5703,-5.5703,-5.5703,-5.5703,-5.5703,-5.5703,0.0,0.0,0.0,0.0,0.0,0.0,0.0,0.0,0.0,0.0,-3.2436,-3.1953,-3.0944,-3.0467,-3.0118,0.0,0.0,0.0,0.0,0.0,0.0,0.0,0.0,0.0,-2.9005,-2.9005,-2.8913,-2.8712,-2.8099,-2.7798,-2.7787,-2.7163,-2.731,-2.8081,-2.8081,-2.8429,-2.9005,-2.9005,-2.9005,-2.9005,-2.9005,-2.9005,0.0,0.0,0.0,0.0,-2.9005,-2.9005,0.0,0.0,0.0,0.0,0.0,0.0,0.0,0.0,-2.9644,-3.0051,-3.1255,0.0,-3.4641,-3.483,-3.5083,-3.5291,0.0,-3.5028,-3.5063,-3.6359,-3.689,-3.7175,-3.7401,-3.8425,-3.8931,-3.8056,-4.1246,-4.3711,-4.3388,0.0,0.0,0.0,0.0,0.0,0.0,0.0,0.0,0.0,0.0,0.0,0.0,0.0,0.0,-5.5224,-5.5237,-5.5399,-5.5703,-5.5703,-5.5395,-5.478,-5.5415,-5.4934,-5.3568,0.0,0.0,0.0,0.0,0.0,0.0,-5.5703,-5.5703,-5.5703,-5.5703,-5.5703,-5.5703,-5.5703,-5.5703,-5.5703,0.0,0.0,0.0,0.0,0.0,0.0,0.0,0.0,0.0,0.0,-3.2343,-3.1982,-3.0505,-3.0261,-2.9975,0.0,0.0,0.0,0.0,0.0,0.0,0.0,0.0,-2.9005,-2.9005,-2.9005,-2.8822,-2.8448,-2.8007,-2.7798,-2.7787,-2.7346,-2.7585,-2.8356,-2.8356,-2.8583,-2.9005,-2.9005,-2.9005,-2.9005,-2.9005,0.0,0.0,0.0,0.0,0.0,-2.9005,-2.9005,0.0,-2.9005,-2.9005,-2.9051,0.0,0.0,0.0,0.0,-2.931,-2.9281,-2.9566,-3.0772,-3.2291,-3.378,-3.3918,-3.4064,-3.533,-3.4925,-3.4792,-3.6543,-3.6814,-3.6975,-3.7776,-3.8284,-3.848,-3.8221,-4.0796,0.0,0.0,0.0,0.0,0.0,0.0,0.0,0.0,0.0,0.0,0.0,0.0,0.0,0.0,0.0,0.0,0.0,-5.4819,-5.5121,-5.5684,-5.5512,-5.502,-5.4227,-5.4855,-5.446,-5.3251,0.0,0.0,0.0,0.0,0.0,-5.5665,-5.5299,-5.5376,-5.5703,-5.5703,-5.5703,-5.5703,-5.5703,-5.5703,-5.5703,0.0,0.0,0.0,0.0,0.0,0.0,0.0,0.0,0.0,0.0,0.0,0.0,0.0,0.0,0.0,0.0,0.0,0.0,0.0,0.0,0.0,0.0,-2.9005,-2.9005,-2.9005,-2.9005,-2.8675,-2.797,-2.7732,-2.7622,-2.7603,-2.7486,-2.7934,-2.8822,-2.895,-2.9005,-2.9005,-2.9005,-2.9005,-2.9005,-2.9005,0.0,0.0,0.0,0.0,0.0,0.0,0.0,0.0,-2.9005,-2.9005,-2.9051,-2.9267,0.0,0.0,0.0,0.0,0.0,-2.9005,-2.95,-3.0748,-3.3867,-3.361,-3.3267,-3.586,-3.5069,-3.4402,-3.6565,-3.6828,-3.6909,-3.7731,-3.8172,0.0,0.0,0.0,0.0,0.0,0.0,0.0,0.0,0.0,0.0,0.0,0.0,0.0,0.0,0.0,0.0,0.0,0.0,0.0,0.0,-5.4387,-5.476,-5.5512,-5.5173,-5.4602,-5.3802,-5.4258,-5.4031,-5.3236,-5.4468,0.0,0.0,0.0,0.0,-5.5645,-5.4953,-5.5068,-5.5703,-5.5703,-5.5703,-5.5703,-5.5703,-5.5703,-5.5703,0.0,0.0,0.0,0.0,0.0,0.0,0.0,0.0,0.0,0.0,0.0,0.0,0.0,0.0,0.0,0.0,0.0,0.0,0.0,0.0,0.0,-2.8994,-2.9005,-2.9005,-2.9005,-2.9005,-2.8932,-2.8822,-2.7446,-2.6778,-2.6778,-2.609,-2.6568,-2.8007,-2.8693,-2.9005,-2.9005,-2.9005,-2.9005,-2.9005,-2.9005,0.0,0.0,0.0,0.0,0.0,0.0,0.0,0.0,-2.9005,-2.9005,-2.9005,-2.9044,0.0,0.0,0.0,0.0,0.0,-2.9005,-2.9097,-2.9794,-3.2326,-3.2784,-3.3073,-3.4853,-3.4495,-3.4665,-3.7772,-3.8352,-3.8579,-3.9368,-4.1201,-4.1713,0.0,0.0,0.0,0.0,0.0,0.0,0.0,0.0,0.0,0.0,0.0,0.0,0.0,0.0,0.0,0.0,0.0,0.0,0.0,0.0,-5.417,-5.4671,-5.4609,-5.4163,-5.332,-5.4104,-5.4034,-5.3227,-5.417,-5.4794,0.0,0.0,0.0,-5.5684,-5.5568,-5.5588,-5.5703,-5.5703,-5.5703,-5.5703,-5.5703,-5.5703,-5.5703,0.0,0.0,0.0,0.0,0.0,0.0,0.0,0.0,0.0,0.0,0.0,0.0,0.0,0.0,0.0,0.0,0.0,0.0,0.0,0.0,-2.8815,-2.8994,-2.9005,-2.9005,-2.9005,-2.8565,-2.8356,-2.8356,-2.6741,-2.6172,-2.6602,-2.6667,-2.731,-2.8455,-2.8822,-2.9005,-2.9005,-2.9005,-2.9005,-2.9005,0.0,0.0,0.0,0.0,0.0,0.0,0.0,0.0,0.0,0.0,-2.9005,-2.9005,-2.9005,0.0,0.0,0.0,0.0,0.0,-2.9005,-2.9005,-2.9684,-3.254,-3.2596,-3.2944,-3.678,-3.5991,-3.55,-3.9224,-3.8615,-3.8046,0.0,0.0,-4.1644,-4.1901,0.0,0.0,0.0,0.0,0.0,0.0,0.0,0.0,0.0,0.0,0.0,0.0,0.0,0.0,0.0,0.0,0.0,0.0,0.0,0.0,-5.3795,-5.3795,-5.3496,-5.2881,-5.3496,-5.3349,-5.2586,-5.364,-5.4219,0.0,0.0,-5.4444,-5.5023,-5.4784,-5.4953,-5.5399,-5.5629,-5.5703,-5.5673,-5.5466,-5.5512,-5.5662,0.0,0.0,0.0,0.0,0.0,0.0,0.0,0.0,0.0,0.0,0.0,0.0,0.0,0.0,0.0,0.0,0.0,0.0,0.0,-2.8438,-2.8688,-2.8851,-2.8863,-2.8814,-2.8712,-2.8117,-2.7633,-2.7247,-2.5999,-2.5815,-2.6602,-2.7236,-2.8062,-2.9005,-2.9005,-2.9005,-2.9005,-2.9005,-2.9005,-2.9005,0.0,0.0,0.0,0.0,0.0,0.0,0.0,0.0,0.0,0.0,0.0,0.0,0.0,0.0,0.0,-2.9005,-2.9005,-2.9005,-2.9005,-2.9005,-2.9684,-3.2522,-3.2155,-3.2596,-3.8322,-3.6927,-3.572,-4.0178,-3.8836,0.0,0.0,-4.1038,0.0,-4.4525,0.0,0.0,0.0,0.0,0.0,0.0,0.0,0.0,0.0,0.0,0.0,0.0,0.0,0.0,0.0,0.0,0.0,0.0,0.0,0.0,-5.3185,-5.3185,-5.3046,-5.2735,-5.3044,-5.2894,-5.2309,-5.3247,-5.3702,-5.3777,-5.3478,-5.3787,-5.4462,-5.4102,-5.4362,-5.4993,-5.5294,-5.5423,-5.5399,-5.5186,-5.5244,-5.5368,0.0,0.0,0.0,0.0,0.0,0.0,0.0,0.0,0.0,0.0,0.0,0.0,0.0,0.0,0.0,0.0,0.0,0.0,0.0,-2.7409,-2.7733,-2.842,-2.8446,-2.827,-2.7897,-2.7835,-2.7064,-2.5558,-2.5448,-2.5815,-2.6602,-2.6657,-2.7501,-2.9005,-2.9005,-2.9005,-2.9005,-2.9005,-2.9005,-2.9005,-2.9005,0.0,0.0,0.0,0.0,0.0,0.0,0.0,0.0,0.0,0.0,0.0,0.0,0.0,-2.9005,-2.9005,-2.9005,-2.9005,-2.9005,-2.9005,-2.9409,-3.1127,-3.0925,-3.1788,-3.7496,-3.5665,-3.4362,-3.9939,-3.9719,-3.9276,0.0,-4.2782,-4.3809,0.0,0.0,0.0,0.0,0.0,0.0,0.0,0.0,0.0,0.0,0.0,0.0,0.0,0.0,0.0,0.0,0.0,0.0,0.0,0.0,0.0,-5.3185,-5.3185,-5.3188,-5.3157,-5.3188,-5.3167,-5.3133,-5.3191,-5.3444,-5.3814,-5.3758,-5.4045,-5.4503,-5.4459,-5.4494,-5.455,-5.4582,-5.4597,-5.4644,-5.4979,-5.4876,-5.4579,0.0,0.0,0.0,0.0,0.0,0.0,0.0,0.0,0.0,0.0,0.0,-2.6691,-2.6691,0.0,0.0,0.0,0.0,0.0,0.0,-2.753,-2.7794,-2.8075,-2.8088,-2.7786,-2.7133,-2.7091,-2.6502,-2.5393,-2.5393,-2.5558,-2.5888,-2.6869,-2.7952,-2.9005,-2.9005,-2.9005,-2.9005,-2.9005,-2.9005,-2.9005,-2.9005,-2.9005,0.0,0.0,0.0,0.0,0.0,0.0,0.0,0.0,-2.9005,-2.9005,-2.9005,-2.9005,-2.9005,-2.9005,-2.9005,-2.9005,-2.9005,-2.9372,-3.0363,-3.2986,-3.2284,-3.2302,-3.7514,-3.7129,-3.6964,-4.1625,-4.091,-4.0029,0.0,0.0,-4.5351,0.0,0.0,0.0,0.0,0.0,0.0,0.0,0.0,0.0,0.0,0.0,0.0,0.0,0.0,0.0,0.0,0.0,0.0,0.0,0.0,0.0,0.0,-5.3185,-5.3185,-5.3185,-5.3185,-5.3185,-5.3185,-5.3185,-5.3274,-5.3442,-5.3442,-5.3524,-5.3701,-5.396,-5.4066,-5.4101,-5.439,-5.4503,-5.4468,-5.4336,-5.4369,-5.4471,0.0,0.0,0.0,0.0,0.0,0.0,0.0,0.0,-2.7283,0.0,0.0,0.0,0.0,-2.6691,0.0,0.0,0.0,0.0,-2.7115,-2.7363,-2.7574,-2.771,-2.7707,-2.7384,-2.671,-2.6662,-2.6105,-2.5016,-2.5149,-2.5528,-2.6182,-2.7284,-2.8227,-2.9005,-2.9005,-2.9005,-2.8994,-2.8863,-2.8815,-2.8815,-2.8815,-2.8815,0.0,0.0,0.0,0.0,0.0,0.0,0.0,0.0,-2.9005,-2.9005,-2.9005,-2.9005,-2.9005,-2.9005,-2.9005,-2.9005,-2.9005,-2.9592,-3.0852,-3.3573,-3.3201,-3.3366,-3.8028,-3.7845,-3.7991,-4.256,-4.2782,-4.2433,-4.3277,0.0,0.0,0.0,0.0,0.0,0.0,0.0,0.0,0.0,0.0,0.0,0.0,0.0,0.0,0.0,0.0,0.0,0.0,0.0,0.0,0.0,0.0,0.0,0.0,-5.3185,-5.3185,-5.3185,-5.3185,-5.3185,-5.3185,-5.3185,-5.3185,-5.3185,-5.3185,-5.3185,-5.3227,-5.3504,-5.3624,-5.3644,-5.4101,-5.4206,-5.4068,-5.3869,-5.3924,-5.405,0.0,0.0,0.0,0.0,0.0,0.0,0.0,0.0,-2.6691,-2.6691,-2.6691,0.0,0.0,0.0,0.0,0.0,0.0,0.0,-2.6691,-2.6691,-2.6873,-2.7288,-2.7286,-2.7106,-2.6714,-2.6696,-2.5892,-2.4224,-2.4629,-2.5846,-2.7798,-2.7816,-2.8227,-2.8994,-2.9012,-2.9012,-2.8964,-2.8583,-2.8425,-2.8407,-2.8407,-2.8389,-2.8446,0.0,0.0,0.0,0.0,0.0,0.0,0.0,-2.9005,-2.9005,-2.9005,-2.9005,-2.9005,-2.9023,-2.9005,-2.9005,-2.9023,-2.9592,-3.0595,-3.2216,-3.3238,-3.489,-3.8946,-3.7371,-3.6674,-4.2341,-4.5406,-4.6819,-4.6049,-4.6562,0.0,0.0,0.0,0.0,0.0,0.0,0.0,0.0,0.0,0.0,0.0,0.0,0.0,0.0,0.0,0.0,0.0,0.0,0.0,0.0,0.0,0.0,0.0,-5.3185,-5.3185,-5.3185,-5.3185,-5.3185,-5.3185,-5.3185,-5.3185,-5.3185,-5.3185,-5.3185,-5.3185,-5.3185,-5.3185,-5.323,-5.3644,-5.3564,-5.3251,-5.3644,-5.3545,-5.3185,0.0,0.0,0.0,0.0,0.0,0.0,0.0,0.0,-2.6691,-2.6691,-2.6691,0.0,0.0,0.0,0.0,0.0,0.0,0.0,-2.6691,-2.6691,-2.6758,-2.6873,-2.6873,-2.682,-2.671,-2.6693,-2.6298,-2.5464,-2.6141,-2.6951,-2.7805,-2.8374,-2.8614,-2.8632,-2.9709,-2.9582,-2.8637,-2.962,-2.9564,-2.8827,-2.8827,-2.8658,-2.8402,0.0,0.0,0.0,0.0,0.0,0.0,0.0,0.0,0.0,-2.9005,-2.9005,-2.9225,-3.0356,-2.9886,-2.9244,-3.0375,-3.0852,-3.1568,-3.3738,-3.4926,-3.6174,-3.8524,-3.9169,-4.0251,-4.3663,-4.4911,-4.5333,-4.5112,0.0,0.0,0.0,0.0,0.0,0.0,0.0,0.0,0.0,0.0,0.0,0.0,0.0,0.0,0.0,0.0,0.0,0.0,0.0,0.0,0.0,0.0,0.0,0.0,0.0,-5.3185,-5.3185,-5.3185,-5.3185,-5.3185,-5.3185,-5.3185,-5.3185,-5.3185,-5.3185,-5.3185,-5.3185,-5.3185,-5.3206,-5.3318,-5.3295,-5.3206,-5.3318,-5.3295,-5.3185,0.0,0.0,0.0,0.0,0.0,0.0,-2.6691,-2.6691,-2.6691,-2.6691,-2.6691,-2.6691,0.0,0.0,0.0,-2.6691,-2.6691,0.0,-2.6691,-2.6691,-2.6691,-2.6691,-2.6691,-2.6691,-2.6691,-2.6691,-2.6635,-2.6517,-2.7005,-2.7455,-2.7852,-2.8341,-2.8425,-2.8233,-2.9175,-2.9151,-2.8435,-2.9091,-2.905,-2.8545,-2.8386,-2.8183,-2.7988,0.0,0.0,0.0,0.0,0.0,0.0,0.0,0.0,0.0,-2.894,-2.9445,-3.0026,-3.0356,-3.021,-3.0173,-3.114,-3.1874,-3.3018,-3.5775,-3.6615,-3.7367,-3.9625,-4.0891,-4.2359,0.0,-4.5902,-4.6122,-4.6122,0.0,0.0,0.0,0.0,0.0,0.0,0.0,0.0,0.0,0.0,0.0,0.0,0.0,0.0,0.0,0.0,0.0,0.0,0.0,0.0,0.0,0.0,0.0,0.0,0.0,0.0,-5.2252,-5.2252,-5.2252,-5.227,-5.2913,-5.3185,-5.3185,-5.3185,-5.3185,-5.3185,-5.3185,-5.3185,-5.3185,-5.3185,-5.3185,-5.3185,-5.3185,-5.3185,-5.3185,0.0,0.0,-2.6691,-2.6691,0.0,0.0,-2.6691,-2.6691,-2.6691,-2.6691,-2.6691,-2.6691,0.0,0.0,0.0,-2.6691,-2.6691,-2.6691,0.0,-2.6691,-2.6691,-2.6691,-2.6691,-2.6691,-2.6691,-2.6691,-2.6873,-2.7257,-2.7288,-2.7517,-2.7897,-2.7897,-2.7883,-2.7855,-2.7982,-2.813,-2.8277,-2.7774,-2.77,-2.7869,-2.753,-2.7363,-2.7332,-2.771,0.0,0.0,0.0,0.0,0.0,0.0,0.0,0.0,-2.8773,-2.9905,-3.0833,-2.9545,-3.0174,-3.1327,-3.1555,-3.2661,-3.4467,-3.7528,-3.7873,-3.8346,-4.1846,-4.2506,-4.3332,-4.6544,0.0,-4.8141,-4.8269,0.0,0.0,0.0,0.0,0.0,0.0,0.0,0.0,0.0,0.0,0.0,0.0,0.0,0.0,0.0,0.0,0.0,0.0,0.0,0.0,0.0,0.0,0.0,0.0,0.0,0.0,0.0,-5.0802,-5.0802,-5.0857,-5.2325,-5.3023,-5.3075,-5.3167,-5.3185,-5.3185,-5.3185,-5.3185,-5.3185,-5.3185,-5.3185,-5.3185,-5.3185,-5.3185,-5.3185,0.0,0.0,-2.6691,-2.6691,0.0,0.0,-2.6691,-2.6691,-2.6691,-2.6691,-2.6691,-2.6691,-2.6691,-2.6691,0.0,-2.6691,-2.6691,-2.6691,-2.6691,-2.6691,-2.6691,-2.6691,-2.6691,-2.6691,-2.6691,-2.6691,-2.6741,-2.6824,-2.7147,-2.7517,-2.7897,-2.7897,-2.7739,-2.7476,-2.863,-2.8538,-2.763,-2.893,-2.8876,-2.7926,-2.8084,-2.7819,-2.7319,-2.7411,-2.7424,0.0,0.0,0.0,0.0,0.0,0.0,0.0,-2.8106,-2.8379,-2.8895,-3.0134,-3.0438,-3.0811,-3.2748,-3.3281,-3.3581,-3.4966,-3.6139,-3.8396,-4.3868,-4.414,-4.414,-4.7388,-4.7168,-4.6801,0.0,0.0,0.0,0.0,0.0,0.0,0.0,0.0,0.0,0.0,0.0,0.0,0.0,0.0,0.0,0.0,0.0,0.0,0.0,0.0,0.0,0.0,0.0,0.0,-5.0802,-5.0802,-5.0802,0.0,-5.0802,-5.0802,-5.082,-5.1169,-5.1665,-5.2289,-5.2931,-5.3185,-5.3185,-5.3185,-5.3185,-5.3185,-5.3185,-5.3185,-5.3185,-5.3185,-5.3185,-5.3185,0.0,0.0,0.0,0.0,0.0,0.0,0.0,0.0,-2.6691,-2.6691,-2.6691,-2.6691,-2.6691,-2.6691,0.0,0.0,-2.6691,-2.6691,-2.6691,-2.6691,-2.6691,-2.6691,-2.6691,-2.6691,-2.6691,-2.6691,-2.6691,-2.6691,-2.6906,-2.7115,-2.7334,-2.7334,-2.7208,-2.7037,-2.7809,-2.7838,-2.7355,-2.8135,-2.814,-2.7604,-2.7601,-2.7361,-2.7003,-2.7003,-2.7003,-2.7003,-2.7003,0.0,0.0,0.0,0.0,0.0,0.0,0.0,-2.91,-2.9376,-2.981,-3.0467,-3.1784,-3.3009,-3.438,-3.6309,-3.7989,-3.9982,-4.305,-4.4016,-4.4929,-4.724,-4.737,0.0,0.0,0.0,0.0,0.0,0.0,0.0,0.0,0.0,0.0,0.0,0.0,0.0,0.0,0.0,0.0,0.0,0.0,0.0,0.0,0.0,0.0,0.0,0.0,0.0,-4.9609,-4.9609,-4.9609,-4.9609,-4.9609,-4.9609,-4.9627,-5.0435,-5.1041,-5.1444,-5.1867,-5.227,-5.2637,-5.2637,-5.2858,-5.3185,-5.3185,-5.3185,-5.3185,-5.3185,-5.3185,-5.3185,0.0,0.0,0.0,0.0,0.0,0.0,0.0,0.0,0.0,-2.6691,-2.6691,-2.6691,-2.6691,-2.6691,-2.6691,0.0,0.0,0.0,-2.6691,-2.6691,-2.6691,-2.6691,-2.6691,-2.6691,-2.6691,-2.6691,-2.6691,-2.6691,-2.6691,-2.6826,-2.7114,-2.7114,-2.7114,-2.7114,-2.7114,-2.7129,-2.7178,-2.6923,-2.6955,-2.7178,-2.6906,-2.6758,-2.6691,-2.6691,-2.6691,-2.6691,-2.6691,-2.6691,-2.6758,-2.7083,0.0,0.0,0.0,0.0,-2.9422,-2.8167,-2.8876,-3.0108,-3.0262,-3.2464,-3.5453,-3.8596,-4.015,-4.1017,-4.1559,-4.3172,-4.4953,-4.6476,0.0,0.0,0.0,0.0,0.0,0.0,0.0,0.0,0.0,0.0,0.0,0.0,0.0,0.0,0.0,0.0,0.0,0.0,0.0,0.0,0.0,0.0,0.0,0.0,0.0,-4.8306,-4.8306,-4.8306,-4.8306,-4.8306,-4.8306,-4.8306,-4.8361,-4.9738,-5.0453,-5.06,-5.0747,-5.1187,-5.1775,-5.1775,-5.227,-5.3004,-5.3004,-5.3096,-5.3185,-5.3185,-5.3185,-5.3185,0.0,0.0,0.0,0.0,0.0,0.0,0.0,0.0,0.0,0.0,-2.6691,-2.6691,-2.6691,-2.6691,-2.6691,-2.6691,-2.6691,-2.6691,-2.6691,0.0,0.0,-2.6691,-2.6691,-2.6691,-2.6691,-2.6691,-2.6691,-2.6691,-2.6691,-2.7368,-2.8688,-2.8688,-2.8688,-2.8688,-2.8688,-2.7995,-2.6791,-2.7099,-2.7051,-2.6808,-2.7099,-2.7003,-2.6691,-2.6691,-2.6691,-2.6691,-2.6691,-2.6691,-2.6708,-2.6758,-2.6791,0.0,0.0,0.0,-2.7212,-2.734,-2.8232,-2.9334,-3.0092,-3.2264,-3.5091,-3.8534,-3.8304,-3.8198,-4.1924,0.0,-4.2928,0.0,0.0,0.0,0.0,0.0,0.0,0.0,0.0,0.0,0.0,0.0,0.0,0.0,0.0,0.0,0.0,0.0,0.0,0.0,0.0,0.0,0.0,0.0,-4.8416,-4.8306,-4.8306,0.0,-4.8306,-4.8306,-4.8306,-4.8306,-4.8306,-4.8306,-4.8324,-4.8526,-4.904,-4.9812,-5.049,-5.0857,-5.0967,-5.0967,-5.1426,-5.216,-5.216,-5.2582,-5.3185,-5.3185,-5.3185,-5.3185,0.0,0.0,0.0,0.0,0.0,0.0,0.0,0.0,0.0,0.0,0.0,-2.6691,-2.6691,-2.6691,-2.6691,-2.6691,-2.6691,-2.6691,-2.6691,-2.6691,-2.6691,-2.6691,-2.6691,-2.6691,-2.6691,-2.6691,-2.6691,-2.6691,-2.6691,-2.7909,-3.0245,-3.0245,-2.9788,-2.9044,-2.9873,-2.8925,-2.6759,-2.7811,-2.764,-2.6708,-2.689,-2.6857,-2.6691,-2.6691,-2.6691,-2.6691,-2.6691,-2.6691,-2.6691,-2.6691,-2.6691,-2.6691,-2.6691,0.0,0.0,0.0,-2.7317,-2.8336,-3.1245,-3.2275,-3.3688,-3.8572,-3.7875,-3.702,-4.0944,-4.1292,-4.1508,0.0,0.0,0.0,0.0,0.0,0.0,0.0,0.0,0.0,0.0,0.0,0.0,0.0,0.0,0.0,0.0,0.0,0.0,0.0,0.0,0.0,0.0,-4.8306,-4.8306,-4.8306,-4.8306,0.0,-4.8306,-4.8306,-4.8132,-4.7797,-4.7797,-4.7614,-4.7259,-4.7259,-4.7816,-4.8893,-4.926,-4.9682,-5.0123,-5.0123,-5.06,-5.1334,-5.1334,-5.1811,-5.2527,-5.2527,-5.2821,-5.3185,0.0,0.0,0.0,0.0,0.0,0.0,0.0,0.0,0.0,0.0,0.0,-2.6691,-2.6691,0.0,0.0,0.0,-2.6691,-2.6691,-2.6691,-2.6691,-2.6691,-2.6691,-2.6691,-2.6691,-2.6691,-2.6691,-2.6691,-2.6691,-2.6691,-2.8044,-3.0651,-3.1021,-3.0618,-2.9619,-3.07,-2.9939,-2.7892,-2.8671,-2.8333,-2.73,-2.7486,-2.7215,-2.6708,-2.6911,-2.686,-2.6691,-2.6691,-2.6691,-2.6691,-2.6691,-2.6691,-2.6691,-2.6691,-2.6691,0.0,0.0,0.0,-2.7554,-3.1495,-3.1901,-3.2391,-3.7422,-3.684,-3.5835,0.0,0.0,0.0,0.0,0.0,0.0,0.0,0.0,0.0,0.0,0.0,0.0,0.0,0.0,0.0,0.0,0.0,0.0,0.0,0.0,0.0,0.0,0.0,0.0,-4.7797,-4.7818,-4.7818,-4.7818,-4.7818,-4.7818,-4.7818,-4.7818,-4.7575,-4.715,-4.715,-4.6869,-4.6407,-4.6407,-4.6914,-4.7838,-4.7997,-4.844,-4.9045,-4.9221,-4.9738,-5.047,-5.0312,-5.0826,-5.1662,-5.1501,-5.1946,-5.2637,0.0,0.0,0.0,0.0,0.0,0.0,0.0,0.0,0.0,0.0,0.0,-2.6691,-2.6691,-2.6691,-2.6691,-2.6691,-2.6691,-2.6691,-2.6691,-2.6691,-2.6691,-2.6691,-2.6691,0.0,-2.6691,-2.6691,-2.6691,-2.6691,-2.6691,-2.7537,-2.9145,-3.055,-3.1157,-3.1089,-3.1157,-3.1106,-3.0869,-2.9568,-2.8942,-2.8942,-2.9651,-2.8636,-2.6776,-2.7469,-2.73,-2.6691,-2.6691,-2.6691,-2.6691,-2.6691,-2.6691,-2.6691,-2.6691,-2.6691,-2.6691,0.0,0.0,0.0,-2.9634,-3.0734,-3.1765,-3.4184,-3.415,-3.3931,0.0,0.0,0.0,0.0,0.0,0.0,0.0,0.0,0.0,0.0,0.0,0.0,0.0,0.0,0.0,0.0,0.0,0.0,0.0,0.0,0.0,0.0,0.0,0.0,-4.6501,-4.6501,-4.6501,-4.6501,-4.6501,-4.6501,-4.6501,-4.6501,-4.646,-4.6454,-4.6454,-4.643,-4.6407,-4.6407,-4.6454,-4.653,-4.7172,-4.7485,-4.7563,-4.813,-4.8875,-4.9588,-4.8965,-4.958,-5.0796,-5.0145,-5.0329,-5.1041,0.0,0.0,0.0,0.0,0.0,0.0,0.0,0.0,0.0,0.0,0.0,0.0,0.0,-2.6691,-2.6691,-2.6691,-2.6691,-2.6691,-2.6691,-2.6691,-2.6691,-2.6691,-2.6691,-2.6691,-2.6691,-2.6691,-2.6691,-2.6691,-2.6691,-2.7503,-2.901,-2.9551,-3.0296,-3.1275,-3.3186,-3.2459,-2.989,-3.1241,-3.0429,-2.8383,-3.0108,-2.9736,-2.8316,-2.9516,-2.982,-2.9516,-2.9059,-2.9194,-2.9364,-2.7909,-2.7401,-2.7317,-2.6843,-2.6691,-2.6691,-2.6691,-2.6691,-2.7199,-2.9482,-2.9565,-2.9905,-3.3575,-3.2882,-3.2053,-3.494,-3.5802,0.0,0.0,0.0,0.0,0.0,0.0,0.0,0.0,0.0,0.0,0.0,0.0,0.0,0.0,0.0,0.0,0.0,0.0,0.0,0.0,0.0,0.0,-4.6348,-4.5935,-4.5899,-4.6389,-4.6407,-4.6407,-4.6407,-4.6407,-4.6216,-4.5815,-4.5815,-4.5622,-4.5258,-4.5258,-4.5258,-4.5267,-4.5908,-4.6401,-4.6778,-4.6981,-4.7249,-4.7519,-4.7275,-4.7844,-4.878,-4.8536,-4.9176,-5.021,0.0,-2.3991,-2.3943,-2.4116,0.0,-2.4053,-2.4592,-2.4816,-2.5202,-2.5906,0.0,0.0,0.0,0.0,-2.6691,-2.6691,-2.6691,-2.6691,-2.6691,-2.6691,-2.6691,-2.6691,-2.6691,-2.6691,-2.6691,-2.6691,-2.6691,-2.6691,-2.6691,-2.7215,-2.8248,-2.8756,-2.9517,-3.0584,-3.3288,-3.3136,-3.0973,-3.2933,-3.2476,-3.0528,-3.1799,-3.1562,-3.0567,-3.1295,-3.141,-3.119,-3.1207,-3.1207,-3.1038,-3.0021,-2.9345,-2.8804,-2.8078,-2.7317,-2.6691,-2.6691,-2.6691,-2.7029,-2.8552,-2.8382,-2.8517,-3.1512,-3.1173,-3.0751,-3.3199,0.0,0.0,0.0,0.0,0.0,0.0,0.0,0.0,0.0,0.0,0.0,0.0,0.0,0.0,0.0,0.0,0.0,0.0,0.0,0.0,0.0,0.0,0.0,-4.4987,-4.4541,-4.4628,-4.5371,-4.5406,-4.5528,-4.5808,-4.5808,-4.5597,-4.5205,-4.5205,-4.4998,-4.4615,-4.4615,-4.4615,-4.4626,-4.5025,-4.5545,-4.6094,-4.6312,-4.6407,-4.6383,-4.6167,-4.6575,-4.7245,-4.7026,-4.7666,-4.8703,-2.5147,-2.4716,-2.4552,-2.5067,-2.4732,-2.4552,-2.507,-2.5615,-2.5959,-2.5961,0.0,0.0,0.0,0.0,0.0,-2.6759,-2.6759,-2.6776,-2.6725,-2.6725,-2.6708,-2.6691,-2.6691,-2.6691,-2.6691,-2.6691,-2.6691,-2.6691,-2.6691,-2.6691,-2.6725,-2.8248,-2.8959,-2.9061,-3.1278,-3.3072,-3.4438,-3.4489,-3.4878,-3.538,-3.4827,-3.4083,-3.3271,-3.2699,-3.1972,-3.1461,-3.2966,-3.256,0.0,-3.2966,0.0,0.0,-3.0311,-2.8535,-2.6725,-2.6725,-2.6708,-2.6691,0.0,0.0,0.0,-2.779,0.0,0.0,-3.0091,0.0,0.0,0.0,0.0,0.0,0.0,0.0,0.0,0.0,0.0,0.0,0.0,0.0,0.0,0.0,0.0,0.0,0.0,0.0,0.0,0.0,0.0,-4.2269,-4.2286,-4.2286,-4.2625,-4.3325,-4.3358,-4.3741,-4.453,-4.4564,-4.4564,-4.4564,-4.4598,-4.4615,-4.4615,-4.4615,-4.4615,-4.4615,-4.4615,-4.4934,-4.5537,-4.6112,-4.6359,-4.6288,-4.5707,-4.5815,-4.6288,-4.5681,-4.5858,-4.6489,-2.4032,-2.3921,-2.3879,-2.4012,-2.3921,-2.3879,-2.4012,-2.4491,-2.4973,0.0,0.0,0.0,-2.6657,-2.7182,-2.774,-2.8316,-2.8367,-2.8112,-2.7536,-2.7503,-2.7266,-2.6708,-2.6691,-2.6691,-2.6691,-2.6691,-2.6691,-2.6691,-2.6691,-2.6691,-2.6708,-2.7689,-2.8128,-2.8229,-3.0497,-3.2039,-3.3021,-3.4624,-3.3858,-3.1914,-3.552,-3.4895,-3.2138,-3.5199,-3.4878,0.0,0.0,-3.5216,-3.4349,0.0,-3.3224,-3.1684,-2.9873,-2.8467,-2.7503,-2.7503,-2.7131,-2.6691,-2.6691,0.0,0.0,0.0,0.0,0.0,-2.9835,-3.1715,0.0,0.0,0.0,0.0,0.0,0.0,0.0,0.0,0.0,0.0,0.0,0.0,0.0,0.0,0.0,0.0,0.0,0.0,0.0,0.0,0.0,-4.1728,-4.2252,-4.2286,-4.2388,-4.2591,-4.2591,-4.2709,-4.2912,-4.347,-4.3741,-4.3741,-4.4316,-4.4615,-4.4615,-4.4615,-4.4615,-4.4615,-4.4615,-4.4692,-4.4852,-4.5025,-4.5089,-4.5089,-4.4906,-4.4944,-4.5062,-4.4906,-4.5232,-4.5792,-2.3595,-2.3595,-2.3595,-2.3595,-2.3595,-2.3595,-2.3595,-2.4277,-2.4927,0.0,0.0,0.0,-2.7603,-2.8044,-2.8484,-2.8959,-2.8993,-2.8807,-2.8332,-2.8298,-2.8112,-2.769,-2.7673,-2.7673,-2.7673,-2.7334,-2.7165,-2.7165,-2.7165,-2.7165,-2.7182,-2.7943,-2.8298,-2.8383,-3.0006,-3.097,-3.1529,-3.3744,-3.4163,-3.3575,-3.5955,-3.6129,-3.5115,-3.7144,-3.6823,0.0,0.0,0.0,-3.6603,-3.6755,-3.5221,0.0,0.0,-2.9922,-2.8433,-2.9024,-2.8247,-2.7165,-2.7165,-2.6928,-2.6793,-2.7232,0.0,0.0,-2.9364,-3.1515,-3.3423,0.0,0.0,0.0,0.0,0.0,0.0,0.0,0.0,0.0,0.0,0.0,0.0,0.0,0.0,0.0,0.0,0.0,0.0,0.0,-4.0967,-4.0916,-4.1339,-4.1399,-4.1508,-4.183,-4.183,-4.1982,-4.2286,-4.2726,-4.2946,-4.2963,-4.3724,-4.4096,-4.4113,-4.4462,-4.4615,-4.4615,-4.4615,-4.4615,-4.4615,-4.4615,-4.4615,-4.4615,-4.4615,-4.4615,-4.4615,-4.4615,-4.4814,-4.5125,0.0,-2.3595,-2.3625,-2.3699,-2.3714,-2.3744,-2.3804,-2.4795,-2.5503,0.0,-2.7013,-2.8359,-2.9056,-2.9128,-2.9162,-2.9247,-2.9247,-2.9213,-2.9128,-2.9128,-2.9094,-2.8993,-2.8993,-2.8993,-2.8993,-2.8298,-2.7925,-2.7925,-2.7925,-2.7925,-2.7959,-2.8738,-2.9128,-2.9162,-2.9888,-3.0207,-3.0362,-3.2324,-3.481,-3.7313,-3.6259,-3.7364,-3.9503,0.0,-3.8075,-3.8007,-3.974,-3.9326,-3.821,-3.9453,-3.7642,0.0,0.0,0.0,0.0,0.0,-2.9583,-2.7925,-2.7925,-2.7452,-2.6928,-2.6843,-2.7334,0.0,-2.8687,-3.1393,-3.4015,0.0,0.0,0.0,0.0,0.0,0.0,0.0,0.0,0.0,0.0,0.0,0.0,0.0,0.0,0.0,0.0,0.0,0.0,-4.0096,-4.0096,-4.0096,-4.0096,-4.0096,-4.0417,-4.1068,-4.1085,-4.139,-4.2033,-4.2134,-4.2168,-4.2185,-4.2929,-4.3308,-4.3409,-4.413,-4.453,-4.4615,-4.4615,-4.4615,-4.4615,-4.4615,-4.4615,-4.4615,-4.4615,-4.4615,-4.4615,-4.4615,-4.4615,-4.4615,-2.3595,-2.3595,-2.3774,-2.4306,-2.4395,-2.459,-2.5136,-2.578,-2.6198,-2.6198,-2.7297,-2.8558,-2.9764,-2.9888,-3.0125,-3.0717,-3.0768,-3.0514,-2.9922,-2.9888,-2.9617,-2.9027,-2.8993,-2.8993,-2.8993,-2.8857,-2.8773,-2.8773,-2.8773,-2.8773,-2.879,-2.9533,-2.9888,-2.9922,-3.0666,-3.0987,-3.1004,-3.1444,-3.2645,-3.4472,-3.6603,-3.7077,-3.6789,-3.9529,-3.9073,-3.7455,-4.0679,-4.0527,-3.8734,-3.843,-3.7838,-3.6806,0.0,0.0,0.0,-3.0581,0.0,0.0,0.0,0.0,0.0,0.0,0.0,0.0,-2.7993,-2.8584,-2.9666,0.0,0.0,0.0,0.0,0.0,0.0,0.0,0.0,0.0,0.0,0.0,0.0,0.0,0.0,0.0,0.0,0.0,-4.0096,-4.0096,-4.0096,-4.0096,-4.0096,-4.0096,-4.018,-4.0316,-4.0316,-4.0383,-4.0536,-4.1119,-4.1407,-4.1424,-4.2151,-4.2828,-4.3392,-4.3572,-4.3995,-4.4615,-4.4615,-4.4615,-4.4615,-4.4615,-4.4615,-4.4615,-4.4615,-4.4615,-4.4615,-4.4615,-4.4615,-4.4615,-2.4597,-2.4597,-2.4702,-2.5038,-2.5098,-2.5202,-2.5555,-2.6104,-2.6488,-2.6488,-2.755,-2.8774,-3.0055,-3.0186,-3.0456,-3.1137,-3.119,-3.1038,-3.0666,-3.0649,-3.0347,-2.9671,-2.9655,-2.95,-2.9202,-2.9134,-2.9104,-2.9104,-2.9404,-2.955,-2.955,-3.0311,-3.0649,-3.0666,-3.1038,-3.119,-3.119,-3.119,-3.2256,-3.415,-3.6417,0.0,-3.7618,-4.0612,-4.0832,-3.9808,-4.1653,-4.1576,-4.0476,-3.936,-3.9005,0.0,0.0,-3.4912,-3.319,0.0,-3.07,-2.955,0.0,0.0,0.0,-2.8501,0.0,0.0,0.0,-2.8975,-2.982,0.0,0.0,0.0,0.0,0.0,0.0,0.0,0.0,0.0,0.0,0.0,0.0,0.0,0.0,0.0,0.0,0.0,-4.0096,-4.0096,-4.0096,-4.0096,-4.0096,-4.0096,-4.0096,-4.0096,-4.0096,-4.0096,-4.0096,-4.0485,-4.0646,-4.0646,-4.139,-4.1948,-4.2337,-4.2692,-4.3267,-4.3995,-4.3995,-4.4215,-4.4615,-4.4615,-4.4615,-4.4615,-4.4615,-4.4615,-4.4615,-4.4615,-4.4615,-4.4615,-2.5659,-2.5615,-2.5644,-2.5779,-2.5794,-2.5839,-2.5974,-2.6437,-2.6831,-2.6962,-2.7876,-2.9014,-3.037,-3.0287,-3.0429,-3.1161,-3.1236,-3.118,-3.1032,-3.1284,-3.1082,-3.033,-3.0293,-3.0016,-2.9406,-2.9301,-2.9301,-2.9403,-2.9892,-3.0196,-3.0328,-3.092,-3.119,-3.119,-3.119,-3.136,-3.163,-3.1765,-3.3034,-3.5081,0.0,-3.8108,-3.9056,-4.1559,-4.2337,-4.2117,-4.2405,-4.2506,-4.2252,-4.0654,-4.0087,-3.9969,-3.9073,-3.6806,0.0,0.0,0.0,0.0,0.0,0.0,0.0,0.0,0.0,-2.9179,0.0,0.0,0.0,0.0,0.0,0.0,0.0,0.0,0.0,0.0,0.0,0.0,0.0,0.0,0.0,0.0,0.0,0.0,0.0,0.0,-3.9436,-3.9859,-3.9893,-3.996,-4.0096,-4.0096,-4.0096,-4.0096,-4.0096,-4.0096,-4.0096,-4.0096,-4.0096,-4.0113,-4.0696,-4.1068,-4.1221,-4.1813,-4.2489,-4.3217,-4.3325,-4.3775,-4.4395,-4.4547,-4.4615,-4.4615,-4.4615,-4.4615,-4.4615,-4.4615,-4.4615,-4.4615,-2.5839,-2.5615,-2.5794,-2.6378,-2.6482,-2.6701,-2.7285,-2.7435,-2.7665,-2.8211,-2.8417,-2.9201,-3.107,-3.0211,-2.9993,-3.1269,-3.1381,-3.1105,-3.0455,-3.1517,-3.1605,-3.0359,-3.0293,-3.0016,-2.9406,-2.9393,-2.9632,-3.0178,-3.024,-3.0562,-3.1072,-3.1157,-3.119,-3.119,-3.119,-3.1935,-3.3203,-3.3846,-3.5069,0.0,-3.958,-3.9631,0.0,-4.1922,-4.2472,-4.1508,-4.2828,-4.3274,-4.2963,0.0,-4.0113,-3.9876,0.0,-3.64,-3.4472,-3.4387,0.0,0.0,0.0,0.0,0.0,0.0,-2.9577,0.0,0.0,0.0,0.0,0.0,0.0,0.0,0.0,0.0,0.0,0.0,0.0,0.0,0.0,0.0,0.0,0.0,0.0,0.0,0.0,0.0,0.0,-3.8954,-3.9106,-3.9419,-4.0079,-4.0096,-4.0096,-4.0096,-4.0096,-4.0096,-4.0096,-4.0096,-4.0096,-4.0096,-4.018,-4.0561,-4.1204,-4.1288,-4.1728,-4.2455,-4.3132,-4.3443,-4.3578,-4.4327,-4.4615,-4.4615,-4.4615,-4.4615,-4.4615,-4.4615,-4.4615,-4.4615,-2.6881,-2.6752,-2.6866,-2.7136,-2.718,-2.7285,-2.7555,-2.76,-2.7836,-2.848,-2.8551,-2.9445,-3.1737,-3.1477,-3.1819,-3.3519,-3.3657,-3.3533,0.0,-3.2643,-3.1895,-3.0974,-2.9861,-2.8973,-2.8376,-2.8709,-2.9157,-2.9783,-3.0123,-3.0617,-3.119,-3.119,-3.119,-3.119,-3.0838,-3.1934,-3.4027,-3.3991,-3.5568,0.0,0.0,0.0,0.0,-4.2844,-4.3707,-4.3132,-4.2861,-4.3335,-4.3618,0.0,-4.0942,0.0,0.0,0.0,0.0,0.0,0.0,0.0,0.0,0.0,0.0,0.0,0.0,0.0,-3.0505,0.0,-2.8872,0.0,0.0,0.0,0.0,0.0,0.0,0.0,0.0,0.0,0.0,0.0,0.0,0.0,0.0,0.0,0.0,0.0,0.0,0.0,0.0,-3.7862,-3.8166,-3.9402,-4.0096,-4.0096,-4.0096,-4.0096,-4.0096,-4.0096,-4.0096,-4.0096,-4.0096,-4.0265,-4.0544,-4.0544,-4.095,-4.1677,-4.1999,-4.2371,-4.2828,-4.3589,-4.391,-4.3944,-4.4429,-4.4615,-4.4615,-4.4615,-4.4615,-4.4615,-2.76,-2.76,-2.76,-2.76,-2.76,-2.76,-2.76,-2.8049,-2.8573,-2.9056,-2.928,-3.0238,-3.2468,-3.1897,-3.229,-3.46,-3.4628,-3.4682,0.0,0.0,-3.2687,-3.2245,-3.001,-2.8658,-2.8393,-2.8292,-2.8543,-2.9157,-2.9585,-3.0123,-3.0699,-3.0699,-3.0699,-3.0699,-3.0435,-3.1772,-3.4286,0.0,-3.6501,-3.932,-4.018,-4.0849,-4.1542,-4.3284,-4.4242,-4.4434,-4.3065,-4.344,-4.408,-4.074,-4.1389,0.0,-3.9076,0.0,0.0,0.0,0.0,0.0,-3.265,0.0,0.0,0.0,0.0,0.0,0.0,0.0,0.0,0.0,0.0,0.0,0.0,0.0,0.0,0.0,0.0,0.0,0.0,0.0,0.0,0.0,0.0,0.0,0.0,0.0,0.0,0.0,-3.5605,0.0,-3.6451,-3.8589,-3.9808,-3.9808,-3.9994,-4.0096,-4.0096,-4.0096,-4.0096,-4.0096,-4.0096,-4.0096,-4.0096,-4.0096,-4.0375,-4.0916,-4.1119,-4.1386,-4.1749,-4.2505,-4.2786,-4.2789,-4.3385,-4.3879,-4.4253,-4.4514,-4.4615,-4.4615,-2.76,-2.76,-2.76,-2.76,-2.76,-2.76,-2.76,-2.919,-3.0417,-3.0447,-3.1002,-3.1914,-3.3305,0.0,0.0,0.0,0.0,-3.3109,-3.4351,0.0,-3.4318,0.0,0.0,-2.9766,-3.0387,-2.8599,-2.7919,-2.8535,-2.8559,-2.8873,-2.9451,-2.9451,-2.9451,-2.9473,-3.0059,-3.1539,-3.3816,-3.6589,-3.8572,-4.0138,-4.3194,-4.4445,-4.431,0.0,-4.3284,-4.4468,-4.3601,0.0,0.0,-4.1773,-4.1025,0.0,0.0,0.0,0.0,0.0,0.0,0.0,0.0,0.0,0.0,-3.1011,0.0,0.0,0.0,0.0,-2.992,0.0,0.0,0.0,0.0,0.0,-2.524,-2.5259,0.0,0.0,0.0,0.0,0.0,0.0,0.0,0.0,0.0,0.0,0.0,0.0,-3.3766,0.0,-3.56,-3.7804,-3.9039,-3.9039,-3.974,-4.0096,-4.0096,-4.0096,-4.0096,-4.0096,-4.0096,-4.0096,-4.0096,-4.0096,-4.0113,-4.018,-4.0882,-4.0802,-4.0238,-4.0981,-4.1194,-4.1082,-4.1098,-4.2044,-4.3426,-4.4281,-4.4615,-4.4615,-2.8427,-2.7899,-2.76,-2.76,-2.76,-2.775,-2.8173,-2.919,-3.0357,0.0,-3.2004,0.0,0.0,-3.51,-3.4876,0.0,0.0,-3.6858,-3.6431,-3.6025,0.0,0.0,0.0,-3.1845,0.0,-3.0509,-2.9856,-2.9168,-2.9168,-2.9241,-2.9406,-2.9406,-2.9406,-2.94,-2.9672,-3.1214,0.0,0.0,0.0,0.0,0.0,-4.2202,-4.2354,0.0,0.0,-4.4485,-4.3621,-4.3502,0.0,-4.0442,-4.0463,-4.1305,-3.9264,-3.8623,-3.8725,-3.9031,-3.7513,0.0,0.0,0.0,-3.507,-3.3526,0.0,0.0,0.0,0.0,0.0,0.0,0.0,0.0,0.0,0.0,-2.5302,-2.5208,-2.4894,0.0,0.0,0.0,0.0,0.0,0.0,0.0,0.0,0.0,0.0,-3.0025,-3.1021,-3.1698,0.0,-3.5504,-3.7557,-3.7557,-3.9216,-4.0096,-4.0096,-4.0096,-3.9833,-3.9315,-3.9315,-3.9049,-3.8585,-3.8585,-3.8585,-3.8585,-3.883,-3.8804,-3.8626,-3.935,-3.964,-3.9706,-4.0651,-4.132,-4.1934,-4.3244,-4.4093,-4.4615,-2.9205,-2.8618,-2.8169,-2.7675,-2.7809,-2.8323,-2.9475,-3.0193,0.0,0.0,-3.3918,0.0,-3.7479,0.0,-3.736,0.0,-3.8063,-3.8257,-3.8796,-3.6686,0.0,-3.7808,-3.4831,0.0,0.0,0.0,0.0,-3.0937,-2.9974,-2.9745,-3.0136,-2.9685,-2.9467,-2.9482,-2.9738,-3.1008,-3.3075,-3.5231,-3.7152,0.0,0.0,-4.0658,0.0,0.0,-4.3477,-4.3575,0.0,-4.2583,-4.2484,-4.0193,-4.0344,-4.1188,-3.9213,-3.9072,-3.9608,-3.9461,-3.847,-3.7418,-3.724,-3.7185,0.0,0.0,-3.4391,0.0,-3.266,0.0,0.0,0.0,0.0,0.0,0.0,0.0,-2.5637,-2.5082,-2.4498,-2.4307,0.0,-2.5086,0.0,0.0,0.0,0.0,0.0,0.0,-2.7208,-2.7193,-2.8187,-2.8734,0.0,0.0,-3.5508,-3.5778,-3.8052,-3.9556,-4.0096,-3.9558,-3.9156,-3.8908,-3.8635,-3.8246,-3.7793,-3.7793,-3.7793,-3.7793,-3.7793,-3.7632,-3.7399,-3.7902,-3.8083,-3.8137,-3.9062,-3.9865,-4.0706,-4.2261,-4.3199,-4.368,-2.9906,-2.9636,-2.9217,-2.7959,-2.8334,0.0,0.0,0.0,-3.3634,0.0,-3.6596,-3.709,-3.8302,-3.7419,-3.7419,-3.9134,-3.7105,-3.7255,-4.095,-3.6537,0.0,0.0,-3.5639,-3.4098,-3.6537,0.0,0.0,0.0,0.0,-3.0342,-3.1481,-3.0193,-2.9606,-2.9633,-3.0241,-3.0881,-3.1776,-3.5185,-3.6623,-3.6724,-3.8103,-3.9958,-4.1805,-4.1214,0.0,-4.1867,-4.1088,-4.1307,-4.19,-4.0974,-4.0668,-4.0668,-4.0638,-4.006,-3.9388,-3.9388,-3.9388,-3.9275,-3.8616,-3.8422,-3.7943,-3.6103,0.0,0.0,0.0,0.0,-3.3113,0.0,0.0,0.0,0.0,0.0,0.0,-2.4918,-2.4066,-2.3773,0.0,0.0,0.0,0.0,0.0,0.0,0.0,-2.6823,-2.6871,-2.4133,-2.5382,-2.624,0.0,0.0,0.0,-3.3858,-3.6265,-3.8347,-3.9978,-3.8476,-3.8068,-3.8772,-3.8092,-3.7719,-3.7706,-3.7706,-3.7706,-3.7706,-3.7706,-3.7249,-3.6554,-3.6554,-3.6515,-3.6432,-3.6477,-3.7798,-3.9811,-4.142,-4.1997,-4.1997,-3.0537,-2.9894,-2.9636,-2.9729,-3.0731,-3.1854,0.0,0.0,0.0,0.0,-3.8048,-3.8796,-3.9125,-3.9738,-3.9529,-3.8048,-3.8227,0.0,0.0,0.0,0.0,-4.104,-3.9828,-3.8721,-3.7913,-3.706,0.0,-3.4249,0.0,-3.1689,-3.1481,-3.0193,-2.9606,-2.9636,-3.0235,-3.0618,-3.1008,-3.4379,-3.672,-3.8118,-3.7915,-3.8819,0.0,0.0,-4.0978,-4.1611,-4.2027,-4.233,-4.2323,-4.0938,-4.0477,-4.0387,-3.9888,-3.9574,-3.9388,-3.9388,-3.9388,-3.9343,-3.92,-3.8781,-3.8272,-3.7778,-3.6432,-3.5011,0.0,0.0,0.0,0.0,0.0,0.0,0.0,0.0,0.0,-2.6303,-2.4687,-2.3659,0.0,0.0,0.0,0.0,0.0,0.0,0.0,-2.5206,-2.4917,-2.4188,-2.4514,0.0,0.0,0.0,0.0,-3.3514,-3.3964,-3.5526,-3.8358,-3.7001,-3.6609,-3.7188,-3.6994,-3.6631,-3.6085,-3.6085,-3.6085,-3.6085,-3.6085,-3.5958,-3.5782,-3.5782,-3.5774,-3.5804,-3.6297,-3.7425,-3.8979,-4.1177,-4.1997,-4.1997,-3.1182,-3.0911,-3.0971,-3.133,0.0,0.0,-3.4786,-3.5998,0.0,-3.8945,-3.9559,0.0,-4.0651,-4.1624,-4.1624,-4.0127,-3.9364,0.0,-3.9911,0.0,0.0,-4.1737,-4.098,-3.9993,-3.8856,-3.8542,0.0,-3.6211,0.0,-3.3051,-3.32,-3.133,-3.0432,-3.0447,-3.0806,-3.0956,-3.1122,-3.4218,-3.6685,-3.8531,-3.8065,0.0,0.0,-4.0421,-4.0991,-4.1925,-4.2697,-4.2596,-4.201,-4.1122,-4.0831,-4.0711,-4.0053,-3.9843,-3.9783,-3.9514,-3.9388,-3.9388,-3.9388,-3.9125,-3.8841,-3.8841,-3.7793,-3.6671,-3.6267,-3.5474,-3.4592,0.0,0.0,0.0,0.0,0.0,0.0,0.0,0.0,0.0,0.0,0.0,0.0,0.0,0.0,0.0,0.0,0.0,-2.3404,0.0,0.0,0.0,0.0,0.0,0.0,0.0,-3.1997,-3.3836,-3.6027,-3.462,-3.4556,-3.5777,-3.5431,-3.535,-3.5504,-3.5504,-3.5504,-3.5504,-3.5504,-3.5504,-3.5504,-3.5504,-3.5504,-3.5594,-3.6522,-3.733,-3.8202,-4.0146,-4.0876,-4.0876,-3.2019,-3.2213,0.0,0.0,0.0,0.0,0.0,-3.7599,0.0,-4.1085,0.0,-4.116,-4.2171,-4.2895,-4.323,-4.305,0.0,-4.0008,-4.2841,-3.8811,-3.8138,-4.2351,-4.0846,-3.9852,-3.9798,-3.9215,-3.8871,0.0,-3.5489,-3.4487,-3.5564,-3.2796,-3.1511,-3.1511,-3.1511,-3.175,0.0,-3.4457,-3.6582,-3.8527,-3.8616,-3.9694,-4.122,-4.0905,-4.1489,-4.2605,-4.3135,-4.2596,-4.1624,-4.1572,-4.1542,-4.1384,-4.0726,-4.0531,-4.0397,-3.9738,-3.9544,-3.9493,-3.9403,-3.9388,-3.9388,-3.9388,-3.8975,-3.8497,-3.8407,-3.7524,-3.6686,-3.6522,-3.6028,0.0,0.0,0.0,0.0,0.0,0.0,0.0,0.0,0.0,0.0,0.0,0.0,0.0,0.0,0.0,0.0,0.0,0.0,0.0,0.0,0.0,0.0,0.0,-3.0154,0.0,-3.3754,0.0,-3.2609,-3.4793,-3.3925,-3.4203,-3.5504,-3.5504,-3.5504,-3.5504,-3.5504,-3.5504,-3.5504,-3.5504,-3.5549,-3.5744,-3.6941,-3.7464,-3.7689,-3.896,-3.9388,-3.9388,-3.341,-3.3245,0.0,0.0,0.0,-3.7345,-3.9394,-4.0763,-4.1497,-4.1384,-4.2222,-4.2491,-4.1639,-4.2611,-4.2895,-4.1818,-4.119,0.0,0.0,0.0,0.0,-4.3075,-4.2781,-4.2387,-4.1901,-4.1767,-4.1437,0.0,-3.7569,-3.6073,-3.6237,-3.3005,-3.1511,-3.1511,-3.1511,0.0,-3.5579,-3.4968,0.0,-3.929,-3.9828,-4.0262,-4.0741,-4.2252,-4.2931,-4.314,-4.3245,-4.314,-4.2871,-4.241,-4.2231,-4.2111,-4.1452,-4.1205,-4.107,-4.0427,-4.0232,-4.0113,-3.9574,-3.9388,-3.9388,-3.9388,-3.9334,-3.9095,-3.8527,-3.8212,-3.7764,-3.6701,-3.6402,-3.6073,-3.5295,0.0,0.0,0.0,0.0,0.0,0.0,0.0,0.0,0.0,0.0,0.0,0.0,0.0,0.0,0.0,0.0,0.0,0.0,0.0,0.0,0.0,0.0,0.0,0.0,0.0,0.0,-3.5339,-3.4085,-3.4203,-3.5504,-3.5504,-3.5504,-3.5504,-3.5504,-3.5504,-3.5504,-3.5504,-3.5833,-3.6387,-3.712,-3.7749,-3.8317,-3.9125,-3.9388,-3.9388,-3.4666,0.0,0.0,0.0,0.0,0.0,0.0,-4.1579,0.0,-4.2432,-4.2901,-4.305,-4.2462,-4.2916,-4.3035,-4.2447,-4.1773,-4.1669,-4.2342,-4.1758,-4.1968,-4.323,-4.329,0.0,-4.1916,-4.2231,-4.1916,-4.0876,-3.8242,-3.6971,-3.6881,-3.3558,-3.2019,-3.2049,-3.2766,-3.4143,0.0,0.0,0.0,-4.0023,-4.101,-4.1624,-4.2028,-4.2931,-4.329,-4.329,-4.329,-4.329,-4.3245,-4.297,-4.2865,-4.2761,-4.2141,-4.1931,-4.1796,-4.11,-4.0666,-4.0337,-4.0023,-3.9679,-3.9388,-3.9388,-3.9388,-3.9334,-3.899,-3.8646,-3.8212,-3.7599,-3.6956,-3.6073,-3.4711,-3.314,0.0,0.0,0.0,0.0,0.0,0.0,0.0,0.0,0.0,0.0,0.0,0.0,0.0,0.0,0.0,0.0,0.0,0.0,0.0,0.0,0.0,0.0,0.0,0.0,0.0,-3.4457,-3.3799,-3.4203,-3.5504,-3.5504,-3.5504,-3.5504,-3.5504,-3.5504,-3.5534,-3.5878,-3.6207,-3.6582,-3.7539,-3.8108,-3.8467,-3.917,-3.9388,-3.9388,0.0,-3.5893,0.0,0.0,-3.7868,0.0,-4.0121,-4.1773,-4.2976,-4.326,-4.329,-4.329,-4.329,-4.329,-4.3185,-4.2901,-4.2237,-4.1998,-4.2423,-4.2058,-4.2132,-4.2841,-4.314,-4.2811,-4.1818,-4.2312,-4.2058,0.0,-3.902,-3.7689,0.0,-3.4352,-3.3155,0.0,0.0,0.0,0.0,0.0,-4.0172,-4.1115,-4.2147,-4.288,-4.329,-4.329,-4.329,-4.329,-4.329,-4.329,-4.329,-4.329,-4.329,-4.32,-4.2731,-4.2605,-4.247,-4.1826,-4.122,-4.0786,-4.0651,-4.0127,-3.9634,-3.9634,-3.9529,-3.9388,-3.9388,-3.899,-3.8556,-3.8422,-3.7375,-3.6013,-3.4427,-3.3784,0.0,0.0,0.0,0.0,0.0,0.0,0.0,0.0,0.0,0.0,0.0,0.0,0.0,0.0,0.0,0.0,0.0,0.0,0.0,0.0,0.0,0.0,-3.1271,0.0,-3.2303,0.0,-3.3634,-3.4203,-3.5504,-3.5504,-3.5504,-3.5504,-3.5504,-3.5579,-3.5759,-3.6417,-3.6776,-3.6985,-3.8003,-3.8482,-3.8676,-3.9215,-3.9388,-3.9388,0.0,0.0,0.0,0.0,0.0,0.0,0.0,-4.2162,-4.1983,-4.314,-4.329,-4.329,-4.329,-4.329,-4.2851,-4.1669,-4.2536,-4.2154,-3.9896,-4.1855,-4.2671,-4.1609,-4.2701,-4.323,-4.311,-4.317,-4.314,0.0,0.0,-3.8601,0.0,0.0,0.0,0.0,0.0,0.0,0.0,-4.0202,-4.1369,-4.3021,-4.3155,-4.3245,-4.329,-4.329,-4.329,-4.329,-4.329,-4.329,-4.329,-4.329,-4.329,-4.329,-4.3215,-4.32,-4.312,-4.25,-4.2261,-4.2081,-4.1444,-4.0816,-4.0307,-4.0307,-3.9858,-3.9388,-3.9388,-3.9328,-3.914,-3.8527,-3.7375,-3.6432,-3.6237,-3.4726,-3.3036,0.0,0.0,0.0,0.0,0.0,0.0,0.0,0.0,0.0,0.0,0.0,0.0,0.0,0.0,0.0,0.0,0.0,0.0,0.0,0.0,-2.8068,-3.0567,-3.1197,0.0,-3.531,-3.4083,-3.4203,-3.5504,-3.5504,-3.5504,-3.5504,-3.5504,-3.5848,-3.6447,-3.706,-3.7674,-3.8227,-3.8347,-3.8766,-3.9334,-3.9394,-3.9388,-3.9388,0.0,0.0,0.0,0.0,0.0,0.0,0.0,-4.2387,-4.2731,-4.323,-4.329,-4.329,-4.329,-4.329,-4.308,-4.2596,-4.2991,-4.2841,-4.1795,-4.2707,-4.3065,-4.2566,-4.3021,-4.329,-4.329,-4.329,-4.329,0.0,0.0,0.0,0.0,0.0,0.0,0.0,0.0,-3.9873,-4.104,-4.1833,-4.2572,-4.329,-4.329,-4.329,-4.329,-4.329,-4.329,-4.329,-4.329,-4.329,-4.329,-4.329,-4.329,-4.329,-4.329,-4.329,-4.3245,-4.3015,-4.2671,-4.2336,-4.2081,-4.1527,-4.0891,-4.0502,-4.0202,-3.9903,-3.9514,-3.9388,-3.9298,-3.9065,-3.8272,-3.7389,-3.6626,-3.5833,-3.4726,0.0,0.0,0.0,0.0,0.0,0.0,0.0,0.0,0.0,0.0,0.0,0.0,0.0,0.0,0.0,0.0,0.0,0.0,-2.7709,0.0,-3.0417,-3.3484,-3.2976,-3.3649,-3.5489,-3.4966,-3.4981,-3.5504,-3.5504,-3.5729,-3.6118,-3.6492,-3.6791,-3.709,-3.7734,-3.8153,-3.8437,-3.8841,-3.917,-3.9388,-3.9388,-3.9388,-3.9388,-4.1953,0.0,-4.0539,0.0,-4.1339,-4.1818,-4.1482,-4.2491,-4.3155,-4.2806,-4.305,-4.329,-4.329,-4.329,-4.314,-4.2751,-4.3065,-4.2961,-4.2183,-4.2871,-4.3125,-4.2776,-4.308,0.0,-4.329,-4.329,-4.329,-4.329,-4.1436,0.0,0.0,0.0,0.0,0.0,-4.0666,-4.1519,-4.2013,-4.2901,-4.329,-4.329,-4.329,-4.329,-4.329,-4.329,-4.329,-4.329,-4.329,-4.329,-4.329,-4.329,-4.329,-4.329,-4.329,-4.329,-4.329,-4.329,-4.3015,-4.2641,-4.2641,-4.2201,-4.1587,-4.11,-4.0681,-4.0277,-3.9813,-3.9559,-3.9388,-3.9388,-3.8871,-3.8123,-3.721,-3.6731,-3.5893,0.0,0.0,0.0,0.0,0.0,0.0,0.0,-2.9071,-2.8483,-3.0703,0.0,0.0,0.0,0.0,0.0,0.0,0.0,0.0,0.0,0.0,0.0,0.0,0.0,-3.3784,-3.5504,-3.5504,-3.5609,-3.5804,-3.5983,-3.6327,-3.6791,-3.7419,-3.7704,-3.7749,-3.8422,-3.8691,-3.8736,-3.923,-3.9388,-3.9388,-3.9388,-3.9388,-3.9388,-4.3275,-4.326,-4.3245,-4.3245,-4.326,-4.2826,-4.1579,-4.2491,-4.2826,-4.1579,-4.2536,-4.329,-4.329,-4.329,-4.2766,-4.1519,-4.2581,-4.2183,-3.9634,-4.1855,-4.2761,0.0,0.0,-4.329,-4.329,-4.329,-4.329,-4.329,0.0,0.0,-3.8407,0.0,0.0,-4.1399,-4.2716,-4.326,-4.3275,-4.329,-4.329,-4.329,-4.329,-4.329,-4.329,-4.329,-4.329,-4.329,-4.329,-4.329,-4.329,-4.329,-4.329,-4.329,-4.329,-4.329,-4.329,-4.329,-4.329,-4.329,-4.329,-4.2851,-4.2396,-4.2381,-4.1392,-4.0397,-4.0382,-3.9888,-3.9388,-3.9388,-3.8871,-3.8392,-3.8362,-3.733,-3.6076,-3.4713,0.0,0.0,0.0,0.0,0.0,0.0,-2.8798,-2.8124,-2.9502,0.0,0.0,0.0,0.0,0.0,0.0,0.0,0.0,-2.6527,-2.6004,0.0,-2.9651,-3.0883,-3.2856,-3.5504,-3.5504,-3.5848,-3.6492,-3.7105,-3.7389,-3.7434,-3.8093,-3.8377,-3.8437,-3.9125,-3.9373,-3.9373,-3.9388,-3.9388,-3.9388,-3.9388,-3.9388,-3.9388,-4.0846,-4.2064,-4.3006,-4.2162,-4.2731,-4.3155,-4.2776,-4.3449,-4.3853,-4.3434,-4.4137,-4.4661,-4.4661,-4.3828,-4.3125,0.0,-4.2282,-4.2028,0.0,-4.2028,-4.2222,-4.2686,-4.2252,-4.1998,-4.1998,-4.1998,-4.1998,-4.1998,0.0,0.0,0.0,-4.0464,-4.125,-4.2731,-4.311,-4.329,-4.329,-4.329,-4.329,-4.329,-4.329,-4.329,-4.329,-4.329,-4.329,-4.329,-4.329,-4.329,-4.329,-4.329,-4.329,-4.329,-4.329,-4.329,-4.329,-4.329,-4.329,-4.329,-4.329,-4.314,-4.291,-4.2515,-4.2081,-4.1542,-4.0606,-3.9888,-3.9388,-3.9388,-3.9245,-3.8945,-3.8482,-3.8063,-3.706,-3.4863,0.0,0.0,0.0,0.0,0.0,0.0,-3.0148,-2.9666,0.0,-2.9789,0.0,0.0,0.0,0.0,0.0,0.0,0.0,0.0,-3.0866,0.0,-3.3604,-3.3125,-3.3754,-3.5504,-3.5953,-3.6507,-3.7135,-3.7778,-3.8078,-3.8123,-3.8796,-3.9095,-3.911,-3.9334,-3.9388,-3.9388,-3.9388,-3.9388,-3.9388,-3.9388,-3.9388,-3.9388,-4.1017,-4.2168,-4.311,-4.2581,-4.3165,-4.3574,-4.3334,-4.4067,-4.4511,-4.4003,-4.4736,-4.5289,-4.5289,-4.4556,0.0,-4.4062,-4.3314,-4.309,-4.3618,-4.294,-4.2731,-4.3275,-4.2551,-4.2117,-4.2117,0.0,0.0,-4.2117,-4.2117,-4.2117,-4.2117,-4.2117,-4.2551,-4.329,-4.329,-4.329,-4.329,-4.329,-4.329,-4.329,-4.329,-4.329,-4.329,-4.329,-4.329,-4.329,-4.329,-4.329,-4.329,-4.329,-4.329,-4.329,-4.329,-4.329,-4.329,-4.329,-4.329,-4.329,-4.329,-4.329,-4.32,-4.2821,-4.259,-4.2051,-4.0696,-4.0083,-3.9709,-3.9433,-3.9388,-3.929,-3.8856,-3.8556,-3.7853,-3.6241,0.0,-3.6312,0.0,0.0,0.0,0.0,0.0,0.0,0.0,-3.1779,0.0,0.0,0.0,0.0,0.0,0.0,0.0,-3.1345,-3.2033,0.0,-3.4367,-3.4038,-3.4547,-3.5893,-3.6776,-3.7404,-3.7808,-3.8467,-3.8781,-3.8796,-3.923,-3.9388,-3.9388,-3.9388,-3.9388,-3.9388,-3.9388,-3.9388,-3.9388,-3.9388,-3.9388,-3.9388,-4.317,-4.3305,0.0,0.0,-4.4332,0.0,-4.3529,-4.4541,-4.493,-4.3663,-4.4646,-4.5439,-4.5439,-4.5439,-4.5439,-4.5439,0.0,0.0,0.0,-4.4302,-4.4003,-4.3379,-4.3275,0.0,-4.3155,-4.3155,-4.32,-4.329,-4.329,-4.329,-4.329,-4.329,-4.329,-4.329,-4.329,-4.329,-4.329,-4.329,-4.329,-4.329,-4.329,-4.329,-4.329,-4.329,-4.329,-4.329,-4.329,-4.329,-4.329,-4.329,-4.329,-4.329,-4.329,-4.329,-4.329,-4.329,-4.329,-4.329,-4.329,-4.329,-4.329,-4.329,-4.2851,-4.2081,-4.0816,-4.0472,-4.0232,-3.9619,-3.9418,-3.9388,-3.9388,-3.8901,-3.8437,-3.8407,-3.7883,-3.721,-3.6447,0.0,0.0,0.0,0.0,0.0,0.0,-3.3559,-3.332,0.0,0.0,0.0,0.0,0.0,0.0,-2.9966,-3.0597,-3.1524,-3.2781,-3.4053,-3.5357,-3.6626,-3.7823,-3.8407,-3.8482,-3.9125,-3.9388,-3.9388,-3.9388,-3.9388,-3.9388,-3.9388,-3.9388,-3.9388,-3.9388,-3.9388,-3.9388,-3.9388,-3.9388,-3.9388,0.0,0.0,-4.4571,-4.3748,-4.4421,-4.5005,-4.4855,-4.5544,-4.5935,-4.5607,-4.6322,-4.683,-4.683,-4.683,-4.683,-4.683,-4.496,-4.4152,-4.5005,-4.4152,-4.3748,-4.4062,-4.312,-4.2357,-4.1848,-4.1848,-4.2342,-4.329,-4.329,-4.329,-4.329,-4.329,-4.329,-4.329,-4.329,-4.329,-4.329,-4.329,-4.329,-4.329,-4.329,-4.329,-4.329,-4.329,-4.329,-4.329,-4.329,-4.329,-4.329,-4.329,-4.329,-4.329,-4.329,-4.329,-4.329,-4.329,-4.329,-4.329,-4.329,-4.329,-4.329,-4.329,-4.2851,-4.2321,-4.2006,-4.1115,-4.0352,-4.0202,-3.9768,-3.9388,-3.9388,-3.929,-3.9005,-3.8467,-3.8257,-3.7404,-3.5282,0.0,0.0,0.0,-3.2153,-3.2781,-3.2751,-3.4143,-3.4322,0.0,0.0,0.0,0.0,0.0,-3.2542,-3.4053,-3.4741,-3.522,-3.5549,-3.6327,-3.712,-3.7943,-3.8242,-3.8661,-3.9185,-3.9349,-3.9388,-3.9388,-3.9388,-3.9388,-3.9388,-3.9388,-3.9388,-3.9388,-3.9388,-3.9388,-3.9388,-3.9388,-3.9388,-3.9388,-4.324,-4.4317,-4.517,-4.4796,-4.5304,-4.5858,-4.6172,-4.6531,-4.677,-4.677,-4.7085,-4.7309,-4.7309,-4.7309,-4.7309,-4.7309,-4.5978,-4.5319,-4.5738,-4.5125,-4.4751,-4.4766,-4.3793,-4.309,-4.2731,-4.2432,-4.2626,-4.329,-4.329,-4.329,-4.329,-4.329,-4.329,-4.329,-4.329,-4.329,-4.329,-4.329,-4.329,-4.329,-4.329,-4.329,-4.329,-4.329,-4.329,-4.329,-4.329,-4.329,-4.329,-4.329,-4.329,-4.329,-4.329,-4.329,-4.329,-4.329,-4.329,-4.329,-4.329,-4.329,-4.329,-4.329,-4.306,-4.2731,-4.247,-4.1856,-4.113,-4.0531,-4.0113,-3.9768,-3.9448,-3.9388,-3.929,-3.8916,-3.8108,-3.6911,-3.519,-3.4158,0.0,-3.2422,-3.3275,-3.4158,-3.4696,-3.5744,-3.5923,-3.4831,0.0,0.0,-3.4726,-3.4532,-3.4891,-3.5923,-3.6582,-3.6911,-3.6911,-3.7539,-3.8197,-3.8856,-3.8856,-3.905,-3.9388,-3.9388,-3.9388,-3.9388,-3.9388,-3.9388,-3.9388,-3.9388,-3.9388,-3.9388,-3.9388,-3.9388,-3.9388,-3.9388,-3.9388,-3.9388,-4.5574,-4.5603,-4.5783,-4.6367,-4.6429,-4.6651,-4.7219,-4.7309,-4.7309,-4.7309,-4.7309,-4.7309,-4.7309,-4.7309,-4.7309,-4.7309,-4.7309,-4.707,-4.6516,-4.6429,-4.6172,-4.5484,-4.4915,-4.4571,-4.4466,-4.3783,-4.3439,-4.3439,-4.3349,-4.329,-4.329,-4.329,-4.329,-4.329,-4.329,-4.329,-4.329,-4.329,-4.329,-4.329,-4.329,-4.329,-4.329,-4.329,-4.329,-4.329,-4.329,-4.329,-4.329,-4.329,-4.329,-4.329,-4.329,-4.329,-4.329,-4.329,-4.329,-4.329,-4.329,-4.329,-4.329,-4.329,-4.329,-4.3155,-4.2626,-4.247,-4.2081,-4.0935,-4.0621,-4.0352,-3.9694,-3.9574,-3.9439,-3.905,-3.7659,-3.6297,-3.5325,0.0,-3.3435,-3.4517,-3.478,-3.5538,-3.7221,-3.7267,-3.7233,-3.737,-3.6268,0.0,0.0,-3.6477,-3.6193,-3.6761,-3.7285,-3.7599,-3.7719,-3.8272,-3.8841,-3.9388,-3.9388,-3.9388,-3.9388,-3.9388,-3.9388,-3.9388,-3.9388,-3.9388,-3.9388,-3.9388,-3.9388,-3.9388,-3.9388,-3.9301,-3.9177,-3.9337,-3.9301,-3.9177,-4.689,-4.6995,-4.7025,-4.713,-4.716,-4.7189,-4.7294,-4.7309,-4.7309,-4.7309,-4.7309,-4.7309,-4.7309,-4.7309,-4.7309,-4.7309,-4.7309,-4.7264,-4.716,-4.716,-4.686,-4.6187,-4.6067,-4.5738,-4.5155,-4.4496,-4.4127,-4.4127,-4.3559,-4.329,-4.329,-4.329,-4.329,-4.329,-4.329,-4.329,-4.329,-4.329,-4.329,-4.329,-4.329,-4.329,-4.329,-4.329,-4.329,-4.329,-4.329,-4.329,-4.329,-4.329,-4.329,-4.329,-4.329,-4.329,-4.329,-4.329,-4.329,-4.329,-4.329,-4.329,-4.329,-4.329,-4.329,-4.3275,-4.317,-4.2761,-4.2336,-4.2141,-4.1647,-4.1025,-4.0367,-4.0247,-3.9514,-3.73,-3.712,-3.6447,0.0,0.0,-3.537,-3.5347,-3.6001,-3.6704,-3.7331,-3.6646,-3.6505,-3.7336,-3.6435,-3.6301,-3.7321,-3.7749,-3.7988,-3.8093,-3.8182,-3.8512,-3.9059,-3.9215,-3.932,-3.9388,-3.9388,-3.9388,-3.9388,-3.9388,-3.9388,-3.9388,-3.9388,-3.9388,-3.9388,-3.9388,-3.9388,-3.9388,-3.9388,-3.887,-3.8144,-3.9068,-3.8819,-3.8182,-4.7249,-4.7309,-4.7309,-4.7309,-4.7309,-4.7309,-4.7309,-4.7309,-4.7309,-4.7309,-4.7309,-4.7309,-4.7309,-4.7309,-4.7309,-4.7309,-4.7309,-4.7309,-4.7309,-4.7309,-4.7174,-4.686,-4.6516,-4.6007,-4.5304,-4.5005,-4.484,-4.484,-4.4541,-4.4212,-4.3828,-4.3828,-4.3633,-4.329,-4.329,-4.329,-4.329,-4.329,-4.329,-4.329,-4.329,-4.329,-4.329,-4.329,-4.329,-4.329,-4.329,-4.329,-4.329,-4.329,-4.329,-4.329,-4.329,-4.329,-4.329,-4.329,-4.329,-4.329,-4.329,-4.329,-4.329,-4.329,-4.329,-4.329,-4.329,-4.2623,-4.2044,-4.2339,-4.1646,-4.0945,-4.0927,-4.018,-3.9155,-3.793,-3.6324,0.0,0.0,-3.4877,-3.5532,-3.5989,-3.6812,-3.7652,-3.8406,-3.7543,-3.7346,-3.8411,-3.8041,-3.7739,-3.7637,-3.7916,-3.8077,-3.8077,-3.8629,-3.9095,-3.9388,-3.9388,-3.9388,-3.9388,-3.9388,-3.9388,-3.9388,-3.9388,-3.9388,-3.9373,-3.8782,-3.8546,-3.8494,-3.789,-3.7686,-3.7724,-3.8294,-3.7866,-3.706,-3.8144,-3.7866,-3.7021,-4.7309,-4.7309,-4.7309,-4.7309,-4.7309,-4.7309,-4.7309,-4.7309,-4.7309,-4.7309,-4.7309,-4.7309,-4.7309,-4.7309,-4.7309,-4.7309,-4.7309,-4.7309,-4.7309,-4.7309,-4.7309,-4.7309,-4.683,-4.6307,-4.5783,-4.5603,-4.5529,-4.5529,-4.5379,-4.5035,-4.4541,-4.4541,-4.4272,-4.3738,-4.3589,-4.3529,-4.3514,-4.3364,-4.329,-4.329,-4.329,-4.329,-4.329,-4.329,-4.329,-4.329,-4.329,-4.329,-4.329,-4.329,-4.329,-4.329,-4.329,-4.329,-4.329,-4.329,-4.3115,-4.29,-4.29,-4.29,-4.286,-4.2563,-4.2725,-4.286,-4.2563,-4.2029,-4.1623,-4.1796,-4.11,-4.0517,-4.0764,-3.9739,-3.8603,-3.798,0.0,0.0,0.0,-3.4532,-3.4968,-3.6611,-3.695,-3.7601,-3.8907,-3.7829,-3.751,-3.8583,-3.842,-3.8144,-3.7829,-3.7791,-3.7791,-3.7791,-3.8819,-3.9388,-3.9388,-3.9388,-3.9388,-3.9388,-3.9141,-3.9017,-3.9017,-3.8767,-3.8657,-3.862,-3.7776,-3.742,-3.7343,-3.6526,-3.6198,-3.6277,-3.7098,-3.6774,-3.5974,-3.7021,-3.6749,-3.5894,-4.7309,-4.7309,-4.7309,-4.7309,-4.7309,-4.7309,-4.7309,-4.7309,-4.7309,-4.7309,-4.7309,-4.7309,-4.7309,-4.7309,-4.7309,-4.7309,-4.7309,-4.7309,-4.7309,-4.7309,-4.7309,-4.7309,-4.7249,-4.7204,-4.716,-4.6561,-4.6247,-4.6247,-4.5603,-4.5274,-4.5229,-4.5229,-4.52,-4.5125,-4.4511,-4.4242,-4.4212,-4.3544,-4.329,-4.329,-4.329,-4.329,-4.329,-4.329,-4.329,-4.329,-4.329,-4.329,-4.329,-4.329,-4.329,-4.329,-4.329,-4.329,-4.329,-4.329,-4.2548,-4.1726,-4.1726,-4.1726,-4.1462,-4.0404,-4.0958,-4.1462,-4.0375,-4.0916,-4.1322,-4.0305,-4.0003,-3.9766,-3.9171,-3.8976,-3.8076,-3.5576,0.0,0.0,-3.4242,-3.3425,-3.4074,-3.7333,-3.6052,-3.5735,-3.7715,-3.6094,-3.5332,-3.6369,-3.5561,-3.5855,-3.7715,-3.7791,-3.7791,-3.7791,-3.8819,-3.9388,-3.9388,-3.9388,-3.9388,-3.9388,-3.8383,-3.7919,-3.7866,-3.6891,-3.6448,-3.6448,-3.6369,-3.633,-3.633,-3.6237,-3.6198,-3.6198,-3.629,-3.5708,-3.4938,-3.5934,-3.5668,-3.4938,-4.7309,-4.7309,-4.7309,-4.7309,-4.7309,-4.7309,-4.7309,-4.7309,-4.7309,-4.7309,-4.7309,-4.7309,-4.7309,-4.7309,-4.7309,-4.7309,-4.7309,-4.7309,-4.7309,-4.7309,-4.7309,-4.7309,-4.7309,-4.7309,-4.7309,-4.7055,-4.6935,-4.6935,-4.6681,-4.6337,-4.5933,-4.5933,-4.5708,-4.5289,-4.5035,-4.493,-4.49,-4.4661,-4.4317,-4.3902,-4.3902,-4.3663,-4.329,-4.329,-4.329,-4.329,-4.329,-4.329,-4.329,-4.329,-4.329,-4.317,-4.2467,-4.2249,-4.2111,-4.1393,-4.0887,-4.039,-3.964,-4.0002,-4.0447,-4.0029,-4.0246,-4.0447,-3.9986,-3.9653,-3.9508,-3.9842,-3.9316,-3.8938,-3.9452,-3.8619,-3.7588,-3.6561,0.0,-3.4999,-3.5419,-3.5156,-3.5556,-3.7151,-3.6076,-3.5613,-3.6685,-3.5534,-3.5129,-3.6119,-3.5854,-3.5708,-3.5855,-3.5895,-3.5895,-3.5895,-3.6866,-3.7405,-3.7405,-3.7405,-3.7405,-3.7405,-3.7007,-3.6813,-3.6813,-3.6408,-3.6198,-3.6172,-3.5547,-3.5278,-3.5197,-3.4568,-3.429,-3.4332,-3.5007,-3.4622,-3.3827,-3.4897,-3.4622,-3.3755,-4.7309,-4.7309,-4.7309,-4.7309,-4.7309,-4.7309,-4.7309,-4.7309,-4.7309,-4.7309,-4.7309,-4.7309,-4.7309,-4.7309,-4.7309,-4.7309,-4.7309,-4.7309,-4.7309,-4.7309,-4.7309,-4.7309,-4.7309,-4.7309,-4.7309,-4.7309,-4.7309,-4.7309,-4.7309,-4.707,-4.6636,-4.6636,-4.6381,-4.5918,-4.5708,-4.5618,-4.5603,-4.5394,-4.5035,-4.4616,-4.4616,-4.4227,-4.3549,-4.3212,-4.2942,-4.2725,-4.2345,-4.2222,-4.2304,-4.2644,-4.2765,-4.2629,-4.185,-4.1337,-4.0916,-4.0116,-3.9623,-3.9139,-3.8334,-3.8424,-3.8796,-3.8796,-3.9064,-3.9227,-3.8885,-3.8437,-3.8243,-3.8707,-3.8121,-3.7815,-3.8662,-3.7804,-3.7001,-3.7001,-3.5851,-3.5191,-3.5947,-3.5924,-3.6074,-3.6794,-3.5913,-3.5512,-3.6185,-3.5317,-3.5008,-3.5664,-3.5733,-3.5581,-3.5205,-3.5205,-3.5205,-3.5205,-3.554,-3.5733,-3.5733,-3.6032,-3.6198,-3.6198,-3.5894,-3.5734,-3.5694,-3.5386,-3.5224,-3.5197,-3.4498,-3.4191,-3.415,-3.3398,-3.3124,-3.3154,-3.3911,-3.3755,-3.3197,-3.3911,-3.3713,-3.3124,-4.7309,-4.7309,-4.7309,-4.7309,-4.7309,-4.7309,-4.7309,-4.7309,-4.7309,-4.7309,-4.7309,-4.7309,-4.7309,-4.7309,-4.7309,-4.7309,-4.7309,-4.7309,-4.7309,-4.7309,-4.7309,-4.7309,-4.7309,-4.7309,-4.7309,-4.7309,-4.7309,-4.7309,-4.7309,-4.7309,-4.7309,-4.7309,-4.7309,-4.7279,-4.6621,-4.6294,-4.6249,-4.5603,-4.5304,-4.5304,-4.5304,-4.49,-4.418,-4.3031,-4.2191,-4.142,-4.0332,-3.9899,-4.0073,-4.1211,-4.1587,-4.1601,-4.1587,-4.0788,-3.9855,-3.9855,-3.9006,-3.8107,-3.8107,-3.7289,-3.6405,-3.6405,-3.7243,-3.7802,-3.6675,-3.7276,-3.7756,-3.6628,-3.6405,-3.6405,-3.6405,-3.6405,-3.6405,-3.6405,-3.5906,-3.5508,-3.5508,-3.5031,-3.5105,-3.6188,-3.5347,-3.5105,-3.6175,-3.5302,-3.468,-3.468,-3.468,-3.5181,-3.6218,-3.6305,-3.6305,-3.6305,-3.5271,-3.468,-3.468,-3.5704,-3.6172,-3.6172,-3.5183,-3.4677,-3.4677,-3.3611,-3.3093,-3.3093,-3.3093,-3.3093,-3.3093,-3.3093,-3.3093,-3.3093,-3.3124,-3.3124,-3.3124,-3.3124,-3.3124,-3.3124,-4.7309,-4.7309,-4.7309,-4.7309,-4.7309,-4.7309,-4.7309,-4.7309,-4.7309,-4.7309,-4.7309,-4.7309,-4.7309,-4.7309,-4.7309,-4.7309,-4.7309,-4.7309,-4.7309,-4.7309,-4.7309,-4.7309,-4.7309,-4.7309,-4.7309,-4.7309,-4.7309,-4.7309,-4.7309,-4.7309,-4.7309,-4.7309,-4.7309,-4.7294,-4.71,-4.701,-4.6995,-4.68,-4.6441,-4.6022,-4.6022,-4.5054,-4.3644,-4.3272,-4.2265,-4.0918,-4.0581,-4.0244,-3.9942,-4.0275,-4.0404,-4.0275,-3.942,-3.8379,-3.7428,-3.7428,-3.7209,-3.6883,-3.6883,-3.6675,-3.6405,-3.6405,-3.6675,-3.6803,-3.6499,-3.6675,-3.6803,-3.6452,-3.6405,-3.6405,-3.6405,-3.6405,-3.6405,-3.6405,-3.6267,-3.6119,-3.6119,-3.5968,-3.5856,-3.5773,-3.5474,-3.5231,-3.5175,-3.4893,-3.468,-3.468,-3.468,-3.4848,-3.5181,-3.5181,-3.5181,-3.5181,-3.4893,-3.468,-3.468,-3.5014,-3.5171,-3.5115,-3.4835,-3.4685,-3.4685,-3.4357,-3.4223,-3.4223,-3.4223,-3.4223,-3.4223,-3.4223,-3.4223,-3.4198,-3.3809,-3.3658,-3.3608,-3.3262,-3.3124,-3.3124,-4.7309,-4.7309,-4.7309,-4.7309,-4.7309,-4.7309,-4.7309,-4.7309,-4.7399,-4.7653,-4.7698,-4.7803,-4.8057,-4.8072,-4.7982,-4.7713,-4.7459,-4.7309,-4.7309,-4.7309,-4.7062,-4.6594,-4.6535,-4.6785,-4.7309,-4.7309,-4.7309,-4.7309,-4.7309,-4.7309,-4.7309,-4.6785,-4.6535,-4.6535,-4.6018,-4.5779,-4.5824,-4.6344,-4.6035,-4.5257,-4.5727,-4.4777,-4.2992,-4.2527,-4.1516,-4.0267,-3.9807,-3.9408,-3.9181,-3.9438,-3.9373,-3.905,-3.8334,-3.7322,-3.6405,-3.6405,-3.6405,-3.6405,-3.6405,-3.6405,-3.6405,-3.6405,-3.6405,-3.6405,-3.6405,-3.6405,-3.6405,-3.6405,-3.6405,-3.6405,-3.6405,-3.6405,-3.6405,-3.6405,-3.6405,-3.6405,-3.6405,-3.6405,-3.6279,-3.5906,-3.5868,-3.5742,-3.5403,-3.5366,-3.5366,-3.5366,-3.5366,-3.5366,-3.5366,-3.5366,-3.5366,-3.5366,-3.5366,-3.5366,-3.5366,-3.5366,-3.5152,-3.468,-3.468,-3.468,-3.468,-3.468,-3.468,-3.468,-3.468,-3.468,-3.468,-3.468,-3.468,-3.4688,-3.4349,-3.4223,-3.4186,-3.3847,-3.3583,-3.3407,-4.7309,-4.7309,-4.7309,-4.7309,-4.7354,-4.7399,-4.7399,-4.7444,-4.7698,-4.8297,-4.8371,-4.8596,-4.9239,-4.9314,-4.906,-4.8416,-4.7818,-4.7459,-4.7399,-4.7399,-4.6785,-4.5448,-4.5403,-4.5869,-4.6931,-4.7062,-4.7121,-4.7121,-4.7251,-4.7309,-4.7266,-4.6107,-4.5494,-4.5358,-4.421,-4.3598,-4.3598,-4.4734,-4.4549,-4.3598,-4.478,-4.4118,-4.2301,-4.1282,-4.0408,-3.9586,-3.8459,-3.8052,-3.8062,-3.8644,-3.847,-3.8083,-3.8083,-3.7359,-3.648,-3.648,-3.6455,-3.6405,-3.6405,-3.6405,-3.6405,-3.6405,-3.6405,-3.6405,-3.6405,-3.6405,-3.6405,-3.6405,-3.6405,-3.6405,-3.6405,-3.6405,-3.6405,-3.6405,-3.6405,-3.6405,-3.6405,-3.6405,-3.6405,-3.6405,-3.6405,-3.6405,-3.6405,-3.6405,-3.6405,-3.6405,-3.6405,-3.6405,-3.6405,-3.6405,-3.6405,-3.6405,-3.6405,-3.6405,-3.6405,-3.6405,-3.5855,-3.4864,-3.4864,-3.4864,-3.4864,-3.4864,-3.4864,-3.4864,-3.4864,-3.4864,-3.4864,-3.4864,-3.4864,-3.4864,-3.4768,-3.4756,-3.4788,-3.4738,-3.4399,-3.3972,-4.7309,-4.7309,-4.7309,-4.7309,-4.7728,-4.8072,-4.8072,-4.8506,-4.894,-4.9075,-4.9105,-4.9149,-4.9299,-4.9314,-4.9254,-4.912,-4.897,-4.8626,-4.8102,-4.8072,-4.7259,-4.5463,-4.5403,-4.507,-4.4349,-4.5298,-4.5824,-4.5824,-4.6829,-4.7309,-4.7309,-4.7019,-4.6358,-4.5403,-4.5115,-4.4442,-4.3504,-4.3787,-4.374,-4.3504,-4.3787,-4.304,-4.1799,-4.1505,-4.045,-3.9068,-3.8781,-3.8391,-3.8039,-3.8146,-3.8117,-3.8015,-3.8015,-3.7579,-3.7059,-3.7059,-3.6744,-3.6405,-3.6405,-3.6405,-3.6405,-3.6405,-3.6405,-3.6405,-3.6405,-3.6405,-3.6405,-3.6405,-3.6405,-3.6405,-3.6405,-3.6405,-3.6405,-3.6405,-3.6405,-3.6405,-3.6405,-3.6405,-3.6405,-3.6405,-3.6405,-3.6405,-3.6405,-3.6405,-3.6405,-3.6405,-3.6405,-3.6405,-3.6405,-3.6405,-3.6405,-3.6405,-3.6405,-3.6405,-3.6405,-3.6405,-3.6292,-3.6053,-3.6053,-3.6053,-3.6053,-3.6053,-3.6053,-3.6053,-3.6053,-3.6053,-3.6053,-3.6053,-3.6053,-3.5956,-3.5483,-3.532,-3.527,-3.4831,-3.465,-3.455,-4.7309,-4.7563,-4.7773,-4.7773,-4.8312,-4.8805,-4.8805,-4.909,-4.9419,-4.9688,-4.9733,-4.9594,-4.9304,-4.924,-4.8858,-4.786,-4.7495,-4.7427,-4.7737,-4.7126,-4.6346,-4.5392,-4.4467,-4.3353,-4.2113,-4.308,-4.3882,-4.4503,-4.5161,-4.5494,-4.5448,-4.4872,-4.421,-4.3551,-4.293,-4.2315,-4.1739,-4.2363,-4.2217,-4.1739,-4.2363,-4.1838,-4.0693,-4.0693,-4.0083,-3.927,-3.927,-3.8894,-3.8417,-3.8417,-3.8228,-3.8002,-3.8002,-3.7814,-3.7575,-3.7575,-3.7374,-3.7149,-3.7149,-3.7008,-3.6807,-3.6807,-3.6606,-3.6405,-3.6405,-3.6405,-3.6405,-3.6405,-3.6405,-3.6405,-3.6405,-3.6405,-3.6405,-3.6405,-3.6405,-3.6405,-3.6405,-3.6405,-3.6405,-3.6405,-3.6405,-3.6405,-3.6405,-3.6405,-3.6405,-3.6405,-3.6405,-3.6405,-3.6405,-3.6405,-3.6405,-3.6405,-3.6405,-3.6405,-3.6405,-3.6405,-3.6405,-3.6405,-3.6405,-3.6405,-3.6405,-3.6405,-3.6405,-3.6405,-3.6405,-3.6405,-3.6405,-3.6405,-3.6405,-3.638,-3.6044,-3.5931,-3.5906,-3.5617,-3.5341,-3.5031,-4.7638,-4.8072,-4.8461,-4.8461,-4.9,-4.9434,-4.9434,-4.9569,-4.9732,-4.9978,-5.0052,-4.9746,-4.8942,-4.8851,-4.8127,-4.639,-4.5742,-4.5908,-4.6942,-4.5895,-4.5161,-4.4965,-4.3402,-4.1931,-4.0651,-4.1131,-4.1993,-4.317,-4.3409,-4.3504,-4.3504,-4.2412,-4.1789,-4.1555,-4.0503,-3.989,-3.9788,-4.0844,-4.0642,-3.9788,-4.0844,-4.0655,-3.9697,-3.9697,-3.9697,-3.9697,-3.9697,-3.9396,-3.9057,-3.9057,-3.8693,-3.8291,-3.8291,-3.8228,-3.8153,-3.8153,-3.809,-3.8002,-3.8002,-3.7676,-3.7324,-3.7324,-3.6973,-3.6681,-3.6681,-3.6543,-3.6405,-3.6405,-3.6405,-3.6405,-3.6405,-3.6405,-3.6405,-3.6405,-3.6405,-3.6405,-3.6405,-3.6405,-3.6405,-3.6405,-3.6405,-3.6405,-3.6405,-3.6405,-3.6405,-3.6405,-3.6405,-3.6405,-3.6405,-3.6405,-3.6405,-3.6405,-3.6405,-3.6405,-3.6405,-3.6405,-3.6405,-3.6405,-3.6405,-3.6405,-3.6405,-3.6405,-3.6405,-3.6405,-3.6405,-3.6405,-3.6405,-3.6405,-3.6405,-3.6405,-3.6405,-3.6405,-3.6405,-3.6405,-3.6069,-3.5571,-4.9045,-4.912,-4.9179,-4.9179,-4.9673,-5.0061,-5.0061,-5.0586,-5.0585,-4.9485,-4.9339,-4.885,-4.7503,-4.735,-4.7272,-4.6984,-4.6901,-4.6639,-4.6264,-4.6086,-4.5247,-4.3539,-4.324,-4.2515,-4.1229,-4.0835,-4.1042,-4.1838,-4.2978,-4.3504,-4.3504,-4.3313,-4.2641,-4.1604,-4.1406,-4.0743,-3.9697,-3.989,-3.9839,-3.9749,-3.989,-3.9839,-3.9697,-3.9697,-3.9697,-3.9697,-3.9697,-3.9647,-3.9584,-3.9584,-3.9534,-3.9471,-3.9471,-3.9132,-3.8806,-3.8806,-3.8391,-3.8002,-3.8002,-3.7952,-3.7889,-3.7889,-3.7839,-3.7789,-3.7789,-3.7048,-3.6405,-3.6405,-3.6405,-3.6405,-3.6405,-3.6405,-3.6405,-3.6405,-3.6405,-3.6405,-3.6405,-3.6405,-3.6405,-3.6405,-3.6405,-3.6405,-3.6405,-3.6405,-3.6405,-3.6405,-3.6405,-3.6405,-3.6405,-3.6405,-3.6405,-3.6405,-3.6405,-3.6405,-3.6405,-3.6405,-3.6405,-3.6405,-3.6405,-3.6405,-3.6405,-3.6405,-3.6405,-3.6405,-3.6405,-3.6405,-3.6405,-3.6405,-3.6405,-3.6405,-3.6405,-3.6405,-3.6405,-3.6405,-3.6367,-3.6292,-4.9314,-4.9553,-4.9808,-4.9808,-5.0346,-5.0749,-5.0749,-5.0988,-5.1011,-5.0397,-4.9664,-4.8638,-4.7248,-4.5714,-4.4779,-4.4779,-4.4779,-4.4983,-4.5444,-4.4758,-4.4294,-4.419,-4.3214,-4.2404,-4.1794,-4.1254,-4.1104,-4.144,-4.1395,-4.1356,-4.1356,-4.1356,-4.1082,-4.0554,-4.0554,-4.0224,-3.9697,-3.9697,-3.9697,-3.9697,-3.9697,-3.9697,-3.9697,-3.9697,-3.9697,-3.9697,-3.9697,-3.9697,-3.9697,-3.9697,-3.9697,-3.9697,-3.9697,-3.9534,-3.9333,-3.9333,-3.9145,-3.8956,-3.8956,-3.8718,-3.8492,-3.8492,-3.8253,-3.8002,-3.8002,-3.7626,-3.7199,-3.6885,-3.6619,-3.6405,-3.6405,-3.6405,-3.6405,-3.6405,-3.6405,-3.6405,-3.6405,-3.6405,-3.6405,-3.6405,-3.6405,-3.6405,-3.6405,-3.6405,-3.6405,-3.6405,-3.6405,-3.6405,-3.6405,-3.6405,-3.6405,-3.6405,-3.6405,-3.6405,-3.6405,-3.6405,-3.6405,-3.6405,-3.6405,-3.6405,-3.6405,-3.6405,-3.6405,-3.6405,-3.6405,-3.6405,-3.6405,-3.6405,-3.6405,-3.6405,-3.6405,-3.6405,-3.6405,-3.6405,-3.6405,-3.6405]},{"header":{"parameterUnit":"m.s-1","parameterCategory":1,"la1":30.6,"la2":28.766,"lo1":-90.7593,"lo2":-88.6598,"dy":0.0162,"dx":0.0183,"nx":116,"ny":114,"refTime":"2024-04-08T18:00:00:Z","depth":0,"parameterNumber":3,"parameterNumberName":"V-component_of_WINDS"},"data":[0.0,0.0,0.0,0.0,0.0,0.0,0.0,0.0,0.0,0.0,0.0,0.0,0.0,0.0,0.0,0.0,0.0,0.0,0.0,0.0,0.0,0.0,0.0,0.0,0.0,0.0,0.0,0.0,0.0,0.0,0.0,0.0,0.0,0.0,0.0,0.0,0.0,0.0,0.0,0.0,0.0,0.0,0.0,0.0,0.0,0.0,0.0,0.0,0.0,0.0,0.0,0.0,0.0,0.0,0.0,0.0,0.0,0.0,0.0,0.0,0.0,0.0,0.0,0.0,0.0,0.0,0.0,0.0,0.0,0.0,0.0,0.0,0.0,0.0,0.0,0.0,0.0,0.0,0.0,0.0,0.0,0.0,0.0,0.0,0.0,0.0,0.0,0.0,0.0,0.0,0.0,0.0,0.0,0.0,0.0,0.0,0.0,0.0,0.0,0.0,0.0,0.0,0.0,0.0,0.0,0.0,0.0,0.0,0.0,0.0,0.0,0.0,0.0,0.0,0.0,0.0,0.0,0.0,0.0,0.0,0.0,0.0,0.0,0.0,0.0,0.0,0.0,0.0,0.0,0.0,0.0,0.0,0.0,0.0,0.0,0.0,0.0,0.0,0.0,0.0,0.0,0.0,0.0,0.0,0.0,0.0,0.0,0.0,0.0,0.0,0.0,0.0,0.0,0.0,0.0,0.0,0.0,0.0,0.0,0.0,0.0,0.0,0.0,0.0,0.0,0.0,0.0,0.0,0.0,0.0,0.0,0.0,0.0,0.0,0.0,0.0,0.0,0.0,0.0,0.0,0.0,0.0,0.0,0.0,0.0,0.0,0.0,0.0,0.0,0.0,0.0,0.0,0.0,0.0,0.0,0.0,0.0,0.0,0.0,0.0,0.0,0.0,0.0,0.0,0.0,0.0,0.0,0.0,0.0,0.0,0.0,0.0,0.0,0.0,0.0,0.0,0.0,0.0,0.0,0.0,0.0,0.0,0.0,0.0,0.0,0.0,0.0,0.0,0.0,0.0,0.0,0.0,0.0,0.0,0.0,0.0,0.0,0.0,0.0,0.0,0.0,0.0,0.0,0.0,0.0,0.0,0.0,0.0,0.0,0.0,0.0,0.0,0.0,0.0,0.0,0.0,0.0,0.0,0.0,0.0,0.0,0.0,0.0,0.0,0.0,0.0,0.0,0.0,0.0,0.0,0.0,0.0,0.0,0.0,0.0,0.0,0.0,0.0,0.0,0.0,0.0,0.0,0.0,0.0,0.0,0.0,0.0,0.0,0.0,0.0,0.0,0.0,0.0,0.0,0.0,0.0,0.0,0.0,0.0,0.0,0.0,0.0,0.0,0.0,0.0,0.0,0.0,0.0,0.0,0.0,0.0,0.0,0.0,0.0,0.0,0.0,0.0,0.0,0.0,0.0,0.0,0.0,0.0,0.0,0.0,0.0,0.0,0.0,0.0,0.0,0.0,0.0,0.0,0.0,0.0,0.0,0.0,0.0,0.0,0.0,0.0,0.0,0.0,0.0,0.0,0.0,0.0,0.0,0.0,0.0,0.0,0.0,0.0,0.0,0.0,0.0,0.0,0.0,0.0,0.0,0.0,0.0,0.0,0.0,0.0,0.0,0.0,0.0,0.0,0.0,0.0,0.0,0.0,0.0,0.0,0.0,0.0,0.0,0.0,0.0,0.0,0.0,0.0,0.0,0.0,0.0,0.0,0.0,0.0,0.0,0.0,0.0,0.0,0.0,0.0,0.0,0.0,0.0,0.0,0.0,0.0,0.0,0.0,0.0,0.0,0.0,0.0,0.0,0.0,0.0,0.0,0.0,0.0,0.0,0.0,0.0,0.0,0.0,0.0,0.0,0.0,0.0,0.0,0.0,0.0,0.0,0.0,0.0,0.0,0.0,0.0,0.0,0.0,0.0,0.0,0.0,0.0,0.0,0.0,0.0,0.0,0.0,0.0,0.0,0.0,0.0,0.0,0.0,0.0,0.0,0.0,0.0,0.0,0.0,0.0,0.0,0.0,0.0,0.0,0.0,0.0,0.0,0.0,0.0,0.0,0.0,0.0,0.0,0.0,0.0,0.0,0.0,0.0,0.0,0.0,0.0,0.0,0.0,0.0,0.0,0.0,0.0,0.0,0.0,0.0,0.0,0.0,0.0,0.0,0.0,0.0,0.0,0.0,0.0,0.0,0.0,0.0,0.0,0.0,0.0,0.0,0.0,0.0,0.0,0.0,0.0,0.0,0.0,0.0,0.0,0.0,0.0,0.0,0.0,0.0,0.0,0.0,0.0,0.0,0.0,0.0,0.0,0.0,0.0,0.0,0.0,0.0,0.0,0.0,0.0,0.0,0.0,0.0,0.0,0.0,0.0,0.0,0.0,0.0,0.0,0.0,0.0,0.0,0.0,0.0,0.0,0.0,0.0,0.0,0.0,0.0,0.0,0.0,0.0,0.0,0.0,0.0,0.0,0.0,0.0,0.0,0.0,0.0,0.0,0.0,0.0,0.0,0.0,0.0,0.0,0.0,0.0,0.0,0.0,0.0,0.0,0.0,0.0,0.0,0.0,0.0,0.0,0.0,0.0,0.0,0.0,0.0,0.0,0.0,0.0,0.0,0.0,0.0,0.0,0.0,0.0,0.0,0.0,0.0,0.0,0.0,0.0,0.0,0.0,0.0,0.0,0.0,0.0,0.0,0.0,0.0,0.0,0.0,0.0,0.0,0.0,0.0,0.0,0.0,0.0,0.0,0.0,0.0,0.0,0.0,0.0,0.0,0.0,0.0,0.0,0.0,0.0,0.0,0.0,0.0,0.0,0.0,0.0,0.0,0.0,0.0,0.0,0.0,0.0,0.0,0.0,0.0,0.0,0.0,0.0,0.0,0.0,0.0,0.0,0.0,0.0,0.0,0.0,0.0,0.0,0.0,0.0,0.0,0.0,0.0,0.0,0.0,0.0,0.0,0.0,0.0,0.0,0.0,0.0,0.0,0.0,0.0,0.0,0.0,0.0,0.0,0.0,0.0,0.0,0.0,0.0,0.0,0.0,0.0,0.0,0.0,0.0,0.0,0.0,0.0,0.0,0.0,0.0,0.0,0.0,0.0,0.0,0.0,0.0,0.0,0.0,0.0,0.0,0.0,0.0,0.0,0.0,0.0,0.0,0.0,0.0,0.0,0.0,0.0,0.0,0.0,0.0,0.0,0.0,0.0,0.0,0.0,0.0,0.0,0.0,0.0,0.0,0.0,0.0,0.0,0.0,0.0,0.0,0.0,0.0,0.0,0.0,0.0,0.0,0.0,0.0,0.0,0.0,0.0,0.0,0.0,0.0,0.0,0.0,0.0,0.0,0.0,0.0,0.0,0.0,0.0,0.0,0.0,0.0,0.0,0.0,0.0,0.0,0.0,0.0,0.0,0.0,0.0,0.0,0.0,0.0,0.0,0.0,0.0,0.0,0.0,0.0,0.0,0.0,0.0,0.0,0.0,0.0,0.0,0.0,0.0,0.0,0.0,0.0,0.0,0.0,0.0,0.0,0.0,0.0,0.0,0.0,0.0,0.0,0.0,0.0,0.0,0.0,0.0,0.0,0.0,0.0,0.0,0.0,0.0,0.0,0.0,0.0,0.0,0.0,0.0,0.0,0.0,0.0,0.0,0.0,0.0,0.0,0.0,0.0,0.0,0.0,0.0,0.0,0.0,0.0,0.0,0.0,0.0,0.0,0.0,0.0,0.0,0.0,0.0,0.0,0.0,0.0,0.0,0.0,0.0,0.0,0.0,0.0,0.0,0.0,0.0,0.0,0.0,0.0,0.0,0.0,0.0,0.0,0.0,0.0,0.0,0.0,0.0,0.0,0.0,0.0,0.0,0.0,0.0,0.0,0.0,0.0,0.0,0.0,0.0,0.0,0.0,0.0,0.0,0.0,0.0,0.0,0.0,0.0,0.0,0.0,0.0,0.0,0.0,0.0,0.0,0.0,0.0,0.0,0.0,0.0,0.0,0.0,0.0,0.0,0.0,0.0,0.0,0.0,0.0,0.0,0.0,0.0,0.0,0.0,0.0,0.0,0.0,0.0,0.0,0.0,0.0,0.0,0.0,0.0,0.0,0.0,0.0,0.0,0.0,0.0,0.0,0.0,0.0,0.0,0.0,0.0,0.0,0.0,0.0,0.0,0.0,0.0,0.0,0.0,0.0,0.0,0.0,0.0,0.0,0.0,0.0,0.0,0.0,0.0,0.0,0.0,0.0,0.0,0.0,0.0,0.0,0.0,0.0,0.0,0.0,0.0,0.0,0.0,0.0,0.0,0.0,0.0,0.0,0.0,0.0,0.0,0.0,0.0,0.0,0.0,0.0,0.0,0.0,0.0,0.0,0.0,0.0,0.0,0.0,0.0,0.0,0.0,0.0,0.0,0.0,0.0,0.0,0.0,0.0,0.0,0.0,0.0,0.0,0.0,0.0,0.0,0.0,0.0,0.0,0.0,0.0,0.0,0.0,0.0,0.0,0.0,0.0,0.0,0.0,0.0,0.0,0.0,0.0,0.0,0.0,0.0,0.0,0.0,0.0,0.0,0.0,0.0,0.0,0.0,0.0,0.0,0.0,0.0,0.0,0.0,0.0,0.0,0.0,0.0,0.0,0.0,0.0,0.0,0.0,0.0,0.0,0.0,0.0,0.0,0.0,0.0,0.0,0.0,0.0,0.0,0.0,0.0,0.0,0.0,0.0,0.0,0.0,0.0,0.0,0.0,0.0,0.0,0.0,0.0,0.0,0.0,0.0,0.0,0.0,0.0,0.0,0.0,0.0,0.0,0.0,0.0,0.0,0.0,0.0,0.0,0.0,0.0,0.0,0.0,0.0,0.0,0.0,0.0,0.0,0.0,0.0,0.0,0.0,0.0,0.0,0.0,0.0,0.0,0.0,0.0,0.0,0.0,0.0,0.0,0.0,0.0,0.0,0.0,0.0,0.0,0.0,0.0,0.0,0.0,0.0,0.0,0.0,0.0,0.0,0.0,0.0,0.0,0.0,0.0,0.0,0.0,0.0,0.0,0.0,0.0,0.0,0.0,0.0,0.0,0.0,0.0,0.0,0.0,0.0,0.0,0.0,0.0,0.0,0.0,0.0,0.0,0.0,0.0,0.0,0.0,0.0,0.0,0.0,0.0,0.0,0.0,0.0,0.0,0.0,0.0,0.0,0.0,0.0,0.0,0.0,0.0,0.0,0.0,0.0,0.0,0.0,0.0,0.0,0.0,0.0,0.0,0.0,0.0,0.0,0.0,0.0,0.0,0.0,0.0,0.0,0.0,0.0,0.0,0.0,0.0,0.0,0.0,0.0,0.0,0.0,0.0,0.0,0.0,0.0,0.0,0.0,0.0,0.0,0.0,0.0,0.0,0.0,0.0,0.0,0.0,0.0,0.0,0.0,0.0,0.0,0.0,0.0,0.0,0.0,0.0,0.0,0.0,0.0,0.0,0.0,0.0,0.0,0.0,0.0,0.0,0.0,0.0,0.0,0.0,0.0,0.0,0.0,0.0,0.0,0.0,0.0,0.0,0.0,0.0,0.0,0.0,0.0,0.0,0.0,0.0,0.0,0.0,0.0,0.0,0.0,0.0,0.0,0.0,0.0,0.0,0.0,0.0,0.0,0.0,0.0,0.0,0.0,0.0,0.0,0.0,0.0,0.0,0.0,0.0,0.0,0.0,0.0,0.0,0.0,0.0,0.0,0.0,0.0,0.0,0.0,0.0,0.0,0.0,0.0,0.0,0.0,0.0,0.0,0.0,0.0,0.0,0.0,0.0,0.0,0.0,0.0,0.0,0.0,0.0,0.0,0.0,0.0,0.0,0.0,0.0,0.0,0.0,0.0,0.0,0.0,0.0,0.0,0.0,0.0,0.0,0.0,0.0,0.0,0.0,0.0,0.0,0.0,0.0,0.0,0.0,0.0,0.0,0.0,0.0,0.0,0.0,0.0,0.0,0.0,0.0,0.0,0.0,0.0,0.0,0.0,0.0,0.0,0.0,0.0,0.0,0.0,0.0,0.0,0.0,0.0,0.0,0.0,0.0,0.0,0.0,0.0,0.0,0.0,0.0,0.0,0.0,0.0,0.0,-0.2664,0.0,0.0,0.0,0.0,0.0,0.0,0.0,0.0,0.0,0.0,0.0,0.0,0.0,0.0,0.0,0.0,0.0,0.0,0.0,0.0,0.0,0.0,0.0,0.0,0.63,0.63,0.63,0.6193,0.6149,0.6149,0.0,0.0,0.0,0.0,0.0,0.6149,0.6149,0.6149,0.6149,0.633,0.6477,0.658,0.6424,0.6193,0.5908,0.0,0.0,0.0,0.0,0.0,0.0,0.0,0.0,0.0,0.0,0.0,0.0,0.0,0.0,0.0,0.0,0.0,0.0,0.0,0.0,0.0,0.0,0.0,0.0,0.0,0.0,0.0,0.0,0.0,0.0,0.0,0.0,0.0,0.0,0.0,0.0,0.0,0.0,0.0,0.0,0.0,0.0,0.0,0.0,0.0,0.0,0.0,0.0,0.0,0.0,0.0,0.0,0.0,0.0,0.0,0.0,0.0,0.0,0.0,0.0,0.0,0.0,0.0,0.0,0.0,0.0,0.0,0.0,0.0,0.0,0.0,-0.2807,0.0,0.0,0.0,0.0,0.0,0.0,0.0,0.0,0.0,0.0,0.0,0.0,0.0,0.0,0.0,0.0,0.0,0.0,0.0,0.0,0.0,0.6269,0.6296,0.6276,0.6269,0.6296,0.6118,0.6003,0.6067,0.6006,0.0,0.0,0.0,0.6238,0.6071,0.6071,0.6057,0.6107,0.6444,0.6719,0.692,0.6837,0.658,0.6175,0.6037,0.0,0.0,0.0,0.0,0.0,0.0,0.0,0.0,0.0,0.0,0.0,0.0,0.0,0.0,0.0,0.0,0.0,0.0,0.0,0.0,0.0,0.0,0.0,0.0,0.0,0.0,0.0,0.0,0.0,0.0,0.0,0.0,0.0,0.0,0.0,0.0,0.0,0.0,0.0,0.0,0.0,0.0,0.0,0.0,0.0,0.0,0.0,0.0,0.0,0.0,0.0,0.0,0.0,0.0,0.0,0.0,0.0,0.0,0.0,0.0,0.0,0.0,0.0,0.0,0.0,0.0,0.0,0.0,-0.004,-0.1036,-0.1526,-0.1759,0.0,0.0,0.0,0.0,0.0,0.0,0.0,0.0,0.0,0.0,0.0,0.0,0.0,0.0,0.0,0.0,0.0,0.0,0.0,0.0,0.6112,0.6286,0.6139,0.6115,0.6286,0.6118,0.6088,0.6259,0.6105,0.6091,0.6262,0.6289,0.6289,0.6269,0.6269,0.6356,0.6614,0.6866,0.7031,0.7068,0.7048,0.7007,0.6937,0.6705,0.6376,0.6,0.0,0.0,0.0,0.0,0.0,0.0,0.0,0.0,0.0,0.0,0.0,0.0,0.0,0.0,0.0,0.0,0.0,0.0,0.0,0.0,0.0,0.0,0.0,0.0,0.0,0.0,0.0,0.0,0.0,0.0,0.0,0.0,0.0,0.0,0.0,0.0,0.0,0.0,0.0,0.0,0.0,0.3188,0.3363,0.0,0.0,0.0,0.0,0.0,0.0,0.0,0.0,0.0,0.0,0.0,0.0,0.0,0.0,0.0,0.0,0.0,0.0,0.0,0.0,0.0,0.0,0.0,0.0,-0.0171,0.0,-0.1768,-0.1753,0.0,0.0,0.0,0.0,0.0,0.0,0.0,0.0,0.0,0.0,0.0,0.0,0.0,0.0,0.0,0.0,0.0,0.0,0.0,0.0,0.0,0.6169,0.6274,0.63,0.6349,0.6366,0.6306,0.6271,0.6234,0.6135,0.6132,0.6173,0.6296,0.6176,0.64,0.6906,0.6472,0.6354,0.6498,0.6498,0.6498,0.6493,0.7134,0.7068,0.6492,0.6515,0.0,0.0,0.0,0.0,0.0,0.0,0.0,0.0,0.0,0.0,0.0,0.0,0.0,0.0,0.0,0.0,0.0,0.0,0.0,0.0,0.0,0.0,0.0,0.0,0.0,0.0,0.0,0.0,0.0,0.0,0.0,0.0,0.0,0.0,0.0,0.0,0.0,0.0,0.0,0.4763,0.3973,0.3552,0.2486,0.1536,0.0,0.0,0.0,0.0,0.0,0.0,0.0,0.0,0.0,0.0,0.0,0.0,0.0,0.0,0.0,0.0,0.0,0.0,0.0,0.0,0.0,0.0,0.0,-0.0314,-0.084,-0.1364,-0.2098,-0.2923,0.0,0.0,0.0,0.0,0.0,-0.5182,0.0,0.0,0.0,0.0,0.0,0.0,0.0,0.0,0.0,0.0,0.0,0.0,0.5989,0.631,0.6484,0.6419,0.6573,0.659,0.6371,0.6419,0.6302,0.6003,0.5956,0.6044,0.6238,0.5922,0.6084,0.6709,0.5709,0.5273,0.5475,0.5475,0.5677,0.6029,0.7033,0.733,0.7034,0.6922,0.6739,0.6555,0.0,0.0,0.0,0.0,0.0,0.0,0.0,0.0,0.0,0.0,0.0,0.0,0.0,0.0,0.0,0.0,0.0,0.0,0.0,0.0,0.0,0.0,0.0,0.0,0.0,0.0,0.0,0.0,0.0,0.0,0.0,0.0,0.0,0.0,0.0,0.0,0.0,0.5831,0.496,0.3964,0.2886,0.1797,0.0,0.0,0.0,0.0,0.0,0.0,0.0,0.0,0.0,0.0,0.0,0.0,0.0,0.0,0.0,0.0,0.0,0.0,0.0,0.0,0.0,0.0,0.0,0.0,-0.0093,-0.0968,-0.1373,-0.1493,-0.2316,-0.271,0.0,-0.3728,-0.4093,-0.4295,0.0,0.0,0.0,0.0,0.0,0.0,0.0,0.0,0.0,0.0,0.0,0.6142,0.645,0.6497,0.6569,0.6668,0.6692,0.663,0.6511,0.6381,0.62,0.6,0.5891,0.5884,0.6,0.5466,0.534,0.567,0.4618,0.4109,0.4116,0.4116,0.477,0.5979,0.6079,0.6566,0.7395,0.7388,0.7088,0.6664,0.6416,0.0,0.0,0.0,0.0,0.0,0.0,0.0,0.0,0.0,0.0,0.0,0.0,0.0,0.0,0.0,0.0,0.0,0.0,0.0,0.0,0.0,0.0,0.0,0.0,0.0,0.0,0.0,0.0,0.0,0.0,0.0,0.0,0.0,0.0,0.0,0.0,0.0,0.0,0.511,0.4126,0.0,0.0,0.0,0.0,0.0,0.0,0.0,0.0,0.0,0.0,0.0,0.0,0.0,0.0,0.0,0.0,0.0,0.0,0.0,0.0,0.0,0.0,0.0,0.0,0.0,0.0,-0.0046,-0.0773,-0.1734,-0.1494,-0.2094,-0.3073,-0.2863,-0.2936,-0.3338,0.0,0.0,0.0,0.0,0.0,0.63,0.63,0.6252,0.6129,0.5983,0.6169,0.6244,0.6061,0.6474,0.6749,0.6705,0.7054,0.717,0.6919,0.677,0.6624,0.6468,0.5361,0.4546,0.4019,0.4094,0.4208,0.4314,0.3246,0.2713,0.2713,0.3675,0.437,0.4942,0.6686,0.7645,0.7992,0.7841,0.76,0.7261,0.7101,0.6784,0.0,0.0,0.0,0.0,0.0,0.0,0.0,0.0,0.0,0.0,0.0,0.0,0.0,0.0,0.0,0.0,0.0,0.0,0.0,0.0,0.0,0.0,0.0,0.0,0.0,0.0,0.0,0.0,0.0,0.0,0.0,0.0,0.0,0.0,0.0,0.0,0.0,0.4132,0.3099,0.0,0.0773,0.0258,0.0,0.0,0.0,0.0,0.0,0.0,0.0,0.0,0.0,0.0,0.0,0.0,0.0,0.0,0.0,0.0,0.0,0.0,0.0,0.0,0.0,0.0,0.0,0.0,-0.0238,-0.0652,-0.0505,-0.073,-0.1183,-0.1882,-0.2159,-0.2549,0.0,0.0,0.0,0.0,0.63,0.63,0.63,0.6211,0.6126,0.6034,0.6286,0.6385,0.6196,0.663,0.6916,0.6858,0.7309,0.7428,0.6974,0.691,0.6751,0.6488,0.5068,0.389,0.3034,0.2956,0.2954,0.3061,0.1898,0.1307,0.1359,0.2852,0.3767,0.4293,0.6651,0.7924,0.8333,0.818,0.7974,0.7729,0.7529,0.7088,0.6546,0.0,0.0,0.0,0.0,0.0,0.0,0.0,0.0,0.0,0.0,0.0,0.0,0.0,0.0,0.0,0.0,0.0,0.0,0.0,0.0,0.0,0.0,0.0,0.0,0.0,0.0,0.0,0.0,0.0,0.0,0.0,0.0,0.0,0.0,0.0,0.445,0.3488,0.2437,0.1313,0.0134,0.0,0.0,0.0,0.0,0.0,0.0,0.0,0.0,0.0,0.0,0.0,0.0,0.0,0.0,0.0,0.0,0.0,0.0,0.0,0.0,0.0,0.0,0.0,0.0,0.0,0.0,0.0,0.0,0.0,-0.0095,-0.0905,-0.119,-0.1475,0.0,0.0,0.0,0.63,0.63,0.63,0.63,0.6006,0.5969,0.6436,0.6388,0.6477,0.6819,0.7004,0.7095,0.7095,0.7421,0.7346,0.6753,0.6851,0.6623,0.5917,0.4949,0.402,0.3222,0.2137,0.1665,0.1914,0.064,0.0,0.0053,0.1545,0.298,0.4302,0.5838,0.7267,0.8479,0.8336,0.8187,0.7971,0.7729,0.7258,0.6712,0.0,0.0,0.0,0.0,0.0,0.0,0.0,0.0,0.0,0.0,0.0,0.0,0.0,0.0,0.0,0.0,0.0,0.0,0.0,0.0,0.0,0.0,0.0,0.0,0.0,0.0,0.0,0.0,0.0,0.0,0.0,0.0,0.0,0.63,0.5608,0.4665,0.3528,0.2464,0.1352,0.0191,0.0048,0.0,0.0,0.0,0.0,0.0,0.0,0.0,0.0,0.0,0.0,0.0,0.0,0.0,0.0,0.0,0.0,0.0,0.0,0.0,0.0,0.0,0.0,0.0,0.0,0.0,0.0,0.0,0.0,0.0,0.0,-0.0048,-0.0239,0.0,0.0,0.63,0.63,0.63,0.63,0.63,0.6228,0.6136,0.6,0.6332,0.6546,0.6454,0.6861,0.7095,0.7095,0.7421,0.7434,0.7001,0.692,0.5952,0.3857,0.2868,0.1925,0.0922,0.0611,0.0473,0.0533,0.0162,0.0,0.0054,0.2633,0.4079,0.4515,0.701,0.8324,0.8638,0.8486,0.834,0.8191,0.7997,0.7692,0.7346,0.0,0.0,0.0,0.0,0.0,0.0,0.0,0.0,0.0,0.0,0.0,0.0,0.0,0.0,0.0,0.0,0.0,0.0,0.0,0.0,0.0,0.0,0.0,0.0,0.0,0.0,0.0,0.0,0.0,0.0,0.0,0.0,0.6771,0.6753,0.5775,0.5112,0.5104,0.324,0.1818,0.1483,0.0546,0.0,0.0,0.0,0.0,0.0,0.0,0.0,0.0,0.0,0.0,0.0,0.0,0.0,0.0,0.0,0.0,0.0,0.0,0.0,0.0,0.0,0.0,0.0,0.0,0.0,0.0,0.0,0.0,0.0,0.0,-0.0615,-0.146,0.0,0.6606,0.63,0.63,0.63,0.63,0.63,0.6245,0.6122,0.6006,0.6349,0.6563,0.6497,0.6861,0.7095,0.7095,0.7421,0.7417,0.694,0.6321,0.4891,0.2475,0.1884,0.1114,0.0,0.0,0.0,0.0,0.0,0.0,0.0056,0.3172,0.4562,0.4729,0.7616,0.8896,0.8882,0.8669,0.853,0.8435,0.8221,0.7882,0.7512,0.7577,0.7322,0.6886,0.6886,0.6871,0.6759,0.6525,0.0,0.0,0.0,0.0,0.0,0.0,0.0,0.0,0.0,0.0,0.0,0.0,0.0,0.0,0.0,0.0,0.0,0.0,0.0,0.0,0.0,0.0,0.0,0.0,0.6932,0.7132,0.7237,0.6197,0.5504,0.5845,0.4134,0.2965,0.3025,0.1753,0.0937,0.0904,0.0376,0.0,0.0,0.0,0.0,0.0,0.0,0.0,0.0,0.0,0.0,0.0,0.0,0.0,0.0,0.0,0.0,0.0,0.0,0.0,0.0,0.0,0.0,0.0,0.0,0.0,0.0,0.0,-0.0476,-0.1148,0.0,0.6911,0.63,0.63,0.63,0.63,0.63,0.6142,0.6105,0.6282,0.6439,0.6549,0.6685,0.692,0.7095,0.7095,0.739,0.7322,0.6787,0.5332,0.3707,0.1902,0.1557,0.096,0.0,0.0,0.0,0.0,0.0,0.0,0.0058,0.3205,0.469,0.4803,0.7832,0.921,0.919,0.8855,0.8726,0.8686,0.8408,0.8013,0.7531,0.7604,0.74,0.7011,0.7011,0.7011,0.6984,0.6858,0.0,0.0,0.0,0.0,0.0,0.0,0.0,0.0,0.0,0.0,0.0,0.0,0.0,0.0,0.0,0.0,0.0,0.0,0.0,0.0,0.0,0.0,0.0,0.0,0.7109,0.7361,0.7807,0.6837,0.6125,0.6226,0.5199,0.4508,0.472,0.3196,0.2189,0.2198,0.0818,0.0,0.0,0.0,0.0,0.0,0.0,0.0,0.0,0.0,0.0,0.0,0.0,0.0,0.0,0.0,0.0,0.0,0.0,0.0,0.0,0.0,0.0,0.0,0.0,0.0,0.0,0.0,0.0,0.0,0.0,0.6451,0.63,0.63,0.63,0.63,0.63,0.6276,0.6265,0.6296,0.6491,0.6668,0.6698,0.692,0.7095,0.7095,0.7149,0.7136,0.7018,0.4737,0.3335,0.3196,0.134,0.0206,0.0,0.0,0.0,0.0,0.0,0.0,0.0059,0.3223,0.469,0.4803,0.7832,0.921,0.92,0.8967,0.8821,0.8696,0.8513,0.8303,0.8085,0.7991,0.785,0.7776,0.7776,0.7776,0.7735,0.7516,0.7343,0.7286,0.7286,0.0,0.0,0.0,0.0,0.0,0.0,0.0,0.0,0.0,0.0,0.0,0.0,0.0,0.0,0.0,0.0,0.0,0.0,0.0,0.0,0.7455,0.7797,0.8082,0.817,0.8047,0.7927,0.7871,0.6815,0.6082,0.6107,0.3741,0.2196,0.2199,0.0852,0.0,0.0,0.0,0.0,0.0,0.0,0.0,0.0,0.0,0.0,0.0,0.0,0.0,0.0,0.0,0.0,0.0,0.0,0.0,0.0,0.0,0.0,0.0,0.0,0.0,0.0,0.0,0.0,0.0,0.0,0.63,0.63,0.63,0.63,0.63,0.63,0.63,0.6272,0.6156,0.6403,0.6586,0.6586,0.6719,0.6837,0.6912,0.6919,0.6736,0.6378,0.5098,0.3891,0.2858,0.1641,0.0686,0.0,0.0,0.0,0.0,0.0,0.0,0.006,0.3293,0.4804,0.4918,0.7959,0.9323,0.9309,0.9032,0.8841,0.8804,0.8574,0.8438,0.835,0.8126,0.7988,0.7988,0.7988,0.7988,0.7968,0.7868,0.777,0.7706,0.7706,0.7553,0.7312,0.0,0.0,0.0,0.0,0.0,0.0,0.0,0.0,0.0,0.0,0.0,0.0,0.0,0.0,0.7095,0.7095,0.0,0.7444,0.7668,0.7896,0.8119,0.8343,0.8503,0.857,0.8499,0.7965,0.7651,0.7849,0.5859,0.4569,0.4623,0.3303,0.2455,0.2435,0.1699,0.1273,0.1263,0.0409,0.0,0.0,0.0,0.0,0.0,0.0,0.0,0.0,0.0,0.0,0.0,0.0,0.0,0.0,0.0,0.0,0.0,0.0,0.0,0.0,0.0,0.0,0.0,0.0,0.63,0.63,0.63,0.63,0.63,0.63,0.63,0.6262,0.6129,0.6322,0.6511,0.6511,0.6511,0.6498,0.6566,0.6624,0.6452,0.5891,0.5678,0.4751,0.2836,0.2578,0.1769,0.0438,0.0389,0.0283,0.0,0.0291,0.0414,0.048,0.3756,0.5299,0.5413,0.8154,0.9337,0.932,0.9052,0.8885,0.8858,0.8604,0.8482,0.8448,0.8153,0.7988,0.7988,0.7988,0.7988,0.7988,0.7988,0.7988,0.7988,0.7988,0.7988,0.7884,0.7344,0.7404,0.0,0.0,0.0,0.0,0.0,0.0,0.0,0.0,0.0,0.7253,0.7196,0.723,0.727,0.727,0.7294,0.7478,0.7841,0.795,0.8113,0.8476,0.8659,0.8764,0.8794,0.8798,0.8889,0.9187,0.7854,0.6997,0.7115,0.5712,0.4923,0.4883,0.3683,0.2943,0.2964,0.1339,0.0488,0.0475,0.0183,0.0,0.0,0.0,0.0,0.0,0.0,0.0,0.0,0.0,0.0,0.0,0.0,0.0,0.0,0.0,0.0,0.0,0.0,0.0,0.0,0.0,0.63,0.63,0.63,0.63,0.63,0.63,0.63,0.6337,0.645,0.6491,0.6511,0.6511,0.6511,0.6373,0.6087,0.6346,0.66,0.6761,0.5933,0.5453,0.5562,0.4519,0.3265,0.1801,0.1885,0.1297,0.0,0.1322,0.1971,0.2002,0.518,0.6654,0.6767,0.8441,0.9234,0.9224,0.9008,0.8885,0.8858,0.8604,0.8482,0.8448,0.8153,0.7988,0.7988,0.7988,0.7988,0.7988,0.7988,0.7988,0.7988,0.7988,0.7988,0.7924,0.7645,0.0,0.7468,0.6865,0.6532,0.6463,0.6685,0.6903,0.7095,0.0,0.0,0.7816,0.7604,0.7756,0.7891,0.7891,0.8052,0.816,0.8262,0.8438,0.8628,0.8676,0.8815,0.896,0.9146,0.9159,0.9173,0.9207,0.7936,0.7059,0.7112,0.5747,0.4884,0.4901,0.4721,0.4656,0.4647,0.3071,0.2213,0.2205,0.0739,0.0,0.0,0.0,0.0,0.0,0.0,0.0,0.0,0.0,0.0,0.0,0.0,0.0,0.0,0.0,0.0,0.0,0.0,0.0,0.0,0.0,0.0,0.6984,0.6412,0.63,0.63,0.63,0.63,0.632,0.6381,0.6388,0.6388,0.6388,0.6228,0.6,0.5793,0.6044,0.6417,0.6856,0.671,0.6395,0.6023,0.5514,0.4605,0.3322,0.3345,0.3124,0.2635,0.3263,0.3521,0.3578,0.5858,0.6912,0.6965,0.8527,0.921,0.92,0.8998,0.8834,0.8788,0.857,0.8431,0.8336,0.8119,0.7988,0.7968,0.7845,0.7784,0.0,0.0,0.7784,0.7814,0.7934,0.7874,0.776,0.7638,0.7472,0.0,0.698,0.6997,0.7068,0.0,0.7444,0.7617,0.7617,0.781,0.7955,0.7833,0.7904,0.8015,0.8157,0.8082,0.8119,0.0,0.8486,0.8543,0.8808,0.8971,0.9086,0.9204,0.921,0.921,0.921,0.8784,0.8549,0.8466,0.8005,0.7741,0.7731,0.6874,0.6383,0.6383,0.4731,0.3873,0.3873,0.3199,0.2401,0.1479,0.1479,0.0925,0.0,0.0,0.0,0.0,0.0,0.0,0.0,0.0,0.0,0.0,0.0,0.0,0.0,0.0,0.0,0.0,0.0,0.0,0.0,0.7253,0.6911,0.6602,0.6338,0.63,0.63,0.63,0.63,0.6269,0.6184,0.5901,0.5684,0.5573,0.5796,0.6165,0.6766,0.7082,0.7044,0.6541,0.6543,0.5982,0.4719,0.4744,0.466,0.4402,0.4852,0.5064,0.5148,0.6707,0.7459,0.7511,0.8625,0.9072,0.9081,0.892,0.8788,0.8635,0.8482,0.8364,0.8252,0.8099,0.7938,0.784,0.7678,0.76,0.0,0.0,0.7499,0.7614,0.7658,0.7672,0.7584,0.7499,0.7258,0.6994,0.7071,0.0,0.0,0.7556,0.776,0.7891,0.7971,0.7988,0.7988,0.7988,0.7988,0.8039,0.8241,0.8119,0.8153,0.8632,0.8567,0.8567,0.8838,0.9062,0.9193,0.91,0.9183,0.9159,0.9036,0.932,0.9534,0.9503,0.97,0.9822,0.9822,0.8711,0.8036,0.8036,0.6444,0.559,0.559,0.5161,0.4303,0.3137,0.3137,0.2278,0.0679,0.0185,0.0,0.0,0.0,0.0,0.0,0.0,0.0,0.0,0.0,0.0,0.0,0.0,0.0,0.0,0.0,0.0,0.0,0.0,0.8389,0.7442,0.6451,0.63,0.63,0.63,0.63,0.6187,0.5847,0.5684,0.5535,0.5416,0.5637,0.6,0.6497,0.6773,0.7159,0.7701,0.7868,0.7305,0.5999,0.6153,0.5565,0.42,0.5723,0.6488,0.6654,0.8165,0.884,0.884,0.8892,0.8862,0.8723,0.872,0.8628,0.8476,0.8385,0.8327,0.8252,0.8099,0.7862,0.7611,0.7604,0.0,0.0,0.0,0.7241,0.7526,0.7051,0.7255,0.0,0.7196,0.6946,0.0,0.0,0.0,0.6868,0.7455,0.7607,0.7689,0.7924,0.7988,0.7988,0.7988,0.7988,0.8039,0.8241,0.8374,0.8516,0.8682,0.8828,0.8868,0.8881,0.9062,0.91,0.8905,0.9069,0.9036,0.0,0.9039,0.9503,0.9785,0.9815,0.9822,0.9822,0.9758,0.97,0.97,0.8158,0.7299,0.7299,0.571,0.4855,0.4856,0.4856,0.3997,0.234,0.074,0.0,0.0,0.0,0.0,0.0,0.0,0.0,0.0,0.0,0.0,0.0,0.0,0.0,0.0,0.0,0.0,0.0,0.0,0.0,0.8694,0.8351,0.7176,0.63,0.63,0.6173,0.0,0.0,0.0,0.0,0.0,0.5603,0.581,0.6156,0.6458,0.6848,0.7301,0.7655,0.771,0.735,0.7539,0.7464,0.7057,0.7593,0.783,0.793,0.8418,0.8635,0.8635,0.8635,0.8608,0.856,0.856,0.8476,0.8336,0.834,0.8208,0.8089,0.7841,0.7685,0.7546,0.0,0.0,0.0,0.0,0.0,0.0,0.6903,0.0,0.0,0.6451,0.0,0.0,0.0,0.0,0.7346,0.755,0.7746,0.787,0.7968,0.7988,0.7988,0.7988,0.7911,0.7933,0.8089,0.8075,0.815,0.8503,0.8438,0.843,0.8828,0.8804,0.8838,0.9191,0.9103,0.0,0.0,0.0,0.0,0.9185,0.9598,0.9822,0.9822,0.9822,0.9822,0.9822,0.9265,0.9019,0.9019,0.8407,0.7609,0.6566,0.5406,0.461,0.4059,0.3506,0.2647,0.1664,0.1664,0.1048,0.0,0.0,0.0,0.0,0.0,0.0,0.0,0.0,0.0,0.0,0.0,0.0,0.0,0.0,0.0,0.0,0.0,0.0,0.0,0.0,0.0,0.0,0.0,0.0,0.0,0.0,0.0,0.6096,0.601,0.6156,0.6434,0.6881,0.7177,0.7431,0.7591,0.7845,0.8045,0.8241,0.8353,0.8431,0.8482,0.8482,0.8482,0.8482,0.8482,0.8455,0.8408,0.8408,0.8323,0.8177,0.8072,0.797,0.78,0.755,0.737,0.0,0.0,0.0,0.0,0.0,0.0,0.0,0.0,0.0,0.0,0.0,0.0,0.0,0.0,0.7305,0.7624,0.7729,0.785,0.7988,0.7988,0.7988,0.7988,0.7988,0.8004,0.7991,0.7982,0.8004,0.8085,0.8428,0.8323,0.837,0.8814,0.8859,0.891,0.9191,0.9147,0.9205,0.0,0.0,0.0,0.9188,0.953,0.9744,0.9744,0.9744,0.9768,0.9819,0.9822,0.9822,0.9822,0.9822,0.9265,0.8218,0.6566,0.5772,0.5772,0.5161,0.4278,0.3208,0.3306,0.2325,0.0729,0.0859,0.0555,0.0,0.0,0.0,0.0,0.0,0.0,0.0,0.0,0.0,0.0,0.0,0.0,0.0,0.0,0.0,0.0,0.0,0.0,0.0,0.0,0.0,0.0,0.0,0.0,0.0,0.6101,0.5957,0.0,0.646,0.6501,0.6607,0.6856,0.719,0.7478,0.7767,0.8058,0.8275,0.8414,0.8414,0.8414,0.8414,0.8414,0.834,0.8262,0.8262,0.813,0.7921,0.7689,0.7577,0.7543,0.7189,0.0,0.0,0.0,0.0,0.0,0.0,0.0,0.0,0.0,0.0,0.0,0.0,0.0,0.6858,0.7424,0.7597,0.7689,0.7921,0.7988,0.7988,0.7988,0.7988,0.7985,0.7971,0.8126,0.8177,0.0,0.0,0.8258,0.8431,0.8445,0.855,0.8814,0.9157,0.9235,0.0,0.0,0.0,0.0,0.0,0.0,0.9598,0.0,0.9618,0.9618,0.9618,0.9683,0.9819,0.9822,0.9822,0.9822,0.9822,0.9822,0.9758,0.8282,0.7543,0.7484,0.5896,0.4958,0.4648,0.4914,0.393,0.2183,0.2493,0.1663,0.0123,0.0123,0.0062,0.0,0.0,0.0,0.0,0.0,0.0,0.0,0.0,0.0,0.0,0.0,0.0,0.0,0.0,0.0,0.0,0.0,0.0,0.0,0.0,0.0,0.0,0.6892,0.6977,0.0,0.0,0.0,0.0,0.0,0.0,0.0,0.7109,0.7231,0.7343,0.7435,0.7435,0.7435,0.7435,0.7435,0.7415,0.7428,0.7428,0.7358,0.7318,0.0,0.7213,0.7179,0.0,0.0,0.0,0.0,0.0,0.0,0.0,0.0,0.0,0.0,0.6647,0.6597,0.0,0.0,0.7207,0.7248,0.7537,0.7897,0.7971,0.7988,0.7988,0.7988,0.7988,0.7928,0.7756,0.7651,0.7553,0.0,0.0,0.0,0.8055,0.7967,0.0,0.8526,0.8662,0.0,0.8865,0.0,0.9439,0.9581,0.9663,0.0,0.0,0.9707,0.9768,0.9768,0.9768,0.9785,0.9819,0.9822,0.9822,0.9822,0.9822,0.9822,0.9822,0.939,0.9204,0.9204,0.8775,0.7881,0.6673,0.6726,0.5746,0.4195,0.4228,0.3322,0.1848,0.1848,0.111,0.0,0.0,0.0,0.0,0.0,0.0,0.0,0.0,0.0,0.0,0.0,0.0,0.0,0.0,0.0,0.0,0.0,0.0,0.0,0.0,0.0,0.0,0.0,0.73,0.0,0.0,0.0,0.0,0.0,0.0,0.0,0.0,0.0,0.0,0.7004,0.7004,0.7004,0.7007,0.7068,0.7095,0.7095,0.7095,0.0,0.0,0.0,0.0,0.0,0.0,0.0,0.0,0.0,0.0,0.0,0.0,0.0,0.6647,0.7085,0.7071,0.6929,0.7109,0.0,0.7478,0.7476,0.7732,0.7988,0.7988,0.7988,0.7958,0.7826,0.7845,0.776,0.7461,0.7383,0.0,0.7045,0.7088,0.0,0.0,0.0,0.0,0.8418,0.8598,0.8747,0.0,0.9201,0.0,0.9791,0.9822,0.9788,0.0,0.972,0.9727,0.9727,0.9727,0.9758,0.9819,0.9822,0.9822,0.9822,0.9822,0.9822,0.9822,0.9822,0.9822,0.9822,0.9822,0.9261,0.8307,0.0,0.7427,0.5784,0.5922,0.5037,0.3568,0.3568,0.2954,0.2094,0.1356,0.111,0.0986,0.0,0.0,0.0,0.0,0.0,0.0,0.0,0.0,0.0,0.0,1.2251,1.2305,0.0,0.0,0.0,0.0,0.0,0.0,0.0,0.0,0.0,0.0,0.0,0.0,0.0,0.0,0.0,0.0,0.0,0.0,0.0,0.0,0.0,0.0,0.0,0.0,0.0,0.0,0.0,0.0,0.0,0.0,0.0,0.0,0.0,0.0,0.0,0.0,0.0,0.0,0.6913,0.6865,0.7468,0.7475,0.7311,0.7789,0.7828,0.7706,0.7874,0.7961,0.7988,0.7988,0.7988,0.7924,0.7716,0.7628,0.7512,0.7159,0.0,0.721,0.693,0.7139,0.7421,0.7756,0.0,0.8066,0.8333,0.8696,0.8868,0.8828,0.9157,0.9476,0.9791,0.9785,0.9778,0.9819,0.9707,0.9639,0.9639,0.9639,0.9693,0.9819,0.9822,0.9822,0.9822,0.9822,0.9822,0.9822,0.9822,0.9822,0.9822,0.9822,0.9683,0.9452,0.0,0.0,0.7325,0.7582,0.675,0.5223,0.5223,0.51,0.4732,0.3322,0.2831,0.2585,0.0,0.0,0.0,0.0,0.0,0.0,0.0,0.0,0.0,0.0,1.1997,1.2305,0.0,0.0,0.0,0.0,0.0,0.0,0.0,0.0,0.0,0.0,0.0,0.0,0.0,0.0,0.0,0.0,0.0,0.0,0.0,0.0,0.0,0.0,0.0,0.0,0.0,0.0,0.0,0.0,0.0,0.0,0.0,0.0,0.0,0.0,0.0,0.0,0.0,0.0,0.6967,0.7125,0.7725,0.7877,0.7806,0.7716,0.7811,0.7874,0.7729,0.7851,0.7988,0.7988,0.7988,0.7975,0.7924,0.7773,0.0,0.0,0.6966,0.6841,0.6873,0.6927,0.7183,0.7723,0.7891,0.7924,0.778,0.8438,0.879,0.0,0.8992,0.9357,0.9781,0.0,0.0,0.0,0.0,0.0,0.9785,0.9785,0.9795,0.9822,0.9822,0.9822,0.9822,0.9822,0.9822,0.9822,0.9822,0.9822,0.9822,0.9822,0.9791,0.9747,0.0,0.0,0.9318,0.9367,0.8404,0.6994,0.6994,0.6139,0.4855,0.4611,0.4487,0.4426,0.0,0.0,0.0,0.0,0.0,0.0,0.0,1.1724,1.1476,1.1035,1.1256,1.151,1.181,1.2118,1.2305,0.0,0.0,0.0,0.0,0.0,0.0,0.0,0.0,0.0,0.0,0.0,0.0,0.0,0.0,0.0,0.0,0.0,0.0,0.0,0.0,0.0,0.0,0.0,0.0,0.0,0.0,0.0,0.0,0.0,0.0,0.0,0.0,0.0,0.0,0.0,0.6675,0.6939,0.7725,0.7988,0.7931,0.7685,0.7807,0.7924,0.7682,0.7814,0.7988,0.7988,0.7988,0.7907,0.7594,0.0,0.0,0.0,0.6569,0.6495,0.6569,0.6641,0.0,0.7485,0.7773,0.7926,0.7946,0.8452,0.0,0.8726,0.8974,0.9326,0.0,0.0,0.0,0.0,0.0,0.0,0.9812,0.9822,0.9822,0.9822,0.9822,0.9822,0.9822,0.9822,0.9822,0.9822,0.9822,0.9822,0.9822,0.9822,0.9822,0.9822,0.0,0.0,0.9717,0.9791,0.9287,0.8558,0.8624,0.816,0.7365,0.6508,0.62,0.6077,0.0,0.0,0.0,0.0,0.0,0.0,1.1482,1.1335,1.1102,1.0486,1.0459,1.0693,1.1182,1.1764,1.2164,0.0,0.0,0.0,0.0,0.0,0.0,0.0,0.0,0.0,0.0,0.0,0.0,0.0,0.0,0.0,0.0,0.0,0.0,0.0,0.0,0.0,0.0,0.0,0.0,0.0,0.0,0.0,0.0,0.0,0.0,0.0,0.0,0.0,0.0,0.0,0.6323,0.6539,0.7461,0.7749,0.7766,0.7648,0.7763,0.786,0.774,0.7865,0.7988,0.7988,0.7988,0.785,0.7314,0.7142,0.0,0.6504,0.6344,0.632,0.6381,0.6484,0.675,0.0,0.7594,0.7862,0.8133,0.8455,0.873,0.0,0.9039,0.0,0.0,0.0,0.0,0.0,0.0,0.0,0.9808,0.9822,0.9822,0.9822,0.9822,0.9822,0.9822,0.9822,0.9822,0.9822,0.9822,0.9822,0.9822,0.9822,0.9822,0.9822,0.0,0.0,0.0,0.9764,0.9737,0.9625,0.9768,0.9822,0.9636,0.8404,0.7914,0.7728,0.0,0.0,0.0,0.0,0.0,0.0,1.1482,1.1202,1.0728,0.9909,0.9993,1.0281,1.0633,1.1162,1.1688,0.0,0.0,0.0,0.0,0.0,0.0,0.0,0.0,0.0,0.0,0.0,0.0,0.0,0.0,0.0,0.0,0.0,0.0,0.0,0.0,0.0,0.0,0.0,0.0,0.0,0.0,0.0,0.0,0.0,0.0,0.0,0.0,0.0,0.0,0.0,0.0,0.6121,0.6664,0.7007,0.7227,0.7526,0.0,0.0,0.7884,0.7968,0.7988,0.7988,0.7988,0.7904,0.7631,0.0,0.7004,0.6725,0.6487,0.6381,0.661,0.6671,0.6831,0.734,0.7509,0.7675,0.7831,0.8228,0.8611,0.8848,0.0,0.0,0.0,0.0,0.0,0.0,0.0,0.0,0.0,0.9822,0.9822,0.9822,0.9822,0.9822,0.9822,0.9822,0.9822,0.9822,0.9822,0.9822,0.9822,0.9822,0.9822,0.9822,0.0,0.0,0.0,0.9764,0.9737,0.9625,0.9768,0.9822,0.9758,0.9636,0.9576,0.9576,0.0,0.0,0.0,0.0,0.0,0.0,1.1283,1.1216,1.0815,0.955,0.9673,0.99,1.005,1.0394,1.1056,1.2204,1.2144,0.0,0.0,0.0,0.0,0.0,0.0,0.0,0.0,0.0,0.9839,1.0372,0.9047,0.0,0.0,0.0,0.0,0.0,0.0,0.0,0.0,0.0,0.0,0.0,0.0,0.0,0.0,0.0,0.0,0.0,0.0,0.0,0.0,0.0,0.0,0.0,0.6157,0.6173,0.0,0.0,0.7244,0.7587,0.7469,0.7715,0.7988,0.7988,0.7988,0.7864,0.7388,0.0,0.6964,0.6532,0.6381,0.6334,0.6453,0.6477,0.6552,0.6909,0.7166,0.7425,0.784,0.8255,0.8662,0.9147,0.9205,0.0,0.0,0.0,0.0,0.0,0.0,0.0,0.0,0.9822,0.9822,0.9822,0.9822,0.9822,0.9822,0.9822,0.9822,0.9822,0.9822,0.9822,0.9822,0.9822,0.9822,0.9822,0.0,0.0,0.0,0.9724,0.9683,0.9496,0.973,0.9822,0.9822,0.9822,0.9822,0.9822,0.0,0.0,0.0,0.0,0.0,1.2037,1.1243,1.1223,1.0829,0.9624,0.9606,0.9719,0.98,0.9993,1.0603,1.1931,1.1937,0.0,0.0,0.0,0.0,0.0,0.0,0.0,0.0,0.0,1.0689,1.1389,0.9909,0.9519,0.0,0.0,0.0,0.0,0.0,0.0,0.0,0.0,0.0,0.0,0.0,0.0,0.0,0.0,0.0,0.0,0.0,0.0,0.0,0.0,0.0,0.0,0.0,0.0,0.0,0.0,0.6915,0.7383,0.7253,0.7604,0.7988,0.7988,0.7924,0.7725,0.0,0.0,0.6868,0.6405,0.63,0.63,0.63,0.6334,0.646,0.6719,0.7054,0.7409,0.7917,0.8258,0.8642,0.0,0.0,0.0,0.0,0.0,0.0,0.0,0.0,0.0,0.0,0.9822,0.9822,0.9822,0.9822,0.9822,0.9822,0.9822,0.9822,0.9822,0.9822,0.9798,0.9758,0.9802,0.9798,0.0,0.0,0.0,0.0,0.972,0.9673,0.9473,0.9724,0.9822,0.9822,0.9822,0.9822,0.9822,0.0,0.0,0.0,0.0,0.0,1.2104,1.1475,1.1182,1.0782,1.0157,0.986,0.9793,1.008,1.0114,1.0443,1.1322,1.1703,0.0,0.0,0.0,0.0,0.0,0.0,0.0,0.0,0.0,1.1389,1.1389,1.1102,1.0962,1.0995,1.0995,1.0835,1.0581,0.0,0.0,0.0,0.0,1.0593,0.0,0.0,0.0,0.0,0.0,0.0,0.0,0.0,0.0,0.0,0.0,0.0,0.0,0.0,0.6789,0.6845,0.6567,0.6692,0.6991,0.7475,0.7811,0.7988,0.7988,0.7821,0.7522,0.0,0.6915,0.662,0.6361,0.63,0.63,0.63,0.6416,0.6569,0.6832,0.7302,0.7699,0.7948,0.8174,0.0,0.0,0.0,0.0,0.0,0.0,0.0,0.0,0.0,0.0,0.0,0.0,0.9822,0.9822,0.9822,0.9822,0.9822,0.9822,0.9822,0.9822,0.9822,0.9747,0.9615,0.9758,0.0,0.0,0.0,0.0,0.0,0.9761,0.9737,0.9622,0.9764,0.9822,0.9822,0.9822,0.9822,0.9822,0.0,0.0,0.0,0.0,0.0,0.0,1.179,1.1817,1.1536,1.0579,1.0546,1.0388,0.9873,1.0,1.0197,1.0508,1.0982,0.0,0.0,0.0,0.0,0.0,0.0,0.0,0.0,1.0935,1.0835,1.0835,1.0774,1.0727,1.0727,1.0727,1.068,1.0593,1.0687,1.068,0.0,1.0593,1.0593,0.0,0.0,0.0,0.0,0.0,0.0,0.0,0.0,0.0,0.0,0.0,0.0,0.0,0.0,0.0,0.0,0.6762,0.6712,0.6647,0.679,0.7119,0.7378,0.7378,0.7311,0.7162,0.6909,0.6766,0.6617,0.6361,0.63,0.63,0.63,0.6337,0.6467,0.6725,0.7061,0.7415,0.0,0.0,0.0,0.0,0.0,0.0,0.0,0.0,0.0,0.0,0.0,0.0,0.0,0.0,0.9822,0.9822,0.9822,0.9822,0.9822,0.9822,0.9822,0.9822,0.9822,0.9747,0.9615,0.9754,0.0,0.0,0.0,0.0,0.0,0.9764,0.9737,0.9625,0.9768,0.9822,0.9822,0.9822,0.9822,0.9822,0.0,0.0,0.0,0.0,0.0,0.0,1.2094,1.2091,1.1877,1.1182,1.1116,1.0868,1.0131,1.0274,1.0401,1.0294,1.0621,0.0,0.0,0.0,0.0,0.0,0.0,0.0,1.0861,1.0687,1.0539,1.0425,1.0425,1.0425,1.0425,1.0425,1.0486,1.0593,1.0593,1.0593,0.0,1.0593,1.0593,1.0593,0.0,0.0,1.0593,0.0,0.0,0.0,0.0,0.0,0.0,0.0,0.0,0.0,0.0,0.0,0.0,0.0,0.6963,0.7205,0.7466,0.7828,0.8103,0.8253,0.817,0.7936,0.7398,0.75,0.7509,0.6987,0.7356,0.7717,0.7466,0.7638,0.7721,0.7245,0.761,0.7916,0.0,0.0,0.0,0.0,0.0,0.0,0.0,0.0,0.0,0.0,0.0,0.0,0.0,0.0,0.9822,0.9822,0.9822,0.9822,0.9822,0.9822,0.9822,0.9822,0.9822,0.9747,0.9615,0.0,0.0,0.0,0.0,0.0,0.0,0.9785,0.9768,0.9696,0.9785,0.9822,0.9822,0.9822,0.9822,0.9822,0.0,0.0,0.0,0.0,0.0,0.0,0.0,1.2078,1.1926,1.1906,1.163,1.1243,1.0713,1.0842,1.0882,1.0646,1.06,0.0,0.0,0.0,0.0,0.0,0.0,0.0,1.06,1.0593,1.0452,1.0147,1.0097,1.0083,1.0083,1.0094,1.0241,1.0559,1.0559,1.0573,1.0593,1.0593,1.0593,1.0593,1.0593,1.0593,0.0,0.0,0.0,0.0,0.0,0.0,0.0,0.0,0.0,0.0,0.0,0.0,0.0,0.0,0.0,0.0,0.0,0.9526,0.9731,1.0013,0.9905,0.9418,0.8494,0.8811,0.0,0.8158,0.9158,1.0037,0.9481,0.9958,0.9949,0.8422,0.8823,0.8993,0.0,0.8322,0.0,0.0,0.0,0.0,0.0,0.0,0.0,0.0,0.0,0.0,0.0,0.0,0.0,1.0001,1.0001,0.994,0.9822,0.9822,0.9815,0.9805,0.9815,0.9741,0.9598,0.0,0.0,0.0,0.0,0.0,0.0,0.9822,0.9822,0.9822,0.9822,0.9822,0.9822,0.9822,0.9822,0.9822,0.0,0.0,0.0,0.0,0.0,0.0,0.0,0.0,0.0,0.0,1.1846,1.163,1.1263,1.1089,1.0962,0.0,0.0,0.0,0.0,0.0,0.0,0.0,0.0,0.0,1.0593,1.0593,1.0559,1.0486,1.0227,1.0083,1.0114,0.9886,0.994,1.0221,1.0221,1.0347,1.0593,1.0593,1.0593,1.0593,1.0593,1.0593,0.0,0.0,0.0,0.0,1.0593,1.0593,0.0,0.0,0.0,0.0,0.0,0.0,0.0,0.0,0.8851,0.9259,1.0306,0.0,0.9039,0.9089,0.9278,0.9332,0.0,0.9181,0.9354,0.9572,0.9928,1.0222,1.0284,1.0611,1.0614,0.9798,0.9665,0.9841,1.0367,0.0,0.0,0.0,0.0,0.0,0.0,0.0,0.0,0.0,0.0,0.0,0.0,0.0,0.0,1.1675,1.1615,1.102,0.9822,0.9822,0.9768,0.9659,0.9771,0.9686,0.9445,0.0,0.0,0.0,0.0,0.0,0.0,0.9822,0.9822,0.9822,0.9822,0.9822,0.9822,0.9822,0.9822,0.9822,0.0,0.0,0.0,0.0,0.0,0.0,0.0,0.0,0.0,0.0,1.3273,1.3125,1.2402,1.238,1.2149,0.0,0.0,0.0,0.0,0.0,0.0,0.0,0.0,1.0593,1.0593,1.0593,1.0526,1.0354,1.0194,1.0083,1.0114,0.9953,1.004,1.0321,1.0321,1.0439,1.0593,1.0593,1.0593,1.0593,1.0593,0.0,0.0,0.0,0.0,0.0,1.0593,1.0593,0.0,1.0593,1.0593,1.0466,0.0,0.0,0.0,0.0,0.9594,1.0047,1.0652,1.0334,0.9949,1.0489,1.0572,1.0496,1.0423,1.0553,1.072,1.0868,1.1255,1.1658,1.1911,1.2117,1.1949,1.1186,1.1122,0.0,0.0,0.0,0.0,0.0,0.0,0.0,0.0,0.0,0.0,0.0,0.0,0.0,0.0,0.0,0.0,0.0,1.3287,1.2157,0.9819,1.0539,1.082,1.0602,1.1535,1.1887,1.1562,0.0,0.0,0.0,0.0,0.0,0.9815,0.9751,0.9764,0.9822,0.9822,0.9822,0.9822,0.9822,0.9822,0.9822,0.0,0.0,0.0,0.0,0.0,0.0,0.0,0.0,0.0,0.0,0.0,0.0,0.0,0.0,0.0,0.0,0.0,0.0,0.0,0.0,0.0,0.0,1.0593,1.0593,1.0593,1.0593,1.0472,1.018,1.0094,1.0053,1.0047,0.997,1.0167,1.0526,1.0573,1.0593,1.0593,1.0593,1.0593,1.0593,1.0593,0.0,0.0,0.0,0.0,0.0,0.0,0.0,0.0,1.0593,1.0593,1.0466,0.9722,0.0,0.0,0.0,0.0,0.0,1.0593,1.0774,1.1229,1.2368,1.2275,1.1903,1.1868,1.2075,1.2267,1.2102,1.2726,1.3434,1.3686,1.3846,0.0,0.0,0.0,0.0,0.0,0.0,0.0,0.0,0.0,0.0,0.0,0.0,0.0,0.0,0.0,0.0,0.0,0.0,0.0,0.0,1.4955,1.3526,1.0539,1.1916,1.2418,1.2236,1.3843,1.4478,1.4202,1.3077,0.0,0.0,0.0,0.0,0.9812,0.969,0.971,0.9822,0.9822,0.9822,0.9822,0.9822,0.9822,0.9822,0.0,0.0,0.0,0.0,0.0,0.0,0.0,0.0,0.0,0.0,0.0,0.0,0.0,0.0,0.0,0.0,0.0,0.0,0.0,0.0,0.0,1.0624,1.0593,1.0593,1.0593,1.0593,1.0566,1.0526,1.0023,0.9746,0.9746,0.9464,0.9637,1.0194,1.0479,1.0593,1.0593,1.0593,1.0593,1.0593,1.0593,0.0,0.0,0.0,0.0,0.0,0.0,0.0,0.0,1.0593,1.0593,1.0593,1.0428,0.0,0.0,0.0,0.0,0.0,1.0593,1.0626,1.0881,1.1806,1.1973,1.2037,1.2513,1.247,1.2574,1.3515,1.3864,1.4041,1.4329,1.4945,1.5079,0.0,0.0,0.0,0.0,0.0,0.0,0.0,0.0,0.0,0.0,0.0,0.0,0.0,0.0,0.0,0.0,0.0,0.0,0.0,0.0,1.5725,1.3885,1.4123,1.4134,1.4038,1.4434,1.4542,1.4387,1.4262,1.3471,0.0,0.0,0.0,0.9819,0.9798,0.9802,0.9822,0.9822,0.9822,0.9822,0.9822,0.9822,0.9822,0.0,0.0,0.0,0.0,0.0,0.0,0.0,0.0,0.0,0.0,0.0,0.0,0.0,0.0,0.0,0.0,0.0,0.0,0.0,0.0,1.0989,1.0624,1.0593,1.0593,1.0593,1.0432,1.0321,1.0321,0.9733,0.9526,0.9715,0.9706,0.994,1.0392,1.0526,1.0593,1.0593,1.0593,1.0593,1.0593,0.0,0.0,0.0,0.0,0.0,0.0,0.0,0.0,0.0,0.0,1.0593,1.0593,1.0593,0.0,0.0,0.0,0.0,0.0,1.0593,1.0593,1.0841,1.1844,1.1864,1.1991,1.3387,1.31,1.2965,1.4325,1.4055,1.3848,0.0,0.0,1.5157,1.5251,0.0,0.0,0.0,0.0,0.0,0.0,0.0,0.0,0.0,0.0,0.0,0.0,0.0,0.0,0.0,0.0,0.0,0.0,0.0,0.0,1.722,1.722,1.6611,1.5539,1.6675,1.7077,1.6833,1.6208,1.5483,0.0,0.0,1.3008,1.2324,1.1395,1.1056,1.102,1.0122,0.9822,0.9879,1.0781,1.0539,0.994,0.0,0.0,0.0,0.0,0.0,0.0,0.0,0.0,0.0,0.0,0.0,0.0,0.0,0.0,0.0,0.0,0.0,0.0,0.0,1.1779,1.1264,1.0895,1.0863,1.0773,1.0486,1.0234,1.0023,0.9884,0.9431,0.9364,0.9715,0.9913,1.0214,1.0593,1.0593,1.0593,1.0593,1.0593,1.0593,1.0593,0.0,0.0,0.0,0.0,0.0,0.0,0.0,0.0,0.0,0.0,0.0,0.0,0.0,0.0,0.0,1.0593,1.0593,1.0593,1.0593,1.0593,1.0841,1.1837,1.1703,1.1864,1.3948,1.344,1.3045,1.4673,1.4135,0.0,0.0,1.4937,0.0,1.6206,0.0,0.0,0.0,0.0,0.0,0.0,0.0,0.0,0.0,0.0,0.0,0.0,0.0,0.0,0.0,0.0,0.0,0.0,0.0,0.0,1.9424,1.9424,1.8654,1.7198,1.8719,1.9252,1.8974,1.801,1.7384,1.6956,1.5587,1.4853,1.4529,1.3176,1.2675,1.2633,1.1438,1.0899,1.102,1.1856,1.1679,1.1076,0.0,0.0,0.0,0.0,0.0,0.0,0.0,0.0,0.0,0.0,0.0,0.0,0.0,0.0,0.0,0.0,0.0,0.0,0.0,1.3965,1.3265,1.1772,1.171,1.1207,1.0154,1.0097,0.9817,0.9271,0.9231,0.9364,0.9715,0.9735,1.0043,1.0593,1.0593,1.0593,1.0593,1.0593,1.0593,1.0593,1.0593,0.0,0.0,0.0,0.0,0.0,0.0,0.0,0.0,0.0,0.0,0.0,0.0,0.0,1.0593,1.0593,1.0593,1.0593,1.0593,1.0593,1.074,1.1329,1.1256,1.157,1.3647,1.3025,1.2549,1.4586,1.4506,1.4295,0.0,1.5571,1.5945,0.0,0.0,0.0,0.0,0.0,0.0,0.0,0.0,0.0,0.0,0.0,0.0,0.0,0.0,0.0,0.0,0.0,0.0,0.0,0.0,0.0,1.9424,1.9424,1.9359,1.9216,1.9359,1.9417,1.9339,1.9294,1.8402,1.6968,1.6885,1.5945,1.4604,1.4465,1.4411,1.4426,1.4307,1.4247,1.4068,1.2693,1.3048,1.4242,0.0,0.0,0.0,0.0,0.0,0.0,0.0,0.0,0.0,0.0,0.0,1.541,1.541,0.0,0.0,0.0,0.0,0.0,0.0,1.3726,1.3183,1.2573,1.2543,1.2262,1.1657,1.0467,0.9646,0.9211,0.9211,0.9271,0.9391,0.978,1.0174,1.0593,1.0593,1.0593,1.0593,1.0593,1.0593,1.0593,1.0593,1.0593,0.0,0.0,0.0,0.0,0.0,0.0,0.0,0.0,1.0593,1.0593,1.0593,1.0593,1.0593,1.0593,1.0593,1.0593,1.0593,1.0727,1.1089,1.2047,1.175,1.1757,1.3654,1.3514,1.3454,1.515,1.489,1.4569,0.0,0.0,1.6506,0.0,0.0,0.0,0.0,0.0,0.0,0.0,0.0,0.0,0.0,0.0,0.0,0.0,0.0,0.0,0.0,0.0,0.0,0.0,0.0,0.0,0.0,1.9424,1.9424,1.9424,1.9424,1.9424,1.9424,1.9424,1.9062,1.8467,1.8467,1.8169,1.7513,1.6497,1.6079,1.5961,1.502,1.4604,1.4658,1.5069,1.495,1.4723,0.0,0.0,0.0,0.0,0.0,0.0,0.0,0.0,1.5752,0.0,0.0,0.0,0.0,1.541,0.0,0.0,0.0,0.0,1.4569,1.4055,1.3636,1.3403,1.3364,1.3135,1.2597,1.1317,1.0415,0.998,0.9748,0.9576,0.9497,0.9897,1.0274,1.0593,1.0593,1.0593,1.0624,1.0863,1.0989,1.0989,1.0989,1.0989,0.0,0.0,0.0,0.0,0.0,0.0,0.0,0.0,1.0593,1.0593,1.0593,1.0593,1.0593,1.0593,1.0593,1.0593,1.0593,1.0807,1.1229,1.2261,1.2084,1.2144,1.3841,1.3774,1.3828,1.5438,1.5571,1.5444,1.5752,0.0,0.0,0.0,0.0,0.0,0.0,0.0,0.0,0.0,0.0,0.0,0.0,0.0,0.0,0.0,0.0,0.0,0.0,0.0,0.0,0.0,0.0,0.0,0.0,1.9424,1.9424,1.9424,1.9424,1.9424,1.9424,1.9424,1.9424,1.9424,1.9424,1.9424,1.9307,1.8227,1.7747,1.7624,1.5961,1.5671,1.6208,1.6791,1.6615,1.6267,0.0,0.0,0.0,0.0,0.0,0.0,0.0,0.0,1.541,1.541,1.541,0.0,0.0,0.0,0.0,0.0,0.0,0.0,1.541,1.541,1.505,1.4243,1.4204,1.37,1.2635,1.2626,1.2315,1.1684,1.0901,1.0377,1.0083,1.009,1.0274,1.0624,1.0631,1.0631,1.0649,1.1476,1.181,1.1803,1.1803,1.1795,1.171,0.0,0.0,0.0,0.0,0.0,0.0,0.0,1.0593,1.0593,1.0593,1.0593,1.0593,1.06,1.0593,1.0593,1.06,1.0807,1.1136,1.1765,1.2098,1.2699,1.4175,1.3648,1.3393,1.5411,1.6526,1.7099,1.676,1.6947,0.0,0.0,0.0,0.0,0.0,0.0,0.0,0.0,0.0,0.0,0.0,0.0,0.0,0.0,0.0,0.0,0.0,0.0,0.0,0.0,0.0,0.0,0.0,1.9424,1.9424,1.9424,1.9424,1.9424,1.9424,1.9424,1.9424,1.9424,1.9424,1.9424,1.9424,1.9424,1.9424,1.9243,1.7624,1.7987,1.9185,1.7624,1.8046,1.9424,0.0,0.0,0.0,0.0,0.0,0.0,0.0,0.0,1.541,1.541,1.541,0.0,0.0,0.0,0.0,0.0,0.0,0.0,1.541,1.541,1.5294,1.505,1.505,1.4905,1.4578,1.4569,1.3436,1.1138,1.1096,1.0718,1.012,1.0327,1.0805,1.1459,1.2079,1.2027,1.1498,1.2345,1.202,1.0958,1.0958,1.1288,1.1764,0.0,0.0,0.0,0.0,0.0,0.0,0.0,0.0,0.0,1.0593,1.0593,1.0673,1.1049,1.0914,1.068,1.1056,1.1229,1.149,1.2321,1.2712,1.3166,1.4021,1.4305,1.47,1.5892,1.6346,1.6556,1.642,0.0,0.0,0.0,0.0,0.0,0.0,0.0,0.0,0.0,0.0,0.0,0.0,0.0,0.0,0.0,0.0,0.0,0.0,0.0,0.0,0.0,0.0,0.0,0.0,0.0,1.9424,1.9424,1.9424,1.9424,1.9424,1.9424,1.9424,1.9424,1.9424,1.9424,1.9424,1.9424,1.9424,1.9366,1.8881,1.9004,1.9366,1.8881,1.9004,1.9424,0.0,0.0,0.0,0.0,0.0,0.0,1.541,1.541,1.541,1.541,1.541,1.541,0.0,0.0,0.0,1.541,1.541,0.0,1.541,1.541,1.541,1.541,1.541,1.541,1.541,1.541,1.4349,1.2225,1.2378,1.2045,1.1253,1.145,1.181,1.2313,1.2838,1.26,1.1888,1.3028,1.2782,1.1569,1.1903,1.2328,1.2718,0.0,0.0,0.0,0.0,0.0,0.0,0.0,0.0,0.0,1.0713,1.0754,1.0929,1.1049,1.0995,1.0982,1.1295,1.1562,1.2017,1.3065,1.3327,1.3601,1.4422,1.4883,1.5418,0.0,1.6764,1.6844,1.6844,0.0,0.0,0.0,0.0,0.0,0.0,0.0,0.0,0.0,0.0,0.0,0.0,0.0,0.0,0.0,0.0,0.0,0.0,0.0,0.0,0.0,0.0,0.0,0.0,0.0,0.0,1.9018,1.9018,1.9018,1.9025,1.9259,1.9424,1.9424,1.9424,1.9424,1.9424,1.9424,1.9424,1.9424,1.9424,1.9424,1.9424,1.9424,1.9424,1.9424,0.0,0.0,1.541,1.541,0.0,0.0,1.541,1.541,1.541,1.541,1.541,1.541,0.0,0.0,0.0,1.541,1.541,1.541,0.0,1.541,1.541,1.541,1.541,1.541,1.541,1.541,1.505,1.4302,1.4243,1.3795,1.3009,1.3009,1.3039,1.31,1.3197,1.2783,1.2112,1.3584,1.3735,1.307,1.3726,1.4055,1.4115,1.3403,0.0,0.0,0.0,0.0,0.0,0.0,0.0,0.0,1.1045,1.1144,1.1451,1.0936,1.1206,1.1635,1.1524,1.1968,1.2716,1.3845,1.3925,1.4052,1.5231,1.5471,1.5772,1.6998,0.0,1.7522,1.7569,0.0,0.0,0.0,0.0,0.0,0.0,0.0,0.0,0.0,0.0,0.0,0.0,0.0,0.0,0.0,0.0,0.0,0.0,0.0,0.0,0.0,0.0,0.0,0.0,0.0,0.0,0.0,1.849,1.849,1.851,1.9045,1.9299,1.9383,1.9417,1.9424,1.9424,1.9424,1.9424,1.9424,1.9424,1.9424,1.9424,1.9424,1.9424,1.9424,0.0,0.0,1.541,1.541,0.0,0.0,1.541,1.541,1.541,1.541,1.541,1.541,1.541,1.541,0.0,1.541,1.541,1.541,1.541,1.541,1.541,1.541,1.541,1.541,1.541,1.541,1.5323,1.5138,1.451,1.3795,1.3009,1.3009,1.3342,1.3962,1.4666,1.4502,1.37,1.411,1.3773,1.2948,1.2504,1.3083,1.4183,1.4004,1.3936,0.0,0.0,0.0,0.0,0.0,0.0,0.0,1.2551,1.2561,1.2601,1.2328,1.292,1.3437,1.2407,1.2817,1.3653,1.4083,1.4464,1.5076,1.6184,1.6066,1.6066,1.7248,1.7168,1.7034,0.0,0.0,0.0,0.0,0.0,0.0,0.0,0.0,0.0,0.0,0.0,0.0,0.0,0.0,0.0,0.0,0.0,0.0,0.0,0.0,0.0,0.0,0.0,0.0,1.849,1.849,1.849,0.0,1.849,1.849,1.8497,1.8624,1.8804,1.9032,1.9265,1.9424,1.9424,1.9424,1.9424,1.9424,1.9424,1.9424,1.9424,1.9424,1.9424,1.9424,0.0,0.0,0.0,0.0,0.0,0.0,0.0,0.0,1.541,1.541,1.541,1.541,1.541,1.541,0.0,0.0,1.541,1.541,1.541,1.541,1.541,1.541,1.541,1.541,1.541,1.541,1.541,1.541,1.4991,1.4569,1.4154,1.4154,1.4353,1.4795,1.5256,1.4997,1.424,1.4646,1.4338,1.3575,1.3537,1.4016,1.4776,1.4776,1.4776,1.4776,1.4776,0.0,0.0,0.0,0.0,0.0,0.0,0.0,1.3339,1.2964,1.3429,1.3965,1.3247,1.4011,1.5217,1.6071,1.6765,1.7177,1.6958,1.7007,1.7134,1.7369,1.7241,0.0,0.0,0.0,0.0,0.0,0.0,0.0,0.0,0.0,0.0,0.0,0.0,0.0,0.0,0.0,0.0,0.0,0.0,0.0,0.0,0.0,0.0,0.0,0.0,0.0,1.8056,1.8056,1.8056,1.8056,1.8056,1.8056,1.8063,1.8357,1.8577,1.8724,1.8878,1.9025,1.9158,1.9158,1.9239,1.9424,1.9424,1.9424,1.9424,1.9424,1.9424,1.9424,0.0,0.0,0.0,0.0,0.0,0.0,0.0,0.0,0.0,1.541,1.541,1.541,1.541,1.541,1.541,0.0,0.0,0.0,1.541,1.541,1.541,1.541,1.541,1.541,1.541,1.541,1.541,1.541,1.541,1.5488,1.5615,1.5615,1.5615,1.5615,1.5615,1.5154,1.4451,1.4962,1.4903,1.4451,1.4991,1.5294,1.541,1.541,1.541,1.541,1.541,1.541,1.5294,1.4628,0.0,0.0,0.0,0.0,1.4034,1.3397,1.3773,1.432,1.3991,1.5138,1.6815,1.8255,1.8989,1.9072,1.7909,1.8159,1.8505,1.7957,0.0,0.0,0.0,0.0,0.0,0.0,0.0,0.0,0.0,0.0,0.0,0.0,0.0,0.0,0.0,0.0,0.0,0.0,0.0,0.0,0.0,0.0,0.0,0.0,0.0,1.7582,1.7582,1.7582,1.7582,1.7582,1.7582,1.7582,1.7602,1.8103,1.8364,1.8417,1.847,1.8631,1.8844,1.8844,1.9025,1.9292,1.9292,1.9325,1.9424,1.9424,1.9424,1.9424,0.0,0.0,0.0,0.0,0.0,0.0,0.0,0.0,0.0,0.0,1.541,1.541,1.541,1.541,1.541,1.541,1.541,1.541,1.541,0.0,0.0,1.541,1.541,1.541,1.541,1.541,1.541,1.541,1.541,1.5801,1.6521,1.6521,1.6521,1.6521,1.6521,1.6041,1.5196,1.4599,1.4688,1.5206,1.4599,1.4776,1.541,1.541,1.541,1.541,1.541,1.541,1.5381,1.5294,1.5235,0.0,0.0,0.0,1.5045,1.427,1.513,1.5968,1.4353,1.5649,1.7687,1.8431,1.8682,1.8941,1.9438,0.0,1.945,0.0,0.0,0.0,0.0,0.0,0.0,0.0,0.0,0.0,0.0,0.0,0.0,0.0,0.0,0.0,0.0,0.0,0.0,0.0,0.0,0.0,0.0,0.0,1.7622,1.7582,1.7582,0.0,1.7582,1.7582,1.7582,1.7582,1.7582,1.7582,1.7589,1.7662,1.7849,1.8069,1.8377,1.851,1.8551,1.8551,1.8718,1.8985,1.8985,1.9138,1.9424,1.9424,1.9424,1.9424,0.0,0.0,0.0,0.0,0.0,0.0,0.0,0.0,0.0,0.0,0.0,1.541,1.541,1.541,1.541,1.541,1.541,1.541,1.541,1.541,1.541,1.541,1.541,1.541,1.541,1.541,1.541,1.541,1.541,1.6113,1.7418,1.7418,1.7155,1.6726,1.7204,1.6658,1.541,1.5535,1.5519,1.5381,1.5021,1.5079,1.541,1.541,1.541,1.541,1.541,1.541,1.541,1.541,1.541,1.541,1.541,0.0,0.0,0.0,1.5377,1.6114,1.6745,1.7387,1.8386,2.0563,2.0458,1.9944,2.0526,2.0307,2.0133,0.0,0.0,0.0,0.0,0.0,0.0,0.0,0.0,0.0,0.0,0.0,0.0,0.0,0.0,0.0,0.0,0.0,0.0,0.0,0.0,0.0,0.0,1.7582,1.7582,1.7582,1.7582,0.0,1.7582,1.7582,1.7996,1.8708,1.8708,1.9117,1.9878,1.9878,1.9137,1.7796,1.7929,1.8083,1.8243,1.8243,1.8417,1.8684,1.8684,1.8858,1.9118,1.9118,1.9225,1.9424,0.0,0.0,0.0,0.0,0.0,0.0,0.0,0.0,0.0,0.0,0.0,1.541,1.541,0.0,0.0,0.0,1.541,1.541,1.541,1.541,1.541,1.541,1.541,1.541,1.541,1.541,1.541,1.541,1.541,1.6191,1.7652,1.791,1.7633,1.7058,1.7725,1.7285,1.6103,1.6512,1.6317,1.5722,1.5869,1.5713,1.542,1.5537,1.5508,1.541,1.541,1.541,1.541,1.541,1.541,1.541,1.541,1.541,0.0,0.0,0.0,1.5908,1.8184,1.8418,1.8701,2.1551,2.1269,2.043,0.0,0.0,0.0,0.0,0.0,0.0,0.0,0.0,0.0,0.0,0.0,0.0,0.0,0.0,0.0,0.0,0.0,0.0,0.0,0.0,0.0,0.0,0.0,0.0,1.8708,1.8655,1.8655,1.8655,1.8655,1.8655,1.8655,1.8655,1.9161,2.0135,2.0135,2.0684,2.1702,2.1702,2.0582,1.8603,1.8244,1.8232,1.8398,1.8037,1.8103,1.8432,1.8748,1.8877,1.8867,1.9192,1.9228,1.9158,0.0,0.0,0.0,0.0,0.0,0.0,0.0,0.0,0.0,0.0,0.0,1.541,1.541,1.541,1.541,1.541,1.541,1.541,1.541,1.541,1.541,1.541,1.541,0.0,1.541,1.541,1.541,1.541,1.541,1.5859,1.6785,1.7594,1.7988,1.7949,1.7988,1.7959,1.7822,1.7028,1.6668,1.6668,1.7119,1.6533,1.5459,1.5899,1.5801,1.541,1.541,1.541,1.541,1.541,1.541,1.541,1.541,1.541,1.541,0.0,0.0,0.0,1.7109,1.7744,1.834,1.9736,1.9717,1.959,0.0,0.0,0.0,0.0,0.0,0.0,0.0,0.0,0.0,0.0,0.0,0.0,0.0,0.0,0.0,0.0,0.0,0.0,0.0,0.0,0.0,0.0,0.0,0.0,2.1499,2.1499,2.1499,2.1499,2.1499,2.1499,2.1499,2.1499,2.1541,2.16,2.16,2.1651,2.1702,2.1702,2.16,2.1389,2.0084,1.9487,1.9398,1.8115,1.7789,1.8171,1.9473,1.9405,1.8677,1.9942,1.9635,1.8577,0.0,0.0,0.0,0.0,0.0,0.0,0.0,0.0,0.0,0.0,0.0,0.0,0.0,1.541,1.541,1.541,1.541,1.541,1.541,1.541,1.541,1.541,1.541,1.541,1.541,1.541,1.541,1.541,1.541,1.5839,1.6707,1.7019,1.7447,1.8057,1.916,1.874,1.7213,1.8037,1.7568,1.6387,1.7383,1.7168,1.6307,1.7041,1.7217,1.7041,1.6777,1.6855,1.6953,1.6113,1.586,1.5811,1.5498,1.541,1.541,1.541,1.541,1.5703,1.7021,1.7112,1.7266,1.9385,1.8984,1.8506,2.0224,2.0723,0.0,0.0,0.0,0.0,0.0,0.0,0.0,0.0,0.0,0.0,0.0,0.0,0.0,0.0,0.0,0.0,0.0,0.0,0.0,0.0,0.0,0.0,2.1736,2.142,2.1403,2.1693,2.1702,2.1702,2.1702,2.1702,2.2106,2.2968,2.2968,2.3434,2.4254,2.4254,2.4254,2.4196,2.2826,2.176,2.0888,2.0428,2.03,2.0416,2.0925,2.099,2.0894,2.1357,2.0811,1.9778,0.0,1.9254,1.9345,1.9097,0.0,1.9176,1.8447,1.8112,1.7605,1.6624,0.0,0.0,0.0,0.0,1.541,1.541,1.541,1.541,1.541,1.541,1.541,1.541,1.541,1.541,1.541,1.541,1.541,1.541,1.541,1.5713,1.6268,1.656,1.6999,1.7613,1.9219,1.9131,1.7837,1.9014,1.875,1.767,1.8359,1.8223,1.7603,1.8022,1.8135,1.8008,1.8018,1.8018,1.792,1.7376,1.6985,1.6672,1.6211,1.5771,1.541,1.541,1.541,1.5605,1.6484,1.6427,1.6506,1.8193,1.7998,1.7754,1.9216,0.0,0.0,0.0,0.0,0.0,0.0,0.0,0.0,0.0,0.0,0.0,0.0,0.0,0.0,0.0,0.0,0.0,0.0,0.0,0.0,0.0,0.0,0.0,2.2614,2.2329,2.2372,2.2807,2.2825,2.2886,2.3026,2.3026,2.3484,2.4353,2.4353,2.4815,2.5693,2.5693,2.5693,2.5635,2.4766,2.3583,2.2357,2.1904,2.1702,2.1752,2.2206,2.2215,2.2031,2.2493,2.1911,2.0924,1.7649,1.8248,1.8501,1.7797,1.8259,1.8501,1.7759,1.7034,1.6578,1.6539,0.0,0.0,0.0,0.0,0.0,1.5449,1.5449,1.542,1.543,1.543,1.542,1.541,1.541,1.541,1.541,1.541,1.541,1.541,1.541,1.541,1.543,1.6268,1.6677,1.6736,1.8013,1.9046,1.9883,1.9912,2.0137,2.0478,2.0107,1.9678,1.9209,1.8831,1.8412,1.8164,1.9033,1.8799,0.0,1.9033,0.0,0.0,1.75,1.6475,1.543,1.543,1.542,1.541,0.0,0.0,0.0,1.6085,0.0,0.0,1.7373,0.0,0.0,0.0,0.0,0.0,0.0,0.0,0.0,0.0,0.0,0.0,0.0,0.0,0.0,0.0,0.0,0.0,0.0,0.0,0.0,0.0,0.0,2.4404,2.4414,2.4414,2.4609,2.5077,2.5096,2.5254,2.5645,2.5664,2.5664,2.5664,2.5684,2.5693,2.5693,2.5693,2.5693,2.5693,2.5693,2.4971,2.3642,2.2366,2.1803,2.1954,2.3226,2.2968,2.1954,2.3276,2.2926,2.1802,1.9202,1.9371,1.9423,1.9228,1.9371,1.9423,1.9228,1.8581,1.7895,0.0,0.0,0.0,1.5468,1.5693,1.6016,1.6307,1.6336,1.623,1.5938,1.5919,1.5742,1.542,1.541,1.541,1.541,1.541,1.541,1.541,1.541,1.541,1.542,1.5986,1.6281,1.6339,1.7607,1.8451,1.9017,1.999,1.9597,1.8472,2.0508,2.0146,1.8555,2.0322,2.0137,0.0,0.0,2.0332,1.9881,0.0,1.9134,1.8247,1.7204,1.6436,1.5919,1.5919,1.5664,1.541,1.541,0.0,0.0,0.0,0.0,0.0,1.7269,1.8311,0.0,0.0,0.0,0.0,0.0,0.0,0.0,0.0,0.0,0.0,0.0,0.0,0.0,0.0,0.0,0.0,0.0,0.0,0.0,0.0,0.0,2.4092,2.4394,2.4414,2.4473,2.459,2.459,2.4658,2.4775,2.5098,2.5254,2.5254,2.5586,2.5693,2.5693,2.5693,2.5693,2.5693,2.5693,2.5479,2.5118,2.4766,2.4609,2.4609,2.502,2.4913,2.4658,2.502,2.4304,2.3144,1.9798,1.9798,1.9798,1.9798,1.9798,1.9798,1.9798,1.9397,1.8912,0.0,0.0,0.0,1.6017,1.6191,1.6445,1.6677,1.6697,1.659,1.6357,1.6338,1.623,1.5946,1.5937,1.5937,1.5937,1.5781,1.5684,1.5684,1.5684,1.5684,1.5693,1.6133,1.6338,1.6387,1.7324,1.7881,1.8203,1.9482,1.9774,1.9385,2.0811,2.0859,2.0273,2.1445,2.126,0.0,0.0,0.0,2.1133,2.1221,2.0284,0.0,0.0,1.7275,1.6416,1.6799,1.6309,1.5684,1.5684,1.5547,1.5469,1.5723,0.0,0.0,1.6953,1.8149,1.9297,0.0,0.0,0.0,0.0,0.0,0.0,0.0,0.0,0.0,0.0,0.0,0.0,0.0,0.0,0.0,0.0,0.0,0.0,0.0,2.3652,2.3623,2.3867,2.3842,2.3965,2.415,2.415,2.4238,2.4414,2.4668,2.4795,2.4805,2.5244,2.5459,2.5469,2.5606,2.5693,2.5693,2.5693,2.5693,2.5693,2.5693,2.5693,2.5693,2.5693,2.5693,2.5693,2.5693,2.5226,2.4501,0.0,1.9798,1.9823,1.9886,1.9899,1.9924,1.9974,1.9812,1.9702,0.0,1.8696,1.7678,1.686,1.6775,1.6794,1.6843,1.6843,1.6824,1.6775,1.6775,1.6755,1.6697,1.6697,1.6697,1.6697,1.6338,1.6163,1.6163,1.6163,1.6163,1.6183,1.6592,1.6775,1.6794,1.7256,1.7484,1.7529,1.8662,2.0098,2.1543,2.0987,2.1572,2.275,0.0,2.1982,2.1943,2.2886,2.2705,2.206,2.2721,2.1678,0.0,0.0,0.0,0.0,0.0,1.708,1.6163,1.6163,1.585,1.5547,1.5498,1.5781,0.0,1.6562,1.8125,1.9639,0.0,0.0,0.0,0.0,0.0,0.0,0.0,0.0,0.0,0.0,0.0,0.0,0.0,0.0,0.0,0.0,0.0,0.0,2.3091,2.3091,2.3091,2.3091,2.3091,2.3276,2.3711,2.3721,2.3896,2.4268,2.4326,2.4346,2.4355,2.4785,2.5067,2.5125,2.5478,2.5645,2.5693,2.5693,2.5693,2.5693,2.5693,2.5693,2.5693,2.5693,2.5693,2.5693,2.5693,2.5693,2.5693,1.9798,1.9798,1.9949,2.044,2.0515,2.0679,2.1091,2.0644,2.0239,2.0239,1.8937,1.7802,1.7314,1.7256,1.7393,1.7734,1.7764,1.7617,1.7275,1.7256,1.71,1.6716,1.6697,1.6697,1.6697,1.6619,1.657,1.657,1.657,1.657,1.658,1.7051,1.7256,1.7275,1.7705,1.7891,1.79,1.8154,1.8848,1.9902,2.1133,2.1406,2.124,2.2822,2.2559,2.157,2.3486,2.3398,2.2363,2.2187,2.1846,2.125,0.0,0.0,0.0,1.7656,0.0,0.0,0.0,0.0,0.0,0.0,0.0,0.0,1.6202,1.6545,1.7171,0.0,0.0,0.0,0.0,0.0,0.0,0.0,0.0,0.0,0.0,0.0,0.0,0.0,0.0,0.0,0.0,0.0,2.3091,2.3091,2.3091,2.3091,2.3091,2.3091,2.314,2.3218,2.3218,2.3257,2.3344,2.374,2.3906,2.3916,2.4336,2.4727,2.5116,2.5156,2.54,2.5693,2.5693,2.5693,2.5693,2.5693,2.5693,2.5693,2.5693,2.5693,2.5693,2.5693,2.5693,2.5693,2.0639,2.0639,2.0727,2.1056,2.1106,2.1194,2.1443,2.1423,2.1354,2.1354,2.0526,1.9546,1.8463,1.8362,1.8255,1.8022,1.8008,1.792,1.7705,1.7695,1.7787,1.8005,1.7995,1.8211,1.8648,1.7985,1.7661,1.7661,1.7234,1.7061,1.7061,1.75,1.7695,1.7705,1.792,1.8008,1.8008,1.8008,1.8623,1.9717,2.1025,0.0,2.1719,2.3447,2.3574,2.2925,2.3988,2.4004,2.3369,2.2725,2.2519,0.0,0.0,2.0156,1.9114,0.0,1.7725,1.7061,0.0,0.0,0.0,1.6455,0.0,0.0,0.0,1.6728,1.7217,0.0,0.0,0.0,0.0,0.0,0.0,0.0,0.0,0.0,0.0,0.0,0.0,0.0,0.0,0.0,0.0,0.0,2.3091,2.3091,2.3091,2.3091,2.3091,2.3091,2.3091,2.3091,2.3091,2.3091,2.3091,2.3315,2.3467,2.3467,2.3896,2.4219,2.4443,2.4648,2.498,2.54,2.54,2.5527,2.5693,2.5693,2.5693,2.5693,2.5693,2.5693,2.5693,2.5693,2.5693,2.5693,2.1531,2.1493,2.1518,2.1631,2.1644,2.1681,2.1794,2.2184,2.2414,2.2225,2.2025,2.1371,2.0006,1.9669,1.9339,1.8863,1.8815,1.8642,1.8279,1.8428,1.8768,1.9276,1.9299,1.9726,2.059,1.9532,1.8892,1.8732,1.8094,1.7698,1.751,1.7852,1.8008,1.8008,1.8008,1.8105,1.8262,1.834,1.9072,2.0254,0.0,2.2002,2.2549,2.3994,2.4443,2.4316,2.4482,2.4541,2.4394,2.3413,2.3144,2.3076,2.2559,2.125,0.0,0.0,0.0,0.0,0.0,0.0,0.0,0.0,0.0,1.6804,0.0,0.0,0.0,0.0,0.0,0.0,0.0,0.0,0.0,0.0,0.0,0.0,0.0,0.0,0.0,0.0,0.0,0.0,0.0,0.0,2.2711,2.2955,2.2974,2.3013,2.3091,2.3091,2.3091,2.3091,2.3091,2.3091,2.3091,2.3091,2.3091,2.3101,2.3496,2.3711,2.3799,2.4141,2.4531,2.4951,2.5077,2.5273,2.5567,2.5654,2.5693,2.5693,2.5693,2.5693,2.5693,2.5693,2.5693,2.5693,2.1681,2.1493,2.1644,2.2133,2.2221,2.2355,2.2844,2.297,2.2754,2.2041,2.1904,2.1905,2.1857,2.1007,2.0807,2.1641,2.1719,2.0981,1.9262,2.003,2.0183,1.9341,1.9299,1.9726,2.059,2.0438,1.9987,1.9225,1.9126,1.8683,1.7939,1.7988,1.8008,1.8008,1.8008,1.8437,1.917,1.9541,2.0196,0.0,2.2852,2.2881,0.0,2.4264,2.4521,2.3965,2.4727,2.5047,2.4805,0.0,2.3101,2.2964,0.0,2.1016,1.9902,1.9853,0.0,0.0,0.0,0.0,0.0,0.0,1.7859,0.0,0.0,0.0,0.0,0.0,0.0,0.0,0.0,0.0,0.0,0.0,0.0,0.0,0.0,0.0,0.0,0.0,0.0,0.0,0.0,0.0,0.0,2.249,2.2578,2.2701,2.3081,2.3091,2.3091,2.3091,2.3091,2.3091,2.3091,2.3091,2.3091,2.3091,2.314,2.3418,2.3789,2.3838,2.4092,2.4512,2.4902,2.5145,2.5223,2.5528,2.5693,2.5693,2.5693,2.5693,2.5693,2.5693,2.5693,2.5693,2.2506,2.2447,2.2493,2.2719,2.2757,2.2844,2.307,2.3108,2.3099,2.3114,2.312,2.3317,2.3862,2.3558,2.3491,2.4075,2.4118,2.3754,0.0,2.2435,2.2178,2.2196,2.13,2.1195,2.2021,2.1585,2.0942,2.0042,1.9562,1.8854,1.8008,1.8008,1.8008,1.8008,1.8529,1.9093,1.9695,2.0373,2.1161,0.0,0.0,0.0,0.0,2.4736,2.5234,2.4902,2.4746,2.5019,2.531,0.0,2.4237,0.0,0.0,0.0,0.0,0.0,0.0,0.0,0.0,0.0,0.0,0.0,0.0,0.0,1.8739,0.0,1.6711,0.0,0.0,0.0,0.0,0.0,0.0,0.0,0.0,0.0,0.0,0.0,0.0,0.0,0.0,0.0,0.0,0.0,0.0,0.0,0.0,2.1804,2.198,2.2691,2.3091,2.3091,2.3091,2.3091,2.3091,2.3091,2.3091,2.3091,2.3091,2.3188,2.3408,2.3408,2.3643,2.4062,2.4248,2.4463,2.4727,2.5166,2.5352,2.5371,2.5586,2.5693,2.5693,2.5693,2.5693,2.5693,2.3108,2.3108,2.3108,2.3108,2.3108,2.3108,2.3108,2.3484,2.3923,2.4381,2.4569,2.5037,2.5884,2.5316,2.5228,2.6132,2.6094,2.5957,0.0,0.0,2.4353,2.4967,2.3132,2.2643,2.3772,2.2757,2.1803,2.0942,2.0333,1.9562,1.8721,1.8721,1.8721,1.8721,1.911,1.9661,2.0297,0.0,2.2149,2.3335,2.3374,2.3584,2.3984,2.499,2.5479,2.5654,2.5367,2.5461,2.5642,2.5211,2.5425,0.0,2.5925,0.0,0.0,0.0,0.0,0.0,2.3343,0.0,0.0,0.0,0.0,0.0,0.0,0.0,0.0,0.0,0.0,0.0,0.0,0.0,0.0,0.0,0.0,0.0,0.0,0.0,0.0,0.0,0.0,0.0,0.0,0.0,0.0,0.0,2.0557,0.0,2.1045,2.2223,2.2925,2.2925,2.3033,2.3091,2.3091,2.3091,2.3091,2.3091,2.3091,2.3091,2.3091,2.3091,2.331,2.3623,2.374,2.4136,2.4715,2.5162,2.5645,2.6093,2.6391,2.6365,2.6197,2.583,2.5693,2.5693,2.3108,2.3108,2.3108,2.3108,2.3108,2.3108,2.3108,2.4494,2.5523,2.5548,2.6072,2.6839,2.7885,0.0,0.0,0.0,0.0,2.7111,2.6777,0.0,2.6692,0.0,0.0,2.3571,2.5498,2.3891,2.2659,2.1846,2.1815,2.1365,2.0526,2.0526,2.0526,2.0494,1.9661,1.9996,2.1182,2.166,2.3291,2.5509,2.557,2.5596,2.5518,0.0,2.499,2.5868,2.7047,0.0,0.0,2.6103,2.6262,0.0,0.0,0.0,0.0,0.0,0.0,0.0,0.0,0.0,0.0,2.3849,0.0,0.0,0.0,0.0,1.9337,0.0,0.0,0.0,0.0,0.0,1.755,1.7523,0.0,0.0,0.0,0.0,0.0,0.0,0.0,0.0,0.0,0.0,0.0,0.0,1.9446,0.0,2.0605,2.1826,2.2539,2.2539,2.2886,2.3091,2.3091,2.3091,2.3091,2.3091,2.3091,2.3091,2.3091,2.3091,2.3101,2.314,2.3603,2.4395,2.5388,2.5857,2.7008,2.85,2.8511,2.8093,2.74,2.6149,2.5693,2.5693,2.3853,2.3358,2.3108,2.3108,2.3108,2.3233,2.364,2.4494,2.5473,0.0,2.6914,0.0,0.0,2.9453,2.9264,0.0,0.0,3.0791,2.9898,2.95,0.0,0.0,0.0,2.6251,0.0,2.5657,2.4394,2.2432,2.2432,2.1786,2.059,2.059,2.059,2.0634,2.1263,2.1958,0.0,0.0,0.0,0.0,0.0,2.6115,2.6018,0.0,0.0,2.5878,2.7125,2.7315,0.0,2.8121,2.8398,2.8521,2.9386,2.8645,2.7942,3.0494,2.8915,0.0,0.0,0.0,2.6188,2.6907,0.0,0.0,0.0,0.0,0.0,0.0,0.0,0.0,0.0,0.0,1.8638,1.7733,1.8004,0.0,0.0,0.0,0.0,0.0,0.0,0.0,0.0,0.0,0.0,1.7291,1.791,1.8301,0.0,2.0498,2.1629,2.1629,2.2584,2.3091,2.3091,2.3091,2.3464,2.4211,2.4211,2.4638,2.5358,2.5358,2.5358,2.5358,2.5519,2.5806,2.6176,2.6605,2.7117,2.7674,2.8332,2.8465,2.8152,2.7285,2.6428,2.5693,2.4506,2.396,2.3584,2.317,2.3283,2.3766,2.4732,2.5335,0.0,0.0,2.8461,0.0,3.1449,0.0,3.1348,0.0,3.1938,3.2102,3.2554,3.0783,0.0,3.1725,2.9227,0.0,0.0,0.0,0.0,2.4609,2.3843,2.3187,2.2709,2.2268,2.2104,2.2116,2.2716,2.3207,2.3756,2.5774,2.7117,0.0,0.0,2.7424,0.0,0.0,2.6839,2.7163,0.0,2.8588,2.8454,2.9741,3.0127,3.0201,3.1052,3.0664,3.0323,3.2457,3.1013,2.9037,3.0698,2.9711,0.0,0.0,2.7295,0.0,2.5863,0.0,0.0,0.0,0.0,0.0,0.0,0.0,2.0165,1.8901,1.8926,1.8821,0.0,1.777,0.0,0.0,0.0,0.0,0.0,0.0,1.6227,1.6138,1.7062,1.7479,0.0,0.0,2.0916,2.1075,2.2639,2.3358,2.3091,2.3887,2.4467,2.4787,2.521,2.5797,2.6524,2.6524,2.6524,2.6524,2.6524,2.6719,2.711,2.7348,2.7796,2.8414,2.9036,2.9297,2.9169,2.8506,2.772,2.703,2.5039,2.4813,2.4462,2.3409,2.3722,0.0,0.0,0.0,2.8222,0.0,3.0708,3.1122,3.2139,3.1399,3.1399,3.291,3.1135,3.126,3.4361,3.0658,0.0,0.0,2.9905,2.8612,3.0658,0.0,0.0,0.0,0.0,2.546,2.6474,2.5335,2.4788,2.4755,2.3947,2.3857,2.4328,2.5505,2.6914,2.8435,2.9237,2.95,2.9409,2.8925,0.0,2.9795,3.0892,3.0566,2.9749,3.0946,3.1347,3.1347,3.1323,3.2152,3.3124,3.3124,3.3124,3.2955,3.2403,3.224,3.1838,3.0294,0.0,0.0,0.0,0.0,2.6046,0.0,0.0,0.0,0.0,0.0,0.0,2.0955,2.0239,1.9553,0.0,0.0,0.0,0.0,0.0,0.0,0.0,1.6965,1.7036,1.53,1.696,1.7575,0.0,0.0,0.0,2.1003,2.3047,2.3846,2.3256,2.5346,2.592,2.4999,2.6058,2.6595,2.6648,2.6648,2.6648,2.6648,2.6648,2.725,2.8176,2.8176,2.9111,3.057,3.0608,3.054,3.0411,2.9681,2.9407,2.9407,2.5624,2.5084,2.4813,2.4946,2.5787,2.6728,0.0,0.0,0.0,0.0,3.1926,3.2554,3.283,3.3345,3.3169,3.1926,3.2077,0.0,0.0,0.0,0.0,3.4437,3.342,3.2491,3.1813,3.1097,0.0,2.8675,0.0,2.659,2.6474,2.5335,2.4788,2.4813,2.4979,2.5128,2.5391,2.7778,2.8947,2.9249,2.9225,2.9586,0.0,0.0,3.1872,3.3247,3.2687,3.2261,3.211,3.293,3.3219,3.3144,3.2736,3.284,3.3124,3.3124,3.3124,3.3086,3.2893,3.2541,3.2114,3.17,3.057,2.9377,0.0,0.0,0.0,0.0,0.0,0.0,0.0,0.0,0.0,2.2071,2.0715,1.9721,0.0,0.0,0.0,0.0,0.0,0.0,0.0,1.7082,1.6847,1.6392,1.6848,0.0,0.0,0.0,0.0,2.2926,2.2855,2.3681,2.563,2.537,2.5933,2.7267,2.7562,2.8108,2.8961,2.8961,2.8961,2.8961,2.8961,2.9118,2.9365,2.9365,2.9621,3.0043,3.0457,3.1057,3.1564,2.9985,2.9407,2.9407,2.6223,2.5937,2.5988,2.6289,0.0,0.0,2.9189,3.0206,0.0,3.2679,3.3194,0.0,3.411,3.4926,3.4926,3.3671,3.3031,0.0,3.3564,0.0,0.0,3.4944,3.4387,3.3558,3.2604,3.234,0.0,3.0317,0.0,2.7733,2.792,2.6289,2.5536,2.5548,2.585,2.5975,2.6172,2.8712,3.0174,3.0718,3.055,0.0,0.0,3.2514,3.364,3.5023,3.4576,3.411,3.3717,3.4125,3.4261,3.4161,3.3608,3.3432,3.3382,3.3156,3.3124,3.3124,3.3124,3.283,3.2591,3.2591,3.1712,3.0771,3.0432,2.9767,2.9026,0.0,0.0,0.0,0.0,0.0,0.0,0.0,0.0,0.0,0.0,0.0,0.0,0.0,0.0,0.0,0.0,0.0,1.6965,0.0,0.0,0.0,0.0,0.0,0.0,0.0,2.2981,2.3968,2.4993,2.5385,2.6158,2.7391,2.7869,2.869,2.9792,2.9792,2.9792,2.9792,2.9792,2.9792,2.9792,2.9792,2.9792,2.9867,3.0645,3.1323,3.1772,3.1225,3.1012,3.1012,2.6927,2.709,0.0,0.0,0.0,0.0,0.0,3.1549,0.0,3.4474,0.0,3.4537,3.5307,3.5994,3.6355,3.6204,0.0,3.3571,3.6028,3.2566,3.2001,3.5458,3.4274,3.3514,3.3395,3.2905,3.2616,0.0,2.9779,2.8938,2.9842,2.758,2.6499,2.6499,2.6499,2.67,0.0,2.8913,3.0696,3.2328,3.2403,3.3307,3.4587,3.4324,3.4813,3.5671,3.6194,3.5742,3.4926,3.4806,3.4781,3.4726,3.4173,3.401,3.3897,3.3345,3.3181,3.3212,3.3136,3.3124,3.3124,3.3124,3.2704,3.2303,3.2227,3.1486,3.0783,3.0645,3.0231,0.0,0.0,0.0,0.0,0.0,0.0,0.0,0.0,0.0,0.0,0.0,0.0,0.0,0.0,0.0,0.0,0.0,0.0,0.0,0.0,0.0,0.0,0.0,2.3138,0.0,2.3745,0.0,2.6643,2.694,2.7718,2.8699,2.9792,2.9792,2.9792,2.9792,2.9792,2.9792,2.9792,2.9792,2.9829,2.9993,3.0997,3.1436,3.1625,3.2692,3.3124,3.3124,2.8034,2.7896,0.0,0.0,0.0,3.1336,3.3056,3.4129,3.4743,3.4726,3.5429,3.5655,3.4939,3.5755,3.5994,3.509,3.4562,0.0,0.0,0.0,0.0,3.6144,3.5977,3.5567,3.5082,3.4969,3.4693,0.0,3.1524,3.0269,3.0407,2.7756,2.6499,2.6499,2.6499,0.0,2.9854,2.9276,0.0,3.2968,3.342,3.3784,3.4186,3.5454,3.6103,3.6279,3.6367,3.6279,3.6053,3.5508,3.5357,3.5257,3.4705,3.4575,3.4462,3.3922,3.3759,3.3658,3.3206,3.3124,3.3124,3.3124,3.3006,3.2805,3.2328,3.2064,3.1687,3.0796,3.0545,3.0269,2.9616,0.0,0.0,0.0,0.0,0.0,0.0,0.0,0.0,0.0,0.0,0.0,0.0,0.0,0.0,0.0,0.0,0.0,0.0,0.0,0.0,0.0,0.0,0.0,0.0,0.0,0.0,2.9196,2.8474,2.8699,2.9792,2.9792,2.9792,2.9792,2.9792,2.9792,2.9792,2.9792,3.0068,3.0532,3.1148,3.1675,3.2152,3.283,3.3124,3.3124,2.9089,0.0,0.0,0.0,0.0,0.0,0.0,3.4889,0.0,3.5604,3.6078,3.6204,3.5629,3.6091,3.6191,3.5617,3.5052,3.4964,3.5529,3.5039,3.5215,3.6355,3.6405,0.0,3.5094,3.5357,3.5094,3.4299,3.2089,3.1022,3.0947,2.8221,2.6927,2.6952,2.7494,2.8649,0.0,0.0,0.0,3.3583,3.4412,3.4926,3.5265,3.6103,3.6405,3.6405,3.6405,3.6405,3.6367,3.6056,3.5968,3.5881,3.5282,3.5107,3.4994,3.4487,3.4123,3.3847,3.3583,3.3294,3.3124,3.3124,3.3124,3.3006,3.2717,3.2428,3.2064,3.1549,3.1009,3.0269,2.9126,2.7808,0.0,0.0,0.0,0.0,0.0,0.0,0.0,0.0,0.0,0.0,0.0,0.0,0.0,0.0,0.0,0.0,0.0,0.0,0.0,0.0,0.0,0.0,0.0,0.0,0.0,2.8913,2.836,2.8699,2.9792,2.9792,2.9792,2.9792,2.9792,2.9792,2.9817,3.0105,3.0382,3.0696,3.1499,3.1976,3.2277,3.2867,3.3124,3.3124,0.0,3.0118,0.0,0.0,3.1775,0.0,3.374,3.5052,3.6141,3.638,3.6405,3.6405,3.6405,3.6405,3.6317,3.6078,3.5441,3.524,3.5676,3.529,3.5353,3.6028,3.6279,3.6003,3.509,3.5504,3.529,0.0,3.2742,3.1625,0.0,2.8825,2.7821,0.0,0.0,0.0,0.0,0.0,3.3709,3.45,3.5366,3.5981,3.6405,3.6405,3.6405,3.6405,3.6405,3.6405,3.6405,3.6405,3.6405,3.6329,3.5855,3.5671,3.5558,3.5019,3.4587,3.4223,3.411,3.3671,3.3257,3.3257,3.3169,3.3124,3.3124,3.2717,3.2353,3.224,3.1361,3.0218,2.8888,2.8348,0.0,0.0,0.0,0.0,0.0,0.0,0.0,0.0,0.0,0.0,0.0,0.0,0.0,0.0,0.0,0.0,0.0,0.0,0.0,0.0,0.0,0.0,2.6298,0.0,2.7165,0.0,2.8222,2.8699,2.9792,2.9792,2.9792,2.9792,2.9792,2.9854,3.0005,3.0557,3.0859,3.1035,3.1888,3.229,3.2453,3.2905,3.3124,3.3124,0.0,0.0,0.0,0.0,0.0,0.0,0.0,3.5378,3.5228,3.6279,3.6405,3.6405,3.6405,3.6405,3.5956,3.4964,3.5692,3.5449,3.3551,3.5198,3.5805,3.4914,3.583,3.6355,3.6254,3.6304,3.6279,0.0,0.0,3.239,0.0,0.0,0.0,0.0,0.0,0.0,0.0,3.3734,3.4713,3.6179,3.6292,3.6367,3.6405,3.6405,3.6405,3.6405,3.6405,3.6405,3.6405,3.6405,3.6405,3.6405,3.6342,3.6329,3.6182,3.5583,3.5382,3.5232,3.4776,3.4248,3.3822,3.3822,3.3445,3.3124,3.3124,3.3074,3.2842,3.2328,3.1361,3.057,3.0407,2.9139,2.772,0.0,0.0,0.0,0.0,0.0,0.0,0.0,0.0,0.0,0.0,0.0,0.0,0.0,0.0,0.0,0.0,0.0,0.0,0.0,0.0,2.3552,2.5649,2.6235,0.0,2.9628,2.8599,2.8699,2.9792,2.9792,2.9792,2.9792,2.9792,3.008,3.0583,3.1097,3.1612,3.2077,3.2177,3.2528,3.3006,3.3056,3.3124,3.3124,0.0,0.0,0.0,0.0,0.0,0.0,0.0,3.5567,3.5855,3.6355,3.6405,3.6405,3.6405,3.6405,3.6229,3.5742,3.6153,3.6028,3.5148,3.5915,3.6216,3.5717,3.6179,3.6405,3.6405,3.6405,3.6405,0.0,0.0,0.0,0.0,0.0,0.0,0.0,0.0,3.3458,3.4437,3.5102,3.5801,3.6405,3.6405,3.6405,3.6405,3.6405,3.6405,3.6405,3.6405,3.6405,3.6405,3.6405,3.6405,3.6405,3.6405,3.6405,3.6367,3.6094,3.5805,3.5445,3.5232,3.4768,3.4311,3.3985,3.3734,3.3483,3.3156,3.3124,3.3048,3.278,3.2114,3.1373,3.0733,3.0068,2.9139,0.0,0.0,0.0,0.0,0.0,0.0,0.0,0.0,0.0,0.0,0.0,0.0,0.0,0.0,0.0,0.0,0.0,0.0,2.3251,0.0,2.5523,2.8097,2.767,2.8235,2.9779,2.934,2.9352,2.9792,2.9792,2.998,3.0306,3.062,3.0871,3.1122,3.1662,3.2014,3.2252,3.2591,3.2867,3.3124,3.3124,3.3124,3.3124,3.5203,0.0,3.4092,0.0,3.4688,3.509,3.4731,3.5655,3.6292,3.5918,3.6204,3.6405,3.6405,3.6405,3.6279,3.5952,3.6216,3.6128,3.5475,3.6053,3.6267,3.5893,3.6229,0.0,3.6405,3.6405,3.6405,3.6405,3.4846,0.0,0.0,0.0,0.0,0.0,3.4123,3.4839,3.5253,3.6078,3.6405,3.6405,3.6405,3.6405,3.6405,3.6405,3.6405,3.6405,3.6405,3.6405,3.6405,3.6405,3.6405,3.6405,3.6405,3.6405,3.6405,3.6405,3.6094,3.578,3.578,3.5332,3.4818,3.4487,3.4135,3.3796,3.3407,3.3194,3.3124,3.3124,3.2616,3.1989,3.1223,3.0821,3.0118,0.0,0.0,0.0,0.0,0.0,0.0,0.0,2.4393,2.3847,2.582,0.0,0.0,0.0,0.0,0.0,0.0,0.0,0.0,0.0,0.0,0.0,0.0,0.0,2.8348,2.9792,2.9792,2.988,3.0043,3.0193,3.0482,3.0871,3.1399,3.1637,3.1675,3.224,3.2466,3.2503,3.2918,3.3124,3.3124,3.3124,3.3124,3.3124,3.6392,3.638,3.6367,3.6367,3.638,3.6015,3.4889,3.5655,3.6015,3.4889,3.5692,3.6405,3.6405,3.6405,3.5965,3.4839,3.573,3.5475,3.3257,3.5198,3.5881,0.0,0.0,3.6405,3.6405,3.6405,3.6405,3.6405,0.0,0.0,3.2227,0.0,0.0,3.4738,3.5843,3.638,3.6392,3.6405,3.6405,3.6405,3.6405,3.6405,3.6405,3.6405,3.6405,3.6405,3.6405,3.6405,3.6405,3.6405,3.6405,3.6405,3.6405,3.6405,3.6405,3.6405,3.6405,3.6405,3.6405,3.5956,3.5495,3.5483,3.4655,3.3897,3.3884,3.347,3.3124,3.3124,3.2616,3.2215,3.219,3.1323,3.0204,2.9063,0.0,0.0,0.0,0.0,0.0,0.0,2.4111,2.3547,2.47,0.0,0.0,0.0,0.0,0.0,0.0,0.0,0.0,2.2259,2.182,0.0,2.4825,2.5971,2.763,2.9792,2.9792,3.008,3.062,3.1135,3.1373,3.1411,3.1964,3.2202,3.2252,3.283,3.3111,3.3111,3.3124,3.3124,3.3124,3.3124,3.3124,3.3124,3.4274,3.5374,3.6166,3.5378,3.5855,3.6292,3.5893,3.6458,3.6797,3.6445,3.7036,3.7475,3.7475,3.6857,3.6267,0.0,3.5479,3.5265,0.0,3.5265,3.5429,3.5818,3.5454,3.524,3.524,3.524,3.524,3.524,0.0,0.0,0.0,3.3878,3.4613,3.5855,3.6254,3.6405,3.6405,3.6405,3.6405,3.6405,3.6405,3.6405,3.6405,3.6405,3.6405,3.6405,3.6405,3.6405,3.6405,3.6405,3.6405,3.6405,3.6405,3.6405,3.6405,3.6405,3.6405,3.6405,3.6405,3.6279,3.6006,3.5596,3.5232,3.4781,3.4073,3.347,3.3124,3.3124,3.293,3.2679,3.229,3.1938,3.1097,2.9189,0.0,0.0,0.0,0.0,0.0,0.0,2.5297,2.4838,0.0,2.4996,0.0,0.0,0.0,0.0,0.0,0.0,0.0,0.0,2.59,0.0,2.8197,2.7795,2.8323,2.9792,3.0168,3.0633,3.116,3.17,3.1951,3.1989,3.2554,3.2805,3.2817,3.3006,3.3124,3.3124,3.3124,3.3124,3.3124,3.3124,3.3124,3.3124,3.4494,3.5462,3.6254,3.573,3.6219,3.6644,3.6443,3.7059,3.7349,3.6923,3.7538,3.8002,3.8002,3.7387,0.0,3.6973,3.6345,3.6157,3.6681,3.6031,3.5855,3.6392,3.5705,3.5341,3.5341,0.0,0.0,3.5341,3.5341,3.5341,3.5341,3.5341,3.5705,3.6405,3.6405,3.6405,3.6405,3.6405,3.6405,3.6405,3.6405,3.6405,3.6405,3.6405,3.6405,3.6405,3.6405,3.6405,3.6405,3.6405,3.6405,3.6405,3.6405,3.6405,3.6405,3.6405,3.6405,3.6405,3.6405,3.6405,3.6329,3.5931,3.5658,3.5207,3.4148,3.3633,3.3319,3.3162,3.3124,3.2968,3.2604,3.2353,3.1763,3.0342,0.0,3.047,0.0,0.0,0.0,0.0,0.0,0.0,0.0,2.6666,0.0,0.0,0.0,0.0,0.0,0.0,0.0,2.6302,2.6879,0.0,2.8837,2.8561,2.8988,3.0118,3.0859,3.1386,3.1725,3.2277,3.2541,3.2554,3.2918,3.3124,3.3124,3.3124,3.3124,3.3124,3.3124,3.3124,3.3124,3.3124,3.3124,3.3124,3.6304,3.6417,0.0,0.0,3.7199,0.0,3.6606,3.7374,3.7701,3.6719,3.7462,3.8128,3.8128,3.8128,3.8128,3.8128,0.0,0.0,0.0,3.7174,3.6923,3.648,3.6392,0.0,3.6292,3.6292,3.6329,3.6405,3.6405,3.6405,3.6405,3.6405,3.6405,3.6405,3.6405,3.6405,3.6405,3.6405,3.6405,3.6405,3.6405,3.6405,3.6405,3.6405,3.6405,3.6405,3.6405,3.6405,3.6405,3.6405,3.6405,3.6405,3.6405,3.6405,3.6405,3.6405,3.6405,3.6405,3.6405,3.6405,3.6405,3.6405,3.5956,3.5232,3.4248,3.396,3.3759,3.3244,3.3149,3.3124,3.3124,3.2641,3.2252,3.2227,3.1788,3.1223,3.0583,0.0,0.0,0.0,0.0,0.0,0.0,2.816,2.7959,0.0,0.0,0.0,0.0,0.0,0.0,2.5089,2.5674,2.6452,2.7507,2.8574,2.9602,3.0733,3.1738,3.2227,3.229,3.283,3.3124,3.3124,3.3124,3.3124,3.3124,3.3124,3.3124,3.3124,3.3124,3.3124,3.3124,3.3124,3.3124,3.3124,0.0,0.0,3.74,3.6709,3.7274,3.7764,3.7638,3.8216,3.863,3.8353,3.8868,3.9295,3.9295,3.9295,3.9295,3.9295,3.7726,3.7048,3.7764,3.7048,3.6709,3.6973,3.6182,3.5542,3.5115,3.5115,3.5529,3.6405,3.6405,3.6405,3.6405,3.6405,3.6405,3.6405,3.6405,3.6405,3.6405,3.6405,3.6405,3.6405,3.6405,3.6405,3.6405,3.6405,3.6405,3.6405,3.6405,3.6405,3.6405,3.6405,3.6405,3.6405,3.6405,3.6405,3.6405,3.6405,3.6405,3.6405,3.6405,3.6405,3.6405,3.6405,3.5956,3.5433,3.5169,3.45,3.3859,3.3734,3.337,3.3124,3.3124,3.2968,3.2729,3.2277,3.2102,3.1386,2.954,0.0,0.0,0.0,2.6979,2.7507,2.7482,2.8649,2.88,0.0,0.0,0.0,0.0,0.0,2.7306,2.8574,2.9151,2.9553,2.9829,3.0482,3.1148,3.1838,3.2089,3.2441,3.288,3.3018,3.3124,3.3124,3.3124,3.3124,3.3124,3.3124,3.3124,3.3124,3.3124,3.3124,3.3124,3.3124,3.3124,3.3124,3.6282,3.7186,3.7902,3.7588,3.8015,3.8479,3.8743,3.9044,3.9245,3.9245,3.9509,3.9697,3.9697,3.9697,3.9697,3.9697,3.858,3.8027,3.8379,3.7864,3.755,3.7563,3.6747,3.6157,3.5855,3.5604,3.5768,3.6405,3.6405,3.6405,3.6405,3.6405,3.6405,3.6405,3.6405,3.6405,3.6405,3.6405,3.6405,3.6405,3.6405,3.6405,3.6405,3.6405,3.6405,3.6405,3.6405,3.6405,3.6405,3.6405,3.6405,3.6405,3.6405,3.6405,3.6405,3.6405,3.6405,3.6405,3.6405,3.6405,3.6405,3.6405,3.6132,3.5855,3.5558,3.5044,3.4512,3.401,3.3658,3.337,3.3174,3.3124,3.2968,3.2654,3.1976,3.0972,2.9528,2.8662,0.0,2.7205,2.7921,2.8662,2.9114,2.9993,3.0143,2.9227,0.0,0.0,2.9139,2.8976,2.9277,3.0143,3.0696,3.0972,3.0972,3.1499,3.2051,3.2604,3.2604,3.2767,3.3124,3.3124,3.3124,3.3124,3.3124,3.3124,3.3124,3.3124,3.3124,3.3124,3.3124,3.3124,3.3124,3.3124,3.3124,3.3124,3.8241,3.8266,3.8417,3.8906,3.9045,3.9145,3.9622,3.9697,3.9697,3.9697,3.9697,3.9697,3.9697,3.9697,3.9697,3.9697,3.9697,3.9496,3.9032,3.9045,3.8743,3.8165,3.7688,3.74,3.7312,3.682,3.6531,3.6531,3.6455,3.6405,3.6405,3.6405,3.6405,3.6405,3.6405,3.6405,3.6405,3.6405,3.6405,3.6405,3.6405,3.6405,3.6405,3.6405,3.6405,3.6405,3.6405,3.6405,3.6405,3.6405,3.6405,3.6405,3.6405,3.6405,3.6405,3.6405,3.6405,3.6405,3.6405,3.6405,3.6405,3.6405,3.6405,3.6292,3.5768,3.5558,3.5232,3.4349,3.4085,3.3859,3.3307,3.3206,3.3093,3.2767,3.1599,3.0457,2.9641,0.0,2.8367,2.8963,2.9378,3.0085,3.1301,3.1549,3.159,3.1427,3.0703,0.0,0.0,3.0608,3.0369,3.0846,3.1286,3.1549,3.165,3.2114,3.2591,3.3124,3.3124,3.3124,3.3124,3.3124,3.3124,3.3124,3.3124,3.3124,3.3124,3.3124,3.3124,3.3124,3.3124,3.3197,3.3313,3.3154,3.3197,3.3313,3.9346,3.9433,3.9459,3.9546,3.9572,3.9597,3.9685,3.9697,3.9697,3.9697,3.9697,3.9697,3.9697,3.9697,3.9697,3.9697,3.9697,3.9659,3.9572,3.9572,3.932,3.8755,3.8655,3.8379,3.7889,3.7337,3.7109,3.7109,3.6631,3.6405,3.6405,3.6405,3.6405,3.6405,3.6405,3.6405,3.6405,3.6405,3.6405,3.6405,3.6405,3.6405,3.6405,3.6405,3.6405,3.6405,3.6405,3.6405,3.6405,3.6405,3.6405,3.6405,3.6405,3.6405,3.6405,3.6405,3.6405,3.6405,3.6405,3.6405,3.6405,3.6405,3.6405,3.6392,3.6304,3.5881,3.5445,3.5282,3.4868,3.4424,3.3872,3.3771,3.3156,3.1298,3.1148,3.0583,0.0,0.0,3.15,2.9857,3.1641,3.2616,3.1533,3.2209,3.2368,3.1468,3.2094,3.2187,3.1455,3.1675,3.1876,3.1964,3.2039,3.2315,3.2847,3.2905,3.2993,3.3124,3.3124,3.3124,3.3124,3.3124,3.3124,3.3124,3.3124,3.3124,3.3124,3.3124,3.3124,3.3124,3.3124,3.3641,3.4345,3.3441,3.367,3.4304,3.9647,3.9697,3.9697,3.9697,3.9697,3.9697,3.9697,3.9697,3.9697,3.9697,3.9697,3.9697,3.9697,3.9697,3.9697,3.9697,3.9697,3.9697,3.9697,3.9697,3.9584,3.932,3.9032,3.8605,3.8015,3.7764,3.7626,3.7626,3.7374,3.7098,3.6857,3.6857,3.6694,3.6405,3.6405,3.6405,3.6405,3.6405,3.6405,3.6405,3.6405,3.6405,3.6405,3.6405,3.6405,3.6405,3.6405,3.6405,3.6405,3.6405,3.6405,3.6405,3.6405,3.6405,3.6405,3.6405,3.6405,3.6405,3.6405,3.6405,3.6405,3.6405,3.6405,3.6405,3.6405,3.6646,3.6629,3.5684,3.5805,3.575,3.4571,3.4545,3.4414,3.3411,3.2922,0.0,0.0,3.161,3.1993,3.0399,3.264,3.3753,3.2441,3.3288,3.348,3.2374,3.2778,3.3096,3.3152,3.3398,3.354,3.354,3.2992,3.2805,3.3124,3.3124,3.3124,3.3124,3.3124,3.3124,3.3124,3.3124,3.3124,3.3111,3.3713,3.3953,3.3982,3.4568,3.4761,3.4719,3.4178,3.4622,3.54,3.4345,3.4622,3.544,3.9697,3.9697,3.9697,3.9697,3.9697,3.9697,3.9697,3.9697,3.9697,3.9697,3.9697,3.9697,3.9697,3.9697,3.9697,3.9697,3.9697,3.9697,3.9697,3.9697,3.9697,3.9697,3.9295,3.8856,3.8417,3.8266,3.8203,3.8203,3.8078,3.7789,3.7374,3.7374,3.7149,3.6782,3.6656,3.6606,3.6593,3.6468,3.6405,3.6405,3.6405,3.6405,3.6405,3.6405,3.6405,3.6405,3.6405,3.6405,3.6405,3.6405,3.6405,3.6405,3.6405,3.6405,3.6405,3.6405,3.6581,3.6803,3.6803,3.6803,3.6849,3.7163,3.6977,3.6849,3.7163,3.7678,3.7807,3.6735,3.725,3.7453,3.5985,3.6018,3.6156,3.565,0.0,0.0,0.0,3.2985,3.2751,3.1685,3.3859,3.491,3.3598,3.4664,3.4979,3.3911,3.4066,3.4345,3.4664,3.4705,3.4705,3.4705,3.367,3.3124,3.3124,3.3124,3.3124,3.3124,3.3356,3.3471,3.3471,3.37,3.3827,3.3869,3.4692,3.5047,3.5129,3.5894,3.6198,3.6119,3.5359,3.5668,3.6448,3.544,3.5722,3.6526,3.9697,3.9697,3.9697,3.9697,3.9697,3.9697,3.9697,3.9697,3.9697,3.9697,3.9697,3.9697,3.9697,3.9697,3.9697,3.9697,3.9697,3.9697,3.9697,3.9697,3.9697,3.9697,3.9647,3.9609,3.9572,3.9069,3.8806,3.8806,3.8266,3.799,3.7952,3.7952,3.7927,3.7864,3.7349,3.7123,3.7098,3.6619,3.6405,3.6405,3.6405,3.6405,3.6405,3.6405,3.6405,3.6405,3.6405,3.6405,3.6405,3.6405,3.6405,3.6405,3.6405,3.6405,3.6405,3.6405,3.715,3.7984,3.7984,3.7984,3.8243,3.936,3.8783,3.8243,3.9417,3.8827,3.8366,3.9349,3.9656,3.9507,3.8831,3.8722,3.8076,3.6045,0.0,0.0,3.4617,3.5299,3.5517,3.451,3.6288,3.6763,3.4787,3.6411,3.7151,3.6053,3.6905,3.6646,3.4787,3.4705,3.4705,3.4705,3.367,3.3124,3.3124,3.3124,3.3124,3.3124,3.4108,3.4594,3.4622,3.5547,3.5974,3.5974,3.6053,3.6093,3.6093,3.6158,3.6198,3.6198,3.6132,3.6735,3.7548,3.6487,3.6774,3.7548,3.9697,3.9697,3.9697,3.9697,3.9697,3.9697,3.9697,3.9697,3.9697,3.9697,3.9697,3.9697,3.9697,3.9697,3.9697,3.9697,3.9697,3.9697,3.9697,3.9697,3.9697,3.9697,3.9697,3.9697,3.9697,3.9484,3.9383,3.9383,3.917,3.8881,3.8542,3.8542,3.8354,3.8002,3.7789,3.7701,3.7676,3.7475,3.7186,3.692,3.692,3.6719,3.6405,3.6405,3.6405,3.6405,3.6405,3.6405,3.6405,3.6405,3.6405,3.6546,3.7243,3.7461,3.7586,3.8347,3.8885,3.9346,4.0074,3.9741,3.9316,3.9768,3.9549,3.9316,3.9812,4.0088,4.0204,3.9929,4.0447,4.0675,3.9711,3.9817,3.9696,3.8865,0.0,3.887,3.7982,3.8198,3.788,3.6429,3.7521,3.7692,3.5815,3.6958,3.7343,3.6277,3.6565,3.6735,3.6646,3.6607,3.6607,3.6607,3.5601,3.5034,3.5034,3.5034,3.5034,3.5034,3.5426,3.5628,3.5628,3.6013,3.6198,3.6251,3.6891,3.7175,3.7252,3.789,3.8167,3.813,3.7458,3.7866,3.8657,3.7587,3.7866,3.8745,3.9697,3.9697,3.9697,3.9697,3.9697,3.9697,3.9697,3.9697,3.9697,3.9697,3.9697,3.9697,3.9697,3.9697,3.9697,3.9697,3.9697,3.9697,3.9697,3.9697,3.9697,3.9697,3.9697,3.9697,3.9697,3.9697,3.9697,3.9697,3.9697,3.9496,3.9132,3.9132,3.8919,3.853,3.8354,3.8278,3.8266,3.809,3.7789,3.7437,3.7437,3.7111,3.6704,3.707,3.7083,3.6977,3.7381,3.752,3.7428,3.707,3.693,3.7057,3.7848,3.8379,3.8827,3.9681,4.0145,4.0618,4.1378,4.1295,4.0972,4.0972,4.0717,4.0532,4.0887,4.1309,4.1462,4.1057,4.1601,4.1906,4.1099,4.1256,4.1456,4.1456,4.1607,4.1477,4.072,4.0427,3.9714,3.8185,3.8935,3.9011,3.747,3.8289,3.8625,3.7912,3.782,3.799,3.8419,3.8419,3.8419,3.8419,3.8029,3.782,3.782,3.6747,3.6198,3.6198,3.6526,3.6682,3.6721,3.7046,3.72,3.7252,3.7979,3.8308,3.8345,3.9104,3.9388,3.9337,3.8583,3.8745,3.9301,3.8583,3.8782,3.9388,3.9697,3.9697,3.9697,3.9697,3.9697,3.9697,3.9697,3.9697,3.9697,3.9697,3.9697,3.9697,3.9697,3.9697,3.9697,3.9697,3.9697,3.9697,3.9697,3.9697,3.9697,3.9697,3.9697,3.9697,3.9697,3.9697,3.9697,3.9697,3.9697,3.9697,3.9697,3.9697,3.9697,3.9672,3.912,3.8932,3.8894,3.8266,3.8015,3.8015,3.8015,3.7676,3.7318,3.8491,3.8576,3.8289,3.9461,3.9899,3.9724,3.8514,3.8107,3.8121,3.8107,3.8961,3.9942,3.9942,4.0746,4.1587,4.1587,4.2426,4.329,4.329,4.2467,4.1891,4.3036,4.2412,4.1932,4.3076,4.329,4.329,4.329,4.329,4.329,4.329,4.2791,4.241,4.241,4.1841,4.1012,3.9927,4.0752,4.1012,3.9913,4.079,4.1422,4.1422,4.1422,4.092,3.9873,3.9794,3.9794,3.9794,4.0843,4.1422,4.1422,3.7955,3.6251,3.6251,3.7319,3.7843,3.7843,3.8922,3.9439,3.9439,3.9439,3.9439,3.9439,3.9439,3.9439,3.9439,3.9388,3.9388,3.9388,3.9388,3.9388,3.9388,3.9697,3.9697,3.9697,3.9697,3.9697,3.9697,3.9697,3.9697,3.9697,3.9697,3.9697,3.9697,3.9697,3.9697,3.9697,3.9697,3.9697,3.9697,3.9697,3.9697,3.9697,3.9697,3.9697,3.9697,3.9697,3.9697,3.9697,3.9697,3.9697,3.9697,3.9697,3.9697,3.9697,3.9685,3.9521,3.9446,3.9433,3.927,3.8969,3.8617,3.8617,3.8821,3.9125,3.9478,3.9759,4.0035,4.0404,4.0244,3.9855,3.9492,3.936,3.9492,4.029,4.1337,4.2304,4.2304,4.2522,4.2805,4.2805,4.3036,4.329,4.329,4.3036,4.29,4.321,4.3036,4.29,4.325,4.329,4.329,4.329,4.329,4.329,4.329,4.3125,4.3045,4.3045,4.2865,4.2449,4.17,4.1903,4.1801,4.1003,4.1217,4.1422,4.1422,4.1422,4.1255,4.092,4.092,4.092,4.092,4.1217,4.1422,4.1422,4.0368,3.9841,3.9865,4.0161,4.0343,4.0343,4.0674,4.0786,4.0786,4.0786,4.0786,4.0786,4.0786,4.0786,4.0756,4.0292,4.0113,4.0053,3.9553,3.9388,3.9388,3.9697,3.9697,3.9697,3.9697,3.9697,3.9697,3.9697,3.9697,3.9772,3.9986,4.0023,4.0111,4.0325,4.0337,4.0262,4.0036,3.9823,3.9697,3.9697,3.9697,3.9929,4.0415,4.0453,4.0224,3.9697,3.9697,3.9697,3.9697,3.9697,3.9697,3.9697,4.0224,4.0453,4.0453,4.0982,4.1219,4.1169,4.0642,4.055,4.066,4.019,4.0406,4.1066,4.1519,4.1789,4.1972,4.2408,4.2353,4.1924,4.1197,4.0772,4.0703,4.1378,4.2371,4.329,4.329,4.329,4.329,4.329,4.329,4.329,4.329,4.329,4.329,4.329,4.329,4.329,4.329,4.329,4.329,4.329,4.329,4.329,4.329,4.329,4.329,4.329,4.329,4.314,4.2791,4.2746,4.2596,4.2192,4.2147,4.2147,4.2147,4.2147,4.2147,4.2147,4.2147,4.2147,4.2147,4.2147,4.2147,4.2147,4.2147,4.1893,4.1422,4.1422,4.1422,4.1422,4.1422,4.1422,4.1422,4.1422,4.1422,4.1422,4.1422,4.1422,4.1339,4.0935,4.0786,4.0741,4.0337,4.0023,3.9813,3.9697,3.9697,3.9697,3.9697,3.9735,3.9772,3.9772,3.981,4.0023,4.0526,4.0588,4.0777,4.1225,4.1288,4.1075,4.0626,4.0124,3.9823,3.9772,3.9772,4.0313,4.1555,4.1604,4.1119,4.0083,3.9929,3.989,3.989,3.9736,3.9697,3.9749,4.0882,4.1505,4.1654,4.2786,4.3409,4.3409,4.2266,4.2461,4.3409,4.2217,4.2234,4.3046,4.4077,4.4194,4.3964,4.503,4.5349,4.506,4.3392,4.2445,4.1926,4.1926,4.2599,4.3379,4.3379,4.3349,4.329,4.329,4.329,4.329,4.329,4.329,4.329,4.329,4.329,4.329,4.329,4.329,4.329,4.329,4.329,4.329,4.329,4.329,4.329,4.329,4.329,4.329,4.329,4.329,4.329,4.329,4.329,4.329,4.329,4.329,4.329,4.329,4.329,4.329,4.329,4.329,4.329,4.329,4.329,4.2731,4.1549,4.1549,4.1549,4.1549,4.1549,4.1549,4.1549,4.1549,4.1549,4.1549,4.1549,4.1549,4.1549,4.1527,4.1512,4.1459,4.1399,4.0995,4.0487,3.9697,3.9697,3.9697,3.9697,4.0049,4.0337,4.0337,4.0701,4.0974,4.1087,4.1112,4.115,4.1275,4.1288,4.1238,4.1125,4.1,4.0802,4.0362,4.0337,4.0721,4.1568,4.1604,4.1936,4.2641,4.169,4.1169,4.1169,4.0173,3.9697,3.9697,3.9981,4.0655,4.1604,4.1887,4.2544,4.3504,4.3218,4.3266,4.3504,4.3218,4.3798,4.4824,4.5096,4.5419,4.5743,4.6013,4.5753,4.5233,4.4861,4.4629,4.451,4.451,4.4292,4.4067,4.4067,4.3693,4.329,4.329,4.329,4.329,4.329,4.329,4.329,4.329,4.329,4.329,4.329,4.329,4.329,4.329,4.329,4.329,4.329,4.329,4.329,4.329,4.329,4.329,4.329,4.329,4.329,4.329,4.329,4.329,4.329,4.329,4.329,4.329,4.329,4.329,4.329,4.329,4.329,4.329,4.329,4.3155,4.2871,4.2871,4.2871,4.2871,4.2871,4.2871,4.2871,4.2871,4.2871,4.2871,4.2871,4.2871,4.2851,4.2381,4.2186,4.2126,4.1602,4.1294,4.1175,3.9697,3.991,4.0086,4.0086,4.0538,4.0862,4.0862,4.11,4.1376,4.1693,4.1731,4.2077,4.2954,4.3087,4.3226,4.3664,4.3426,4.2891,4.1957,4.2525,4.303,4.3359,4.3697,4.4503,4.5758,4.4223,4.3122,4.2509,4.1838,4.1505,4.1555,4.2119,4.2786,4.3456,4.4069,4.4688,4.5252,4.4642,4.478,4.5252,4.4642,4.5161,4.6299,4.6299,4.6519,4.68,4.68,4.6352,4.5783,4.5783,4.5559,4.5289,4.5289,4.5065,4.4781,4.4781,4.4541,4.4272,4.4272,4.4007,4.3768,4.3768,4.3529,4.329,4.329,4.329,4.329,4.329,4.329,4.329,4.329,4.329,4.329,4.329,4.329,4.329,4.329,4.329,4.329,4.329,4.329,4.329,4.329,4.329,4.329,4.329,4.329,4.329,4.329,4.329,4.329,4.329,4.329,4.329,4.329,4.329,4.329,4.329,4.329,4.329,4.329,4.329,4.329,4.329,4.329,4.329,4.329,4.329,4.329,4.326,4.2955,4.2821,4.2791,4.2447,4.2117,4.1841,3.9973,4.0337,4.0664,4.0664,4.1116,4.148,4.148,4.1501,4.1823,4.2591,4.2654,4.3339,4.5142,4.5356,4.5671,4.639,4.6043,4.5212,4.3966,4.5002,4.5656,4.5657,4.6239,4.7186,4.8446,4.6798,4.523,4.3834,4.3598,4.3504,4.3504,4.4595,4.5207,4.5448,4.6491,4.7121,4.7207,4.6166,4.6344,4.7207,4.6166,4.6358,4.7309,4.7309,4.7309,4.7309,4.7309,4.695,4.6444,4.6444,4.6112,4.5633,4.5633,4.5559,4.5469,4.5469,4.5394,4.5289,4.5289,4.49,4.4481,4.4481,4.4062,4.3618,4.3618,4.3454,4.329,4.329,4.329,4.329,4.329,4.329,4.329,4.329,4.329,4.329,4.329,4.329,4.329,4.329,4.329,4.329,4.329,4.329,4.329,4.329,4.329,4.329,4.329,4.329,4.329,4.329,4.329,4.329,4.329,4.329,4.329,4.329,4.329,4.329,4.329,4.329,4.329,4.329,4.329,4.329,4.329,4.329,4.329,4.329,4.329,4.329,4.329,4.329,4.2985,4.2485,4.1062,4.1125,4.1175,4.1175,4.1681,4.2099,4.2099,4.2446,4.3203,4.4459,4.4621,4.5156,4.6682,4.6837,4.6861,4.6984,4.6901,4.6639,4.5963,4.6086,4.6448,4.71,4.7189,4.7843,4.9134,4.8343,4.7006,4.5161,4.4022,4.3504,4.3504,4.3693,4.4349,4.5403,4.5584,4.6255,4.7309,4.7121,4.7164,4.7266,4.7121,4.7164,4.7309,4.7309,4.7309,4.7309,4.7309,4.7249,4.7174,4.7174,4.7115,4.704,4.704,4.6636,4.6145,4.6145,4.5753,4.5289,4.5289,4.5229,4.5155,4.5155,4.5095,4.5035,4.5035,4.4152,4.329,4.329,4.329,4.329,4.329,4.329,4.329,4.329,4.329,4.329,4.329,4.329,4.329,4.329,4.329,4.329,4.329,4.329,4.329,4.329,4.329,4.329,4.329,4.329,4.329,4.329,4.329,4.329,4.329,4.329,4.329,4.329,4.329,4.329,4.329,4.329,4.329,4.329,4.329,4.329,4.329,4.329,4.329,4.329,4.329,4.329,4.329,4.329,4.3245,4.3155,4.1288,4.158,4.1794,4.1794,4.2246,4.2678,4.2678,4.2879,4.3184,4.381,4.4522,4.5555,4.694,4.8489,4.9406,4.9406,4.9406,4.8983,4.7992,4.8632,4.8871,4.8437,4.8737,4.9212,4.9808,4.9164,4.8447,4.7566,4.6277,4.5629,4.5629,4.5629,4.5928,4.6447,4.6447,4.6785,4.7309,4.7309,4.7309,4.7309,4.7309,4.7309,4.7309,4.7309,4.7309,4.7309,4.7309,4.7309,4.7309,4.7309,4.7309,4.7309,4.7309,4.7115,4.6875,4.6875,4.6651,4.6426,4.6426,4.6142,4.5873,4.5873,4.5589,4.5289,4.5289,4.484,4.4332,4.3958,4.3544,4.329,4.329,4.329,4.329,4.329,4.329,4.329,4.329,4.329,4.329,4.329,4.329,4.329,4.329,4.329,4.329,4.329,4.329,4.329,4.329,4.329,4.329,4.329,4.329,4.329,4.329,4.329,4.329,4.329,4.329,4.329,4.329,4.329,4.329,4.329,4.329,4.329,4.329,4.329,4.329,4.329,4.329,4.329,4.329,4.329,4.329,4.329]}]]